<?xml version="1.0" encoding="UTF-8" standalone="no" ?>
<gpx xmlns="http://www.topografix.com/GPX/1/1" xmlns:xsi="http://www.w3.org/2001/XMLSchema-instance" xsi:schemaLocation="http://www.topografix.com/GPX/1/1 http://www.topografix.com/GPX/1/1/gpx.xsd" version="1.1" creator="VisuGPX - https://www.visugpx.com">
  <metadata>
    <name>Balade de 11km entre Fresville et Ecausseville</name>
  </metadata>
  <trk>
    <name><![CDATA[Balade de 11km entre Fresville et Ecausseville_1]]></name>
    <trkseg>
      <trkpt lat="49.44034" lon="-1.38548">
        <ele>1.1</ele>
        <time>2022-08-29T12:34:17Z</time>
      </trkpt>
      <trkpt lat="49.4403" lon="-1.3854">
        <ele>0.8</ele>
        <time>2022-08-29T12:34:57Z</time>
      </trkpt>
      <trkpt lat="49.44025" lon="-1.38536">
        <ele>1</ele>
        <time>2022-08-29T12:35:01Z</time>
      </trkpt>
      <trkpt lat="49.4402" lon="-1.38532">
        <ele>0.9</ele>
        <time>2022-08-29T12:35:04Z</time>
      </trkpt>
      <trkpt lat="49.44016" lon="-1.38529">
        <ele>0.7</ele>
        <time>2022-08-29T12:35:07Z</time>
      </trkpt>
      <trkpt lat="49.44012" lon="-1.38523">
        <ele>-0.2</ele>
        <time>2022-08-29T12:35:12Z</time>
      </trkpt>
      <trkpt lat="49.4401" lon="-1.38516">
        <ele>0.1</ele>
        <time>2022-08-29T12:35:17Z</time>
      </trkpt>
      <trkpt lat="49.44011" lon="-1.38507">
        <ele>0.1</ele>
        <time>2022-08-29T12:35:22Z</time>
      </trkpt>
      <trkpt lat="49.44011" lon="-1.385">
        <ele>0.4</ele>
        <time>2022-08-29T12:35:25Z</time>
      </trkpt>
      <trkpt lat="49.44011" lon="-1.38493">
        <ele>0.2</ele>
        <time>2022-08-29T12:35:29Z</time>
      </trkpt>
      <trkpt lat="49.4401" lon="-1.38486">
        <ele>0.8</ele>
        <time>2022-08-29T12:35:33Z</time>
      </trkpt>
      <trkpt lat="49.4401" lon="-1.38479">
        <ele>1.5</ele>
        <time>2022-08-29T12:35:40Z</time>
      </trkpt>
      <trkpt lat="49.44005" lon="-1.38476">
        <ele>0.9</ele>
        <time>2022-08-29T12:35:44Z</time>
      </trkpt>
      <trkpt lat="49.44001" lon="-1.38476">
        <ele>0.1</ele>
        <time>2022-08-29T12:35:48Z</time>
      </trkpt>
      <trkpt lat="49.43996" lon="-1.38478">
        <ele>-0.8</ele>
        <time>2022-08-29T12:35:52Z</time>
      </trkpt>
      <trkpt lat="49.43991" lon="-1.38478">
        <ele>-0.2</ele>
        <time>2022-08-29T12:35:56Z</time>
      </trkpt>
      <trkpt lat="49.43985" lon="-1.38478">
        <ele>0.3</ele>
        <time>2022-08-29T12:36:00Z</time>
      </trkpt>
      <trkpt lat="49.4398" lon="-1.38481">
        <ele>0.6</ele>
        <time>2022-08-29T12:36:04Z</time>
      </trkpt>
      <trkpt lat="49.43974" lon="-1.3848">
        <ele>0.6</ele>
        <time>2022-08-29T12:36:08Z</time>
      </trkpt>
      <trkpt lat="49.4397" lon="-1.38476">
        <ele>0.5</ele>
        <time>2022-08-29T12:36:12Z</time>
      </trkpt>
      <trkpt lat="49.43967" lon="-1.3847">
        <ele>3.1</ele>
        <time>2022-08-29T12:36:39Z</time>
      </trkpt>
      <trkpt lat="49.43962" lon="-1.38466">
        <ele>2.8</ele>
        <time>2022-08-29T12:36:42Z</time>
      </trkpt>
      <trkpt lat="49.43958" lon="-1.38462">
        <ele>3</ele>
        <time>2022-08-29T12:36:45Z</time>
      </trkpt>
      <trkpt lat="49.43954" lon="-1.38455">
        <ele>3.1</ele>
        <time>2022-08-29T12:36:49Z</time>
      </trkpt>
      <trkpt lat="49.43952" lon="-1.38448">
        <ele>3.8</ele>
        <time>2022-08-29T12:36:53Z</time>
      </trkpt>
      <trkpt lat="49.43951" lon="-1.3844">
        <ele>2.4</ele>
        <time>2022-08-29T12:36:57Z</time>
      </trkpt>
      <trkpt lat="49.43951" lon="-1.38433">
        <ele>2.2</ele>
        <time>2022-08-29T12:37:00Z</time>
      </trkpt>
      <trkpt lat="49.43952" lon="-1.38426">
        <ele>2.6</ele>
        <time>2022-08-29T12:37:05Z</time>
      </trkpt>
      <trkpt lat="49.4395" lon="-1.38418">
        <ele>2.9</ele>
        <time>2022-08-29T12:37:11Z</time>
      </trkpt>
      <trkpt lat="49.43948" lon="-1.38409">
        <ele>2.9</ele>
        <time>2022-08-29T12:37:15Z</time>
      </trkpt>
      <trkpt lat="49.43948" lon="-1.38399">
        <ele>3.3</ele>
        <time>2022-08-29T12:37:20Z</time>
      </trkpt>
      <trkpt lat="49.43947" lon="-1.38391">
        <ele>4</ele>
        <time>2022-08-29T12:37:24Z</time>
      </trkpt>
      <trkpt lat="49.43944" lon="-1.38384">
        <ele>3.9</ele>
        <time>2022-08-29T12:37:29Z</time>
      </trkpt>
      <trkpt lat="49.43941" lon="-1.38378">
        <ele>4.2</ele>
        <time>2022-08-29T12:37:33Z</time>
      </trkpt>
      <trkpt lat="49.43938" lon="-1.38371">
        <ele>5.9</ele>
        <time>2022-08-29T12:37:57Z</time>
      </trkpt>
      <trkpt lat="49.43936" lon="-1.38362">
        <ele>5.4</ele>
        <time>2022-08-29T12:38:00Z</time>
      </trkpt>
      <trkpt lat="49.43935" lon="-1.38355">
        <ele>5.1</ele>
        <time>2022-08-29T12:38:04Z</time>
      </trkpt>
      <trkpt lat="49.43932" lon="-1.38347">
        <ele>5.9</ele>
        <time>2022-08-29T12:38:08Z</time>
      </trkpt>
      <trkpt lat="49.4393" lon="-1.38339">
        <ele>5.7</ele>
        <time>2022-08-29T12:38:12Z</time>
      </trkpt>
      <trkpt lat="49.43927" lon="-1.3833">
        <ele>5.8</ele>
        <time>2022-08-29T12:38:16Z</time>
      </trkpt>
      <trkpt lat="49.43926" lon="-1.38324">
        <ele>5.6</ele>
        <time>2022-08-29T12:38:20Z</time>
      </trkpt>
      <trkpt lat="49.43925" lon="-1.38314">
        <ele>6.1</ele>
        <time>2022-08-29T12:38:24Z</time>
      </trkpt>
      <trkpt lat="49.43925" lon="-1.38305">
        <ele>6</ele>
        <time>2022-08-29T12:38:29Z</time>
      </trkpt>
      <trkpt lat="49.43923" lon="-1.38298">
        <ele>5.4</ele>
        <time>2022-08-29T12:38:49Z</time>
      </trkpt>
      <trkpt lat="49.43923" lon="-1.3829">
        <ele>5.9</ele>
        <time>2022-08-29T12:38:52Z</time>
      </trkpt>
      <trkpt lat="49.43922" lon="-1.38283">
        <ele>5.5</ele>
        <time>2022-08-29T12:38:55Z</time>
      </trkpt>
      <trkpt lat="49.43921" lon="-1.38276">
        <ele>5</ele>
        <time>2022-08-29T12:38:59Z</time>
      </trkpt>
      <trkpt lat="49.43917" lon="-1.38271">
        <ele>4.7</ele>
        <time>2022-08-29T12:39:03Z</time>
      </trkpt>
      <trkpt lat="49.43915" lon="-1.38265">
        <ele>4.6</ele>
        <time>2022-08-29T12:39:08Z</time>
      </trkpt>
      <trkpt lat="49.43912" lon="-1.38259">
        <ele>4.4</ele>
        <time>2022-08-29T12:39:13Z</time>
      </trkpt>
      <trkpt lat="49.43906" lon="-1.38256">
        <ele>4.4</ele>
        <time>2022-08-29T12:39:16Z</time>
      </trkpt>
      <trkpt lat="49.43902" lon="-1.38249">
        <ele>5.6</ele>
        <time>2022-08-29T12:39:19Z</time>
      </trkpt>
      <trkpt lat="49.43899" lon="-1.38243">
        <ele>6.3</ele>
        <time>2022-08-29T12:39:23Z</time>
      </trkpt>
      <trkpt lat="49.43898" lon="-1.38235">
        <ele>6.9</ele>
        <time>2022-08-29T12:39:26Z</time>
      </trkpt>
      <trkpt lat="49.43897" lon="-1.38228">
        <ele>7</ele>
        <time>2022-08-29T12:39:29Z</time>
      </trkpt>
      <trkpt lat="49.43896" lon="-1.38219">
        <ele>7.2</ele>
        <time>2022-08-29T12:39:33Z</time>
      </trkpt>
      <trkpt lat="49.43895" lon="-1.38211">
        <ele>7.5</ele>
        <time>2022-08-29T12:39:36Z</time>
      </trkpt>
      <trkpt lat="49.43897" lon="-1.38204">
        <ele>6</ele>
        <time>2022-08-29T12:39:39Z</time>
      </trkpt>
      <trkpt lat="49.43903" lon="-1.38203">
        <ele>6.1</ele>
        <time>2022-08-29T12:39:43Z</time>
      </trkpt>
      <trkpt lat="49.43908" lon="-1.38203">
        <ele>6.2</ele>
        <time>2022-08-29T12:39:46Z</time>
      </trkpt>
      <trkpt lat="49.43912" lon="-1.38203">
        <ele>5.7</ele>
        <time>2022-08-29T12:39:49Z</time>
      </trkpt>
      <trkpt lat="49.43916" lon="-1.38207">
        <ele>4.5</ele>
        <time>2022-08-29T12:39:52Z</time>
      </trkpt>
      <trkpt lat="49.43922" lon="-1.38208">
        <ele>4.7</ele>
        <time>2022-08-29T12:39:55Z</time>
      </trkpt>
      <trkpt lat="49.43928" lon="-1.38209">
        <ele>4.6</ele>
        <time>2022-08-29T12:39:59Z</time>
      </trkpt>
      <trkpt lat="49.43933" lon="-1.3821">
        <ele>4.3</ele>
        <time>2022-08-29T12:40:03Z</time>
      </trkpt>
      <trkpt lat="49.43944" lon="-1.38205">
        <ele>2.3</ele>
        <time>2022-08-29T12:40:12Z</time>
      </trkpt>
      <trkpt lat="49.43948" lon="-1.382">
        <ele>1.1</ele>
        <time>2022-08-29T12:40:16Z</time>
      </trkpt>
      <trkpt lat="49.43949" lon="-1.38194">
        <ele>1</ele>
        <time>2022-08-29T12:40:20Z</time>
      </trkpt>
      <trkpt lat="49.43946" lon="-1.38188">
        <ele>1</ele>
        <time>2022-08-29T12:40:25Z</time>
      </trkpt>
      <trkpt lat="49.43946" lon="-1.3818">
        <ele>0.7</ele>
        <time>2022-08-29T12:40:29Z</time>
      </trkpt>
      <trkpt lat="49.43948" lon="-1.38173">
        <ele>0.6</ele>
        <time>2022-08-29T12:40:33Z</time>
      </trkpt>
      <trkpt lat="49.43951" lon="-1.38165">
        <ele>0.9</ele>
        <time>2022-08-29T12:40:36Z</time>
      </trkpt>
      <trkpt lat="49.43955" lon="-1.38162">
        <ele>1.7</ele>
        <time>2022-08-29T12:40:40Z</time>
      </trkpt>
      <trkpt lat="49.4396" lon="-1.38158">
        <ele>1.6</ele>
        <time>2022-08-29T12:40:44Z</time>
      </trkpt>
      <trkpt lat="49.43965" lon="-1.38161">
        <ele>2.1</ele>
        <time>2022-08-29T12:40:49Z</time>
      </trkpt>
      <trkpt lat="49.43969" lon="-1.38158">
        <ele>2.3</ele>
        <time>2022-08-29T12:40:52Z</time>
      </trkpt>
      <trkpt lat="49.43972" lon="-1.38152">
        <ele>1.5</ele>
        <time>2022-08-29T12:40:55Z</time>
      </trkpt>
      <trkpt lat="49.43976" lon="-1.38148">
        <ele>1.7</ele>
        <time>2022-08-29T12:40:58Z</time>
      </trkpt>
      <trkpt lat="49.43979" lon="-1.38141">
        <ele>1.8</ele>
        <time>2022-08-29T12:41:03Z</time>
      </trkpt>
      <trkpt lat="49.43981" lon="-1.38134">
        <ele>1.3</ele>
        <time>2022-08-29T12:41:10Z</time>
      </trkpt>
      <trkpt lat="49.43986" lon="-1.38132">
        <ele>1.1</ele>
        <time>2022-08-29T12:41:14Z</time>
      </trkpt>
      <trkpt lat="49.43991" lon="-1.38131">
        <ele>0.3</ele>
        <time>2022-08-29T12:41:19Z</time>
      </trkpt>
      <trkpt lat="49.43995" lon="-1.38131">
        <ele>-0.4</ele>
        <time>2022-08-29T12:41:23Z</time>
      </trkpt>
      <trkpt lat="49.44" lon="-1.38131">
        <ele>-0.6</ele>
        <time>2022-08-29T12:41:27Z</time>
      </trkpt>
      <trkpt lat="49.44005" lon="-1.38129">
        <ele>0.2</ele>
        <time>2022-08-29T12:41:31Z</time>
      </trkpt>
      <trkpt lat="49.44009" lon="-1.38125">
        <ele>0.2</ele>
        <time>2022-08-29T12:41:35Z</time>
      </trkpt>
      <trkpt lat="49.44013" lon="-1.38119">
        <ele>1.6</ele>
        <time>2022-08-29T12:41:40Z</time>
      </trkpt>
      <trkpt lat="49.44017" lon="-1.38121">
        <ele>2.6</ele>
        <time>2022-08-29T12:41:52Z</time>
      </trkpt>
      <trkpt lat="49.44022" lon="-1.38126">
        <ele>2.6</ele>
        <time>2022-08-29T12:42:15Z</time>
      </trkpt>
      <trkpt lat="49.44026" lon="-1.38126">
        <ele>1.9</ele>
        <time>2022-08-29T12:42:20Z</time>
      </trkpt>
      <trkpt lat="49.44031" lon="-1.38129">
        <ele>0.8</ele>
        <time>2022-08-29T12:42:36Z</time>
      </trkpt>
      <trkpt lat="49.44034" lon="-1.38136">
        <ele>-0.2</ele>
        <time>2022-08-29T12:42:41Z</time>
      </trkpt>
      <trkpt lat="49.44033" lon="-1.38143">
        <ele>6</ele>
        <time>2022-08-29T12:42:45Z</time>
      </trkpt>
      <trkpt lat="49.44035" lon="-1.3815">
        <ele>-0.4</ele>
        <time>2022-08-29T12:42:49Z</time>
      </trkpt>
      <trkpt lat="49.44035" lon="-1.3816">
        <ele>-0.8</ele>
        <time>2022-08-29T12:42:53Z</time>
      </trkpt>
      <trkpt lat="49.44035" lon="-1.38168">
        <ele>-0.5</ele>
        <time>2022-08-29T12:42:58Z</time>
      </trkpt>
      <trkpt lat="49.44036" lon="-1.38176">
        <ele>-0.6</ele>
        <time>2022-08-29T12:43:02Z</time>
      </trkpt>
      <trkpt lat="49.4404" lon="-1.38178">
        <ele>-3</ele>
        <time>2022-08-29T12:43:08Z</time>
      </trkpt>
      <trkpt lat="49.44045" lon="-1.3818">
        <ele>-2.9</ele>
        <time>2022-08-29T12:43:13Z</time>
      </trkpt>
      <trkpt lat="49.44051" lon="-1.38186">
        <ele>-2.7</ele>
        <time>2022-08-29T12:43:17Z</time>
      </trkpt>
      <trkpt lat="49.44049" lon="-1.38178">
        <ele>-2.6</ele>
        <time>2022-08-29T12:44:14Z</time>
      </trkpt>
      <trkpt lat="49.4405" lon="-1.38172">
        <ele>-2.6</ele>
        <time>2022-08-29T12:44:21Z</time>
      </trkpt>
      <trkpt lat="49.44053" lon="-1.38164">
        <ele>-3</ele>
        <time>2022-08-29T12:44:25Z</time>
      </trkpt>
      <trkpt lat="49.44058" lon="-1.38156">
        <ele>-3.5</ele>
        <time>2022-08-29T12:44:30Z</time>
      </trkpt>
      <trkpt lat="49.44061" lon="-1.38149">
        <ele>-3.6</ele>
        <time>2022-08-29T12:44:34Z</time>
      </trkpt>
      <trkpt lat="49.44064" lon="-1.38144">
        <ele>-4.1</ele>
        <time>2022-08-29T12:44:38Z</time>
      </trkpt>
      <trkpt lat="49.44066" lon="-1.38137">
        <ele>-3.9</ele>
        <time>2022-08-29T12:44:46Z</time>
      </trkpt>
      <trkpt lat="49.4407" lon="-1.38133">
        <ele>-3.7</ele>
        <time>2022-08-29T12:44:49Z</time>
      </trkpt>
      <trkpt lat="49.44073" lon="-1.38126">
        <ele>-4.9</ele>
        <time>2022-08-29T12:44:53Z</time>
      </trkpt>
      <trkpt lat="49.44076" lon="-1.3812">
        <ele>-5</ele>
        <time>2022-08-29T12:44:56Z</time>
      </trkpt>
      <trkpt lat="49.4408" lon="-1.38114">
        <ele>-5.6</ele>
        <time>2022-08-29T12:45:00Z</time>
      </trkpt>
      <trkpt lat="49.44085" lon="-1.38107">
        <ele>-4.4</ele>
        <time>2022-08-29T12:45:06Z</time>
      </trkpt>
      <trkpt lat="49.44088" lon="-1.381">
        <ele>-4.3</ele>
        <time>2022-08-29T12:45:10Z</time>
      </trkpt>
      <trkpt lat="49.44091" lon="-1.38094">
        <ele>-3.7</ele>
        <time>2022-08-29T12:45:13Z</time>
      </trkpt>
      <trkpt lat="49.44094" lon="-1.38088">
        <ele>-4.3</ele>
        <time>2022-08-29T12:45:17Z</time>
      </trkpt>
      <trkpt lat="49.44098" lon="-1.38082">
        <ele>-3.9</ele>
        <time>2022-08-29T12:45:21Z</time>
      </trkpt>
      <trkpt lat="49.44102" lon="-1.38077">
        <ele>-3.9</ele>
        <time>2022-08-29T12:45:25Z</time>
      </trkpt>
      <trkpt lat="49.44108" lon="-1.38073">
        <ele>-3.9</ele>
        <time>2022-08-29T12:45:30Z</time>
      </trkpt>
      <trkpt lat="49.44113" lon="-1.38073">
        <ele>-4.5</ele>
        <time>2022-08-29T12:45:33Z</time>
      </trkpt>
      <trkpt lat="49.44116" lon="-1.3808">
        <ele>-4</ele>
        <time>2022-08-29T12:45:37Z</time>
      </trkpt>
      <trkpt lat="49.4412" lon="-1.38083">
        <ele>-3.6</ele>
        <time>2022-08-29T12:45:40Z</time>
      </trkpt>
      <trkpt lat="49.44125" lon="-1.38088">
        <ele>-4</ele>
        <time>2022-08-29T12:45:44Z</time>
      </trkpt>
      <trkpt lat="49.44127" lon="-1.38095">
        <ele>-4</ele>
        <time>2022-08-29T12:45:47Z</time>
      </trkpt>
      <trkpt lat="49.4413" lon="-1.38099">
        <ele>-4.7</ele>
        <time>2022-08-29T12:45:51Z</time>
      </trkpt>
      <trkpt lat="49.44126" lon="-1.38098">
        <ele>-5.5</ele>
        <time>2022-08-29T12:46:09Z</time>
      </trkpt>
      <trkpt lat="49.44122" lon="-1.38094">
        <ele>-5.6</ele>
        <time>2022-08-29T12:46:14Z</time>
      </trkpt>
      <trkpt lat="49.44119" lon="-1.38087">
        <ele>-5.4</ele>
        <time>2022-08-29T12:46:17Z</time>
      </trkpt>
      <trkpt lat="49.44115" lon="-1.38083">
        <ele>-5.4</ele>
        <time>2022-08-29T12:46:21Z</time>
      </trkpt>
      <trkpt lat="49.44112" lon="-1.38078">
        <ele>-5.9</ele>
        <time>2022-08-29T12:46:27Z</time>
      </trkpt>
      <trkpt lat="49.44109" lon="-1.38071">
        <ele>-6.7</ele>
        <time>2022-08-29T12:46:31Z</time>
      </trkpt>
      <trkpt lat="49.44106" lon="-1.38062">
        <ele>-6.7</ele>
        <time>2022-08-29T12:46:35Z</time>
      </trkpt>
      <trkpt lat="49.44105" lon="-1.38029">
        <ele>-7.1</ele>
        <time>2022-08-29T12:46:47Z</time>
      </trkpt>
      <trkpt lat="49.44106" lon="-1.38036">
        <ele>-7.7</ele>
        <time>2022-08-29T12:47:00Z</time>
      </trkpt>
      <trkpt lat="49.44105" lon="-1.38029">
        <ele>-7.8</ele>
        <time>2022-08-29T12:47:08Z</time>
      </trkpt>
      <trkpt lat="49.44105" lon="-1.38021">
        <ele>-7.5</ele>
        <time>2022-08-29T12:47:12Z</time>
      </trkpt>
      <trkpt lat="49.44104" lon="-1.38014">
        <ele>-7</ele>
        <time>2022-08-29T12:47:15Z</time>
      </trkpt>
      <trkpt lat="49.44105" lon="-1.38003">
        <ele>-5.5</ele>
        <time>2022-08-29T12:47:19Z</time>
      </trkpt>
      <trkpt lat="49.44107" lon="-1.37994">
        <ele>-5.4</ele>
        <time>2022-08-29T12:47:25Z</time>
      </trkpt>
      <trkpt lat="49.44113" lon="-1.3799">
        <ele>-6.9</ele>
        <time>2022-08-29T12:47:30Z</time>
      </trkpt>
      <trkpt lat="49.4412" lon="-1.37988">
        <ele>-4.8</ele>
        <time>2022-08-29T12:47:35Z</time>
      </trkpt>
      <trkpt lat="49.44124" lon="-1.3799">
        <ele>-0.1</ele>
        <time>2022-08-29T12:47:40Z</time>
      </trkpt>
      <trkpt lat="49.44129" lon="-1.37992">
        <ele>2</ele>
        <time>2022-08-29T12:47:55Z</time>
      </trkpt>
      <trkpt lat="49.44134" lon="-1.37992">
        <ele>1.3</ele>
        <time>2022-08-29T12:48:00Z</time>
      </trkpt>
      <trkpt lat="49.44138" lon="-1.37996">
        <ele>1.1</ele>
        <time>2022-08-29T12:48:03Z</time>
      </trkpt>
      <trkpt lat="49.44142" lon="-1.38003">
        <ele>0.7</ele>
        <time>2022-08-29T12:48:06Z</time>
      </trkpt>
      <trkpt lat="49.44151" lon="-1.38012">
        <ele>-1.8</ele>
        <time>2022-08-29T12:48:16Z</time>
      </trkpt>
      <trkpt lat="49.44156" lon="-1.38016">
        <ele>-0.7</ele>
        <time>2022-08-29T12:48:20Z</time>
      </trkpt>
      <trkpt lat="49.44161" lon="-1.38019">
        <ele>0.1</ele>
        <time>2022-08-29T12:48:25Z</time>
      </trkpt>
      <trkpt lat="49.44167" lon="-1.38018">
        <ele>0.7</ele>
        <time>2022-08-29T12:48:28Z</time>
      </trkpt>
      <trkpt lat="49.4417" lon="-1.38022">
        <ele>1.1</ele>
        <time>2022-08-29T12:48:35Z</time>
      </trkpt>
      <trkpt lat="49.44175" lon="-1.38027">
        <ele>2.7</ele>
        <time>2022-08-29T12:48:39Z</time>
      </trkpt>
      <trkpt lat="49.4418" lon="-1.38031">
        <ele>2.5</ele>
        <time>2022-08-29T12:48:43Z</time>
      </trkpt>
      <trkpt lat="49.44184" lon="-1.38037">
        <ele>2.9</ele>
        <time>2022-08-29T12:48:46Z</time>
      </trkpt>
      <trkpt lat="49.44187" lon="-1.38045">
        <ele>3.6</ele>
        <time>2022-08-29T12:48:51Z</time>
      </trkpt>
      <trkpt lat="49.4419" lon="-1.38051">
        <ele>3.8</ele>
        <time>2022-08-29T12:48:55Z</time>
      </trkpt>
      <trkpt lat="49.44194" lon="-1.38059">
        <ele>4.2</ele>
        <time>2022-08-29T12:49:01Z</time>
      </trkpt>
      <trkpt lat="49.44195" lon="-1.38067">
        <ele>4.6</ele>
        <time>2022-08-29T12:49:05Z</time>
      </trkpt>
      <trkpt lat="49.44196" lon="-1.38074">
        <ele>4.3</ele>
        <time>2022-08-29T12:49:09Z</time>
      </trkpt>
      <trkpt lat="49.44193" lon="-1.38082">
        <ele>4.8</ele>
        <time>2022-08-29T12:49:13Z</time>
      </trkpt>
      <trkpt lat="49.44193" lon="-1.38089">
        <ele>4.2</ele>
        <time>2022-08-29T12:49:18Z</time>
      </trkpt>
      <trkpt lat="49.44195" lon="-1.38096">
        <ele>2.6</ele>
        <time>2022-08-29T12:49:22Z</time>
      </trkpt>
      <trkpt lat="49.44198" lon="-1.38105">
        <ele>3</ele>
        <time>2022-08-29T12:49:26Z</time>
      </trkpt>
      <trkpt lat="49.44198" lon="-1.38112">
        <ele>2.9</ele>
        <time>2022-08-29T12:49:40Z</time>
      </trkpt>
      <trkpt lat="49.44202" lon="-1.38119">
        <ele>5.2</ele>
        <time>2022-08-29T12:51:23Z</time>
      </trkpt>
      <trkpt lat="49.44206" lon="-1.3812">
        <ele>4.4</ele>
        <time>2022-08-29T12:51:25Z</time>
      </trkpt>
      <trkpt lat="49.44215" lon="-1.38129">
        <ele>4.1</ele>
        <time>2022-08-29T12:51:32Z</time>
      </trkpt>
      <trkpt lat="49.4422" lon="-1.3813">
        <ele>4.2</ele>
        <time>2022-08-29T12:51:35Z</time>
      </trkpt>
      <trkpt lat="49.44223" lon="-1.38135">
        <ele>3.6</ele>
        <time>2022-08-29T12:51:39Z</time>
      </trkpt>
      <trkpt lat="49.44219" lon="-1.3814">
        <ele>3.2</ele>
        <time>2022-08-29T12:51:42Z</time>
      </trkpt>
      <trkpt lat="49.44215" lon="-1.38145">
        <ele>3.2</ele>
        <time>2022-08-29T12:51:47Z</time>
      </trkpt>
      <trkpt lat="49.44213" lon="-1.38152">
        <ele>3.6</ele>
        <time>2022-08-29T12:51:50Z</time>
      </trkpt>
      <trkpt lat="49.44211" lon="-1.38158">
        <ele>3.6</ele>
        <time>2022-08-29T12:51:53Z</time>
      </trkpt>
      <trkpt lat="49.44213" lon="-1.38166">
        <ele>3.1</ele>
        <time>2022-08-29T12:51:58Z</time>
      </trkpt>
      <trkpt lat="49.44217" lon="-1.38177">
        <ele>2.9</ele>
        <time>2022-08-29T12:52:03Z</time>
      </trkpt>
      <trkpt lat="49.44221" lon="-1.38183">
        <ele>3.5</ele>
        <time>2022-08-29T12:52:07Z</time>
      </trkpt>
      <trkpt lat="49.44224" lon="-1.38189">
        <ele>2.8</ele>
        <time>2022-08-29T12:52:12Z</time>
      </trkpt>
      <trkpt lat="49.44227" lon="-1.38198">
        <ele>2.6</ele>
        <time>2022-08-29T12:52:17Z</time>
      </trkpt>
      <trkpt lat="49.44228" lon="-1.38208">
        <ele>2.6</ele>
        <time>2022-08-29T12:52:22Z</time>
      </trkpt>
      <trkpt lat="49.4423" lon="-1.38215">
        <ele>3.1</ele>
        <time>2022-08-29T12:52:26Z</time>
      </trkpt>
      <trkpt lat="49.44232" lon="-1.38222">
        <ele>3.6</ele>
        <time>2022-08-29T12:52:29Z</time>
      </trkpt>
      <trkpt lat="49.44235" lon="-1.38229">
        <ele>3.2</ele>
        <time>2022-08-29T12:52:33Z</time>
      </trkpt>
      <trkpt lat="49.44237" lon="-1.38237">
        <ele>3.4</ele>
        <time>2022-08-29T12:52:37Z</time>
      </trkpt>
      <trkpt lat="49.44241" lon="-1.38246">
        <ele>3.2</ele>
        <time>2022-08-29T12:52:42Z</time>
      </trkpt>
      <trkpt lat="49.44243" lon="-1.38252">
        <ele>3.1</ele>
        <time>2022-08-29T12:52:45Z</time>
      </trkpt>
      <trkpt lat="49.44246" lon="-1.38259">
        <ele>3.8</ele>
        <time>2022-08-29T12:52:49Z</time>
      </trkpt>
      <trkpt lat="49.44248" lon="-1.38266">
        <ele>3.7</ele>
        <time>2022-08-29T12:52:53Z</time>
      </trkpt>
      <trkpt lat="49.44251" lon="-1.38273">
        <ele>3.8</ele>
        <time>2022-08-29T12:52:56Z</time>
      </trkpt>
      <trkpt lat="49.44253" lon="-1.3828">
        <ele>3.2</ele>
        <time>2022-08-29T12:52:59Z</time>
      </trkpt>
      <trkpt lat="49.44256" lon="-1.38286">
        <ele>3.1</ele>
        <time>2022-08-29T12:53:03Z</time>
      </trkpt>
      <trkpt lat="49.4426" lon="-1.38293">
        <ele>3.3</ele>
        <time>2022-08-29T12:53:07Z</time>
      </trkpt>
      <trkpt lat="49.44263" lon="-1.383">
        <ele>3.8</ele>
        <time>2022-08-29T12:53:12Z</time>
      </trkpt>
      <trkpt lat="49.44264" lon="-1.38307">
        <ele>4.8</ele>
        <time>2022-08-29T12:53:16Z</time>
      </trkpt>
      <trkpt lat="49.44267" lon="-1.38313">
        <ele>4.7</ele>
        <time>2022-08-29T12:53:20Z</time>
      </trkpt>
      <trkpt lat="49.4427" lon="-1.3832">
        <ele>4.9</ele>
        <time>2022-08-29T12:53:24Z</time>
      </trkpt>
      <trkpt lat="49.44273" lon="-1.38326">
        <ele>4.3</ele>
        <time>2022-08-29T12:53:28Z</time>
      </trkpt>
      <trkpt lat="49.44276" lon="-1.38332">
        <ele>4.9</ele>
        <time>2022-08-29T12:53:32Z</time>
      </trkpt>
      <trkpt lat="49.44278" lon="-1.38338">
        <ele>4.3</ele>
        <time>2022-08-29T12:53:36Z</time>
      </trkpt>
      <trkpt lat="49.4428" lon="-1.38347">
        <ele>3.1</ele>
        <time>2022-08-29T12:53:51Z</time>
      </trkpt>
      <trkpt lat="49.44282" lon="-1.38356">
        <ele>2.4</ele>
        <time>2022-08-29T12:53:55Z</time>
      </trkpt>
      <trkpt lat="49.44284" lon="-1.38365">
        <ele>2.4</ele>
        <time>2022-08-29T12:54:00Z</time>
      </trkpt>
      <trkpt lat="49.44283" lon="-1.38373">
        <ele>2.6</ele>
        <time>2022-08-29T12:54:04Z</time>
      </trkpt>
      <trkpt lat="49.44287" lon="-1.38369">
        <ele>2.1</ele>
        <time>2022-08-29T12:54:18Z</time>
      </trkpt>
      <trkpt lat="49.44285" lon="-1.38376">
        <ele>1.8</ele>
        <time>2022-08-29T12:54:25Z</time>
      </trkpt>
      <trkpt lat="49.44286" lon="-1.38384">
        <ele>1.9</ele>
        <time>2022-08-29T12:54:28Z</time>
      </trkpt>
      <trkpt lat="49.44286" lon="-1.38392">
        <ele>1.9</ele>
        <time>2022-08-29T12:54:32Z</time>
      </trkpt>
      <trkpt lat="49.44285" lon="-1.38402">
        <ele>1.5</ele>
        <time>2022-08-29T12:54:37Z</time>
      </trkpt>
      <trkpt lat="49.44285" lon="-1.38409">
        <ele>1</ele>
        <time>2022-08-29T12:54:40Z</time>
      </trkpt>
      <trkpt lat="49.44286" lon="-1.38417">
        <ele>1.2</ele>
        <time>2022-08-29T12:54:44Z</time>
      </trkpt>
      <trkpt lat="49.44285" lon="-1.38426">
        <ele>1</ele>
        <time>2022-08-29T12:54:48Z</time>
      </trkpt>
      <trkpt lat="49.44285" lon="-1.38434">
        <ele>0.8</ele>
        <time>2022-08-29T12:54:53Z</time>
      </trkpt>
      <trkpt lat="49.44283" lon="-1.38441">
        <ele>0.5</ele>
        <time>2022-08-29T12:54:56Z</time>
      </trkpt>
      <trkpt lat="49.44282" lon="-1.38448">
        <ele>1</ele>
        <time>2022-08-29T12:55:01Z</time>
      </trkpt>
      <trkpt lat="49.44282" lon="-1.38455">
        <ele>1.1</ele>
        <time>2022-08-29T12:55:04Z</time>
      </trkpt>
      <trkpt lat="49.44282" lon="-1.38463">
        <ele>0.1</ele>
        <time>2022-08-29T12:55:08Z</time>
      </trkpt>
      <trkpt lat="49.4428" lon="-1.38469">
        <ele>0.2</ele>
        <time>2022-08-29T12:55:12Z</time>
      </trkpt>
      <trkpt lat="49.44279" lon="-1.38477">
        <ele>-0.1</ele>
        <time>2022-08-29T12:55:15Z</time>
      </trkpt>
      <trkpt lat="49.44277" lon="-1.38485">
        <ele>0.4</ele>
        <time>2022-08-29T12:55:20Z</time>
      </trkpt>
      <trkpt lat="49.44276" lon="-1.38494">
        <ele>0.1</ele>
        <time>2022-08-29T12:55:24Z</time>
      </trkpt>
      <trkpt lat="49.44275" lon="-1.38503">
        <ele>0.5</ele>
        <time>2022-08-29T12:55:29Z</time>
      </trkpt>
      <trkpt lat="49.44273" lon="-1.38511">
        <ele>0.9</ele>
        <time>2022-08-29T12:55:33Z</time>
      </trkpt>
      <trkpt lat="49.44272" lon="-1.38518">
        <ele>0.3</ele>
        <time>2022-08-29T12:55:37Z</time>
      </trkpt>
      <trkpt lat="49.4427" lon="-1.38525">
        <ele>0.8</ele>
        <time>2022-08-29T12:55:43Z</time>
      </trkpt>
      <trkpt lat="49.44269" lon="-1.38532">
        <ele>-0.4</ele>
        <time>2022-08-29T12:55:49Z</time>
      </trkpt>
      <trkpt lat="49.44268" lon="-1.3854">
        <ele>-0.2</ele>
        <time>2022-08-29T12:55:53Z</time>
      </trkpt>
      <trkpt lat="49.44265" lon="-1.38549">
        <ele>0.6</ele>
        <time>2022-08-29T12:55:58Z</time>
      </trkpt>
      <trkpt lat="49.44264" lon="-1.38559">
        <ele>0.6</ele>
        <time>2022-08-29T12:56:04Z</time>
      </trkpt>
      <trkpt lat="49.44266" lon="-1.38567">
        <ele>1.2</ele>
        <time>2022-08-29T12:56:08Z</time>
      </trkpt>
      <trkpt lat="49.44268" lon="-1.38575">
        <ele>0.9</ele>
        <time>2022-08-29T12:56:12Z</time>
      </trkpt>
      <trkpt lat="49.44271" lon="-1.38581">
        <ele>1.5</ele>
        <time>2022-08-29T12:56:16Z</time>
      </trkpt>
      <trkpt lat="49.44272" lon="-1.38588">
        <ele>1.6</ele>
        <time>2022-08-29T12:56:19Z</time>
      </trkpt>
      <trkpt lat="49.44272" lon="-1.3858">
        <ele>2.5</ele>
        <time>2022-08-29T12:57:03Z</time>
      </trkpt>
      <trkpt lat="49.44272" lon="-1.3857">
        <ele>1.5</ele>
        <time>2022-08-29T12:57:06Z</time>
      </trkpt>
      <trkpt lat="49.4427" lon="-1.38563">
        <ele>0.5</ele>
        <time>2022-08-29T12:57:09Z</time>
      </trkpt>
      <trkpt lat="49.4427" lon="-1.38554">
        <ele>0.9</ele>
        <time>2022-08-29T12:57:13Z</time>
      </trkpt>
      <trkpt lat="49.44271" lon="-1.38546">
        <ele>0.9</ele>
        <time>2022-08-29T12:57:16Z</time>
      </trkpt>
      <trkpt lat="49.44272" lon="-1.38537">
        <ele>0.5</ele>
        <time>2022-08-29T12:57:19Z</time>
      </trkpt>
      <trkpt lat="49.44272" lon="-1.38529">
        <ele>0.3</ele>
        <time>2022-08-29T12:57:22Z</time>
      </trkpt>
      <trkpt lat="49.44273" lon="-1.38522">
        <ele>0.7</ele>
        <time>2022-08-29T12:57:26Z</time>
      </trkpt>
      <trkpt lat="49.44275" lon="-1.38513">
        <ele>-0.7</ele>
        <time>2022-08-29T12:57:31Z</time>
      </trkpt>
      <trkpt lat="49.44277" lon="-1.38504">
        <ele>-0.2</ele>
        <time>2022-08-29T12:57:35Z</time>
      </trkpt>
      <trkpt lat="49.4428" lon="-1.38496">
        <ele>0.8</ele>
        <time>2022-08-29T12:57:40Z</time>
      </trkpt>
      <trkpt lat="49.44284" lon="-1.38489">
        <ele>1.8</ele>
        <time>2022-08-29T12:57:45Z</time>
      </trkpt>
      <trkpt lat="49.44287" lon="-1.38483">
        <ele>1</ele>
        <time>2022-08-29T12:57:48Z</time>
      </trkpt>
      <trkpt lat="49.44292" lon="-1.38483">
        <ele>1</ele>
        <time>2022-08-29T12:57:52Z</time>
      </trkpt>
      <trkpt lat="49.44295" lon="-1.38489">
        <ele>2.1</ele>
        <time>2022-08-29T12:57:55Z</time>
      </trkpt>
      <trkpt lat="49.44297" lon="-1.38497">
        <ele>3.8</ele>
        <time>2022-08-29T12:58:00Z</time>
      </trkpt>
      <trkpt lat="49.44304" lon="-1.38494">
        <ele>11.3</ele>
        <time>2022-08-29T12:58:56Z</time>
      </trkpt>
      <trkpt lat="49.44309" lon="-1.38496">
        <ele>11.1</ele>
        <time>2022-08-29T12:59:00Z</time>
      </trkpt>
      <trkpt lat="49.44314" lon="-1.38496">
        <ele>10.2</ele>
        <time>2022-08-29T12:59:05Z</time>
      </trkpt>
      <trkpt lat="49.44313" lon="-1.38489">
        <ele>9.7</ele>
        <time>2022-08-29T12:59:12Z</time>
      </trkpt>
      <trkpt lat="49.44317" lon="-1.38484">
        <ele>9.1</ele>
        <time>2022-08-29T12:59:25Z</time>
      </trkpt>
      <trkpt lat="49.4432" lon="-1.38478">
        <ele>9.3</ele>
        <time>2022-08-29T12:59:27Z</time>
      </trkpt>
      <trkpt lat="49.44322" lon="-1.3847">
        <ele>9.3</ele>
        <time>2022-08-29T12:59:29Z</time>
      </trkpt>
      <trkpt lat="49.44326" lon="-1.38463">
        <ele>9.6</ele>
        <time>2022-08-29T12:59:32Z</time>
      </trkpt>
      <trkpt lat="49.44331" lon="-1.38457">
        <ele>9.8</ele>
        <time>2022-08-29T12:59:36Z</time>
      </trkpt>
      <trkpt lat="49.44335" lon="-1.3845">
        <ele>9.5</ele>
        <time>2022-08-29T12:59:40Z</time>
      </trkpt>
      <trkpt lat="49.44338" lon="-1.38442">
        <ele>9.8</ele>
        <time>2022-08-29T12:59:44Z</time>
      </trkpt>
      <trkpt lat="49.44341" lon="-1.38437">
        <ele>9.4</ele>
        <time>2022-08-29T12:59:47Z</time>
      </trkpt>
      <trkpt lat="49.44346" lon="-1.38432">
        <ele>9.6</ele>
        <time>2022-08-29T12:59:51Z</time>
      </trkpt>
      <trkpt lat="49.44349" lon="-1.38427">
        <ele>9.1</ele>
        <time>2022-08-29T12:59:55Z</time>
      </trkpt>
      <trkpt lat="49.44352" lon="-1.38421">
        <ele>9.6</ele>
        <time>2022-08-29T12:59:58Z</time>
      </trkpt>
      <trkpt lat="49.44355" lon="-1.38415">
        <ele>9.8</ele>
        <time>2022-08-29T13:00:01Z</time>
      </trkpt>
      <trkpt lat="49.44359" lon="-1.38408">
        <ele>10</ele>
        <time>2022-08-29T13:00:05Z</time>
      </trkpt>
      <trkpt lat="49.44362" lon="-1.38402">
        <ele>9.7</ele>
        <time>2022-08-29T13:00:08Z</time>
      </trkpt>
      <trkpt lat="49.44365" lon="-1.38395">
        <ele>10</ele>
        <time>2022-08-29T13:00:12Z</time>
      </trkpt>
      <trkpt lat="49.44368" lon="-1.38389">
        <ele>9.9</ele>
        <time>2022-08-29T13:00:16Z</time>
      </trkpt>
      <trkpt lat="49.44371" lon="-1.38384">
        <ele>10.4</ele>
        <time>2022-08-29T13:00:19Z</time>
      </trkpt>
      <trkpt lat="49.44376" lon="-1.38382">
        <ele>10.5</ele>
        <time>2022-08-29T13:00:23Z</time>
      </trkpt>
      <trkpt lat="49.44381" lon="-1.38372">
        <ele>10.9</ele>
        <time>2022-08-29T13:00:28Z</time>
      </trkpt>
      <trkpt lat="49.44385" lon="-1.38367">
        <ele>11.1</ele>
        <time>2022-08-29T13:00:31Z</time>
      </trkpt>
      <trkpt lat="49.44388" lon="-1.38361">
        <ele>11.6</ele>
        <time>2022-08-29T13:00:34Z</time>
      </trkpt>
      <trkpt lat="49.44392" lon="-1.38355">
        <ele>11.8</ele>
        <time>2022-08-29T13:00:38Z</time>
      </trkpt>
      <trkpt lat="49.44395" lon="-1.38347">
        <ele>12.2</ele>
        <time>2022-08-29T13:00:45Z</time>
      </trkpt>
      <trkpt lat="49.44396" lon="-1.38339">
        <ele>12.5</ele>
        <time>2022-08-29T13:00:49Z</time>
      </trkpt>
      <trkpt lat="49.44401" lon="-1.38334">
        <ele>11.6</ele>
        <time>2022-08-29T13:00:53Z</time>
      </trkpt>
      <trkpt lat="49.44406" lon="-1.38329">
        <ele>11.6</ele>
        <time>2022-08-29T13:00:56Z</time>
      </trkpt>
      <trkpt lat="49.4441" lon="-1.38324">
        <ele>11.3</ele>
        <time>2022-08-29T13:00:59Z</time>
      </trkpt>
      <trkpt lat="49.44413" lon="-1.38318">
        <ele>11.4</ele>
        <time>2022-08-29T13:01:02Z</time>
      </trkpt>
      <trkpt lat="49.44416" lon="-1.38312">
        <ele>11.5</ele>
        <time>2022-08-29T13:01:05Z</time>
      </trkpt>
      <trkpt lat="49.4442" lon="-1.38305">
        <ele>12.2</ele>
        <time>2022-08-29T13:01:09Z</time>
      </trkpt>
      <trkpt lat="49.44424" lon="-1.38299">
        <ele>11.7</ele>
        <time>2022-08-29T13:01:13Z</time>
      </trkpt>
      <trkpt lat="49.44428" lon="-1.38291">
        <ele>12.8</ele>
        <time>2022-08-29T13:01:17Z</time>
      </trkpt>
      <trkpt lat="49.44432" lon="-1.38285">
        <ele>12.9</ele>
        <time>2022-08-29T13:01:20Z</time>
      </trkpt>
      <trkpt lat="49.44435" lon="-1.3828">
        <ele>13.3</ele>
        <time>2022-08-29T13:01:23Z</time>
      </trkpt>
      <trkpt lat="49.44438" lon="-1.38274">
        <ele>13.3</ele>
        <time>2022-08-29T13:01:26Z</time>
      </trkpt>
      <trkpt lat="49.44442" lon="-1.38268">
        <ele>13.3</ele>
        <time>2022-08-29T13:01:29Z</time>
      </trkpt>
      <trkpt lat="49.44445" lon="-1.38263">
        <ele>13.3</ele>
        <time>2022-08-29T13:01:33Z</time>
      </trkpt>
      <trkpt lat="49.44448" lon="-1.38257">
        <ele>13.2</ele>
        <time>2022-08-29T13:01:36Z</time>
      </trkpt>
      <trkpt lat="49.44452" lon="-1.3825">
        <ele>13.3</ele>
        <time>2022-08-29T13:01:40Z</time>
      </trkpt>
      <trkpt lat="49.44455" lon="-1.38244">
        <ele>13.7</ele>
        <time>2022-08-29T13:01:43Z</time>
      </trkpt>
      <trkpt lat="49.44459" lon="-1.38239">
        <ele>13.1</ele>
        <time>2022-08-29T13:01:46Z</time>
      </trkpt>
      <trkpt lat="49.44462" lon="-1.38232">
        <ele>11.9</ele>
        <time>2022-08-29T13:01:50Z</time>
      </trkpt>
      <trkpt lat="49.44465" lon="-1.38227">
        <ele>11.9</ele>
        <time>2022-08-29T13:01:53Z</time>
      </trkpt>
      <trkpt lat="49.44469" lon="-1.38221">
        <ele>11.7</ele>
        <time>2022-08-29T13:01:57Z</time>
      </trkpt>
      <trkpt lat="49.44472" lon="-1.38215">
        <ele>12.1</ele>
        <time>2022-08-29T13:02:13Z</time>
      </trkpt>
      <trkpt lat="49.44475" lon="-1.38207">
        <ele>12.4</ele>
        <time>2022-08-29T13:02:16Z</time>
      </trkpt>
      <trkpt lat="49.44479" lon="-1.382">
        <ele>12</ele>
        <time>2022-08-29T13:02:20Z</time>
      </trkpt>
      <trkpt lat="49.44481" lon="-1.38192">
        <ele>12.2</ele>
        <time>2022-08-29T13:02:23Z</time>
      </trkpt>
      <trkpt lat="49.44484" lon="-1.38186">
        <ele>12.1</ele>
        <time>2022-08-29T13:02:26Z</time>
      </trkpt>
      <trkpt lat="49.44487" lon="-1.38178">
        <ele>12.6</ele>
        <time>2022-08-29T13:02:30Z</time>
      </trkpt>
      <trkpt lat="49.44491" lon="-1.38171">
        <ele>12.2</ele>
        <time>2022-08-29T13:02:33Z</time>
      </trkpt>
      <trkpt lat="49.44494" lon="-1.38164">
        <ele>12.6</ele>
        <time>2022-08-29T13:02:37Z</time>
      </trkpt>
      <trkpt lat="49.44497" lon="-1.38159">
        <ele>12.7</ele>
        <time>2022-08-29T13:02:40Z</time>
      </trkpt>
      <trkpt lat="49.44501" lon="-1.38152">
        <ele>12.8</ele>
        <time>2022-08-29T13:02:45Z</time>
      </trkpt>
      <trkpt lat="49.44506" lon="-1.38142">
        <ele>13.2</ele>
        <time>2022-08-29T13:02:51Z</time>
      </trkpt>
      <trkpt lat="49.44509" lon="-1.38135">
        <ele>13.2</ele>
        <time>2022-08-29T13:02:55Z</time>
      </trkpt>
      <trkpt lat="49.44511" lon="-1.38129">
        <ele>19.8</ele>
        <time>2022-08-29T13:02:58Z</time>
      </trkpt>
      <trkpt lat="49.44515" lon="-1.38123">
        <ele>12.1</ele>
        <time>2022-08-29T13:03:02Z</time>
      </trkpt>
      <trkpt lat="49.44519" lon="-1.38115">
        <ele>19.7</ele>
        <time>2022-08-29T13:03:07Z</time>
      </trkpt>
      <trkpt lat="49.44521" lon="-1.38109">
        <ele>19.7</ele>
        <time>2022-08-29T13:03:10Z</time>
      </trkpt>
      <trkpt lat="49.44525" lon="-1.38105">
        <ele>19.8</ele>
        <time>2022-08-29T13:03:14Z</time>
      </trkpt>
      <trkpt lat="49.4453" lon="-1.38099">
        <ele>19.8</ele>
        <time>2022-08-29T13:03:18Z</time>
      </trkpt>
      <trkpt lat="49.44532" lon="-1.38094">
        <ele>19.8</ele>
        <time>2022-08-29T13:03:21Z</time>
      </trkpt>
      <trkpt lat="49.44535" lon="-1.38086">
        <ele>19.8</ele>
        <time>2022-08-29T13:03:25Z</time>
      </trkpt>
      <trkpt lat="49.44538" lon="-1.38079">
        <ele>19.8</ele>
        <time>2022-08-29T13:03:29Z</time>
      </trkpt>
      <trkpt lat="49.44542" lon="-1.38073">
        <ele>19.8</ele>
        <time>2022-08-29T13:03:33Z</time>
      </trkpt>
      <trkpt lat="49.44545" lon="-1.38068">
        <ele>19.8</ele>
        <time>2022-08-29T13:03:36Z</time>
      </trkpt>
      <trkpt lat="49.44548" lon="-1.38062">
        <ele>19.8</ele>
        <time>2022-08-29T13:03:39Z</time>
      </trkpt>
      <trkpt lat="49.44551" lon="-1.38055">
        <ele>19.7</ele>
        <time>2022-08-29T13:03:43Z</time>
      </trkpt>
      <trkpt lat="49.44554" lon="-1.38048">
        <ele>17.4</ele>
        <time>2022-08-29T13:03:47Z</time>
      </trkpt>
      <trkpt lat="49.44557" lon="-1.38041">
        <ele>17.4</ele>
        <time>2022-08-29T13:03:51Z</time>
      </trkpt>
      <trkpt lat="49.4456" lon="-1.38034">
        <ele>17.4</ele>
        <time>2022-08-29T13:03:55Z</time>
      </trkpt>
      <trkpt lat="49.44564" lon="-1.38027">
        <ele>17.4</ele>
        <time>2022-08-29T13:03:59Z</time>
      </trkpt>
      <trkpt lat="49.44568" lon="-1.3802">
        <ele>17.4</ele>
        <time>2022-08-29T13:04:04Z</time>
      </trkpt>
      <trkpt lat="49.44571" lon="-1.38013">
        <ele>17.4</ele>
        <time>2022-08-29T13:04:08Z</time>
      </trkpt>
      <trkpt lat="49.44574" lon="-1.38006">
        <ele>17.4</ele>
        <time>2022-08-29T13:04:12Z</time>
      </trkpt>
      <trkpt lat="49.44577" lon="-1.38001">
        <ele>17.4</ele>
        <time>2022-08-29T13:04:15Z</time>
      </trkpt>
      <trkpt lat="49.44581" lon="-1.37994">
        <ele>17.4</ele>
        <time>2022-08-29T13:04:19Z</time>
      </trkpt>
      <trkpt lat="49.44583" lon="-1.37987">
        <ele>17.4</ele>
        <time>2022-08-29T13:04:23Z</time>
      </trkpt>
      <trkpt lat="49.44585" lon="-1.37979">
        <ele>17.4</ele>
        <time>2022-08-29T13:04:28Z</time>
      </trkpt>
      <trkpt lat="49.44588" lon="-1.37973">
        <ele>17.4</ele>
        <time>2022-08-29T13:04:31Z</time>
      </trkpt>
      <trkpt lat="49.44589" lon="-1.37965">
        <ele>17.4</ele>
        <time>2022-08-29T13:04:34Z</time>
      </trkpt>
      <trkpt lat="49.44592" lon="-1.37959">
        <ele>17.4</ele>
        <time>2022-08-29T13:04:38Z</time>
      </trkpt>
      <trkpt lat="49.44594" lon="-1.37951">
        <ele>17.4</ele>
        <time>2022-08-29T13:04:42Z</time>
      </trkpt>
      <trkpt lat="49.44595" lon="-1.37942">
        <ele>17.4</ele>
        <time>2022-08-29T13:04:46Z</time>
      </trkpt>
      <trkpt lat="49.44596" lon="-1.37934">
        <ele>20</ele>
        <time>2022-08-29T13:04:50Z</time>
      </trkpt>
      <trkpt lat="49.44597" lon="-1.37927">
        <ele>20</ele>
        <time>2022-08-29T13:04:53Z</time>
      </trkpt>
      <trkpt lat="49.44596" lon="-1.3792">
        <ele>20.1</ele>
        <time>2022-08-29T13:05:07Z</time>
      </trkpt>
      <trkpt lat="49.44597" lon="-1.37912">
        <ele>20.1</ele>
        <time>2022-08-29T13:05:11Z</time>
      </trkpt>
      <trkpt lat="49.44598" lon="-1.37905">
        <ele>20.1</ele>
        <time>2022-08-29T13:05:14Z</time>
      </trkpt>
      <trkpt lat="49.44599" lon="-1.37898">
        <ele>20.1</ele>
        <time>2022-08-29T13:05:17Z</time>
      </trkpt>
      <trkpt lat="49.446" lon="-1.37889">
        <ele>20.1</ele>
        <time>2022-08-29T13:05:21Z</time>
      </trkpt>
      <trkpt lat="49.44601" lon="-1.37882">
        <ele>20.1</ele>
        <time>2022-08-29T13:05:25Z</time>
      </trkpt>
      <trkpt lat="49.44603" lon="-1.37875">
        <ele>20.1</ele>
        <time>2022-08-29T13:05:28Z</time>
      </trkpt>
      <trkpt lat="49.44606" lon="-1.37867">
        <ele>20.1</ele>
        <time>2022-08-29T13:05:32Z</time>
      </trkpt>
      <trkpt lat="49.44608" lon="-1.37861">
        <ele>20.1</ele>
        <time>2022-08-29T13:05:36Z</time>
      </trkpt>
      <trkpt lat="49.4461" lon="-1.37854">
        <ele>19.9</ele>
        <time>2022-08-29T13:05:39Z</time>
      </trkpt>
      <trkpt lat="49.44612" lon="-1.37847">
        <ele>19.9</ele>
        <time>2022-08-29T13:05:42Z</time>
      </trkpt>
      <trkpt lat="49.44614" lon="-1.37839">
        <ele>19.9</ele>
        <time>2022-08-29T13:05:46Z</time>
      </trkpt>
      <trkpt lat="49.44617" lon="-1.37832">
        <ele>19.9</ele>
        <time>2022-08-29T13:05:50Z</time>
      </trkpt>
      <trkpt lat="49.4462" lon="-1.37828">
        <ele>19.9</ele>
        <time>2022-08-29T13:05:54Z</time>
      </trkpt>
      <trkpt lat="49.44623" lon="-1.37821">
        <ele>17.8</ele>
        <time>2022-08-29T13:05:58Z</time>
      </trkpt>
      <trkpt lat="49.44625" lon="-1.37813">
        <ele>17.8</ele>
        <time>2022-08-29T13:06:03Z</time>
      </trkpt>
      <trkpt lat="49.44626" lon="-1.37806">
        <ele>10.3</ele>
        <time>2022-08-29T13:06:06Z</time>
      </trkpt>
      <trkpt lat="49.44628" lon="-1.37799">
        <ele>10</ele>
        <time>2022-08-29T13:06:10Z</time>
      </trkpt>
      <trkpt lat="49.44631" lon="-1.37793">
        <ele>17.8</ele>
        <time>2022-08-29T13:06:15Z</time>
      </trkpt>
      <trkpt lat="49.44634" lon="-1.37787">
        <ele>17.9</ele>
        <time>2022-08-29T13:06:18Z</time>
      </trkpt>
      <trkpt lat="49.44638" lon="-1.37781">
        <ele>17.8</ele>
        <time>2022-08-29T13:06:23Z</time>
      </trkpt>
      <trkpt lat="49.4464" lon="-1.37775">
        <ele>17.8</ele>
        <time>2022-08-29T13:06:27Z</time>
      </trkpt>
      <trkpt lat="49.44643" lon="-1.37769">
        <ele>17.9</ele>
        <time>2022-08-29T13:06:31Z</time>
      </trkpt>
      <trkpt lat="49.44646" lon="-1.37762">
        <ele>17.8</ele>
        <time>2022-08-29T13:06:35Z</time>
      </trkpt>
      <trkpt lat="49.4465" lon="-1.37753">
        <ele>17.8</ele>
        <time>2022-08-29T13:06:38Z</time>
      </trkpt>
      <trkpt lat="49.44652" lon="-1.37745">
        <ele>17.8</ele>
        <time>2022-08-29T13:06:43Z</time>
      </trkpt>
      <trkpt lat="49.44653" lon="-1.37738">
        <ele>17.8</ele>
        <time>2022-08-29T13:06:47Z</time>
      </trkpt>
      <trkpt lat="49.44654" lon="-1.3773">
        <ele>17.8</ele>
        <time>2022-08-29T13:06:52Z</time>
      </trkpt>
      <trkpt lat="49.4465" lon="-1.37723">
        <ele>20</ele>
        <time>2022-08-29T13:07:19Z</time>
      </trkpt>
      <trkpt lat="49.44644" lon="-1.37716">
        <ele>20</ele>
        <time>2022-08-29T13:07:21Z</time>
      </trkpt>
      <trkpt lat="49.44638" lon="-1.37711">
        <ele>20</ele>
        <time>2022-08-29T13:07:24Z</time>
      </trkpt>
      <trkpt lat="49.44634" lon="-1.37704">
        <ele>20</ele>
        <time>2022-08-29T13:07:26Z</time>
      </trkpt>
      <trkpt lat="49.4463" lon="-1.37699">
        <ele>20</ele>
        <time>2022-08-29T13:07:29Z</time>
      </trkpt>
      <trkpt lat="49.44625" lon="-1.37692">
        <ele>20</ele>
        <time>2022-08-29T13:07:34Z</time>
      </trkpt>
      <trkpt lat="49.44621" lon="-1.37686">
        <ele>20</ele>
        <time>2022-08-29T13:07:39Z</time>
      </trkpt>
      <trkpt lat="49.44618" lon="-1.3768">
        <ele>20</ele>
        <time>2022-08-29T13:07:42Z</time>
      </trkpt>
      <trkpt lat="49.44614" lon="-1.37676">
        <ele>20</ele>
        <time>2022-08-29T13:07:46Z</time>
      </trkpt>
      <trkpt lat="49.44609" lon="-1.3767">
        <ele>20</ele>
        <time>2022-08-29T13:07:56Z</time>
      </trkpt>
      <trkpt lat="49.44607" lon="-1.37664">
        <ele>20</ele>
        <time>2022-08-29T13:08:00Z</time>
      </trkpt>
      <trkpt lat="49.44603" lon="-1.37657">
        <ele>20</ele>
        <time>2022-08-29T13:08:04Z</time>
      </trkpt>
      <trkpt lat="49.44599" lon="-1.37653">
        <ele>20</ele>
        <time>2022-08-29T13:08:07Z</time>
      </trkpt>
      <trkpt lat="49.44597" lon="-1.37647">
        <ele>20</ele>
        <time>2022-08-29T13:08:16Z</time>
      </trkpt>
      <trkpt lat="49.44593" lon="-1.37641">
        <ele>17.8</ele>
        <time>2022-08-29T13:08:36Z</time>
      </trkpt>
      <trkpt lat="49.4459" lon="-1.37636">
        <ele>14.7</ele>
        <time>2022-08-29T13:09:11Z</time>
      </trkpt>
      <trkpt lat="49.44586" lon="-1.37628">
        <ele>14.6</ele>
        <time>2022-08-29T13:09:15Z</time>
      </trkpt>
      <trkpt lat="49.44587" lon="-1.3762">
        <ele>14.7</ele>
        <time>2022-08-29T13:09:18Z</time>
      </trkpt>
      <trkpt lat="49.44588" lon="-1.37613">
        <ele>14.2</ele>
        <time>2022-08-29T13:09:22Z</time>
      </trkpt>
      <trkpt lat="49.4459" lon="-1.37606">
        <ele>13.9</ele>
        <time>2022-08-29T13:10:09Z</time>
      </trkpt>
      <trkpt lat="49.4459" lon="-1.37598">
        <ele>13.4</ele>
        <time>2022-08-29T13:10:18Z</time>
      </trkpt>
      <trkpt lat="49.4459" lon="-1.37591">
        <ele>13.4</ele>
        <time>2022-08-29T13:10:25Z</time>
      </trkpt>
      <trkpt lat="49.44592" lon="-1.37583">
        <ele>13.9</ele>
        <time>2022-08-29T13:10:32Z</time>
      </trkpt>
      <trkpt lat="49.44593" lon="-1.37575">
        <ele>14.5</ele>
        <time>2022-08-29T13:10:38Z</time>
      </trkpt>
      <trkpt lat="49.44596" lon="-1.37568">
        <ele>14.7</ele>
        <time>2022-08-29T13:10:42Z</time>
      </trkpt>
      <trkpt lat="49.44599" lon="-1.37563">
        <ele>14.7</ele>
        <time>2022-08-29T13:10:47Z</time>
      </trkpt>
      <trkpt lat="49.446" lon="-1.37555">
        <ele>14.7</ele>
        <time>2022-08-29T13:10:57Z</time>
      </trkpt>
      <trkpt lat="49.44602" lon="-1.37548">
        <ele>14.8</ele>
        <time>2022-08-29T13:11:01Z</time>
      </trkpt>
      <trkpt lat="49.44605" lon="-1.37542">
        <ele>36.9</ele>
        <time>2022-08-29T13:11:07Z</time>
      </trkpt>
      <trkpt lat="49.44606" lon="-1.37534">
        <ele>36.9</ele>
        <time>2022-08-29T13:11:12Z</time>
      </trkpt>
      <trkpt lat="49.44608" lon="-1.37527">
        <ele>36.9</ele>
        <time>2022-08-29T13:11:16Z</time>
      </trkpt>
      <trkpt lat="49.44611" lon="-1.37521">
        <ele>36.9</ele>
        <time>2022-08-29T13:11:20Z</time>
      </trkpt>
      <trkpt lat="49.44613" lon="-1.37514">
        <ele>36.9</ele>
        <time>2022-08-29T13:11:25Z</time>
      </trkpt>
      <trkpt lat="49.44615" lon="-1.37506">
        <ele>36.9</ele>
        <time>2022-08-29T13:11:28Z</time>
      </trkpt>
      <trkpt lat="49.4462" lon="-1.37499">
        <ele>36.9</ele>
        <time>2022-08-29T13:11:33Z</time>
      </trkpt>
      <trkpt lat="49.44624" lon="-1.37494">
        <ele>36.9</ele>
        <time>2022-08-29T13:11:38Z</time>
      </trkpt>
      <trkpt lat="49.44628" lon="-1.3749">
        <ele>36.9</ele>
        <time>2022-08-29T13:11:42Z</time>
      </trkpt>
      <trkpt lat="49.44632" lon="-1.37485">
        <ele>36.9</ele>
        <time>2022-08-29T13:11:48Z</time>
      </trkpt>
      <trkpt lat="49.44634" lon="-1.37476">
        <ele>36.9</ele>
        <time>2022-08-29T13:11:52Z</time>
      </trkpt>
      <trkpt lat="49.44636" lon="-1.3747">
        <ele>36.9</ele>
        <time>2022-08-29T13:11:56Z</time>
      </trkpt>
      <trkpt lat="49.44639" lon="-1.37465">
        <ele>36.9</ele>
        <time>2022-08-29T13:12:00Z</time>
      </trkpt>
      <trkpt lat="49.4464" lon="-1.37455">
        <ele>18.1</ele>
        <time>2022-08-29T13:12:14Z</time>
      </trkpt>
      <trkpt lat="49.44641" lon="-1.37449">
        <ele>17.1</ele>
        <time>2022-08-29T13:12:17Z</time>
      </trkpt>
      <trkpt lat="49.44646" lon="-1.37445">
        <ele>17.1</ele>
        <time>2022-08-29T13:12:22Z</time>
      </trkpt>
      <trkpt lat="49.44649" lon="-1.37436">
        <ele>16.9</ele>
        <time>2022-08-29T13:12:27Z</time>
      </trkpt>
      <trkpt lat="49.44651" lon="-1.37428">
        <ele>16.9</ele>
        <time>2022-08-29T13:12:31Z</time>
      </trkpt>
      <trkpt lat="49.44656" lon="-1.37422">
        <ele>16.9</ele>
        <time>2022-08-29T13:12:35Z</time>
      </trkpt>
      <trkpt lat="49.4466" lon="-1.37418">
        <ele>16.8</ele>
        <time>2022-08-29T13:12:38Z</time>
      </trkpt>
      <trkpt lat="49.44664" lon="-1.37414">
        <ele>16.6</ele>
        <time>2022-08-29T13:12:42Z</time>
      </trkpt>
      <trkpt lat="49.44669" lon="-1.37411">
        <ele>16.4</ele>
        <time>2022-08-29T13:12:46Z</time>
      </trkpt>
      <trkpt lat="49.44674" lon="-1.3741">
        <ele>15.8</ele>
        <time>2022-08-29T13:12:50Z</time>
      </trkpt>
      <trkpt lat="49.44679" lon="-1.37408">
        <ele>15.7</ele>
        <time>2022-08-29T13:12:54Z</time>
      </trkpt>
      <trkpt lat="49.44684" lon="-1.37406">
        <ele>15.6</ele>
        <time>2022-08-29T13:12:58Z</time>
      </trkpt>
      <trkpt lat="49.44689" lon="-1.37404">
        <ele>15.6</ele>
        <time>2022-08-29T13:13:01Z</time>
      </trkpt>
      <trkpt lat="49.44693" lon="-1.37401">
        <ele>15.2</ele>
        <time>2022-08-29T13:13:05Z</time>
      </trkpt>
      <trkpt lat="49.44698" lon="-1.374">
        <ele>15.1</ele>
        <time>2022-08-29T13:13:40Z</time>
      </trkpt>
      <trkpt lat="49.44704" lon="-1.37399">
        <ele>15</ele>
        <time>2022-08-29T13:13:45Z</time>
      </trkpt>
      <trkpt lat="49.44709" lon="-1.37396">
        <ele>14.9</ele>
        <time>2022-08-29T13:13:49Z</time>
      </trkpt>
      <trkpt lat="49.44715" lon="-1.37395">
        <ele>13.7</ele>
        <time>2022-08-29T13:13:55Z</time>
      </trkpt>
      <trkpt lat="49.4472" lon="-1.37392">
        <ele>13.6</ele>
        <time>2022-08-29T13:13:58Z</time>
      </trkpt>
      <trkpt lat="49.44725" lon="-1.37389">
        <ele>13.2</ele>
        <time>2022-08-29T13:14:03Z</time>
      </trkpt>
      <trkpt lat="49.44729" lon="-1.37384">
        <ele>12.2</ele>
        <time>2022-08-29T13:14:07Z</time>
      </trkpt>
      <trkpt lat="49.44733" lon="-1.37378">
        <ele>12</ele>
        <time>2022-08-29T13:14:11Z</time>
      </trkpt>
      <trkpt lat="49.44737" lon="-1.37373">
        <ele>11.9</ele>
        <time>2022-08-29T13:14:15Z</time>
      </trkpt>
      <trkpt lat="49.4474" lon="-1.37368">
        <ele>11.9</ele>
        <time>2022-08-29T13:14:18Z</time>
      </trkpt>
      <trkpt lat="49.44745" lon="-1.37361">
        <ele>11.6</ele>
        <time>2022-08-29T13:14:23Z</time>
      </trkpt>
      <trkpt lat="49.4475" lon="-1.37356">
        <ele>11.3</ele>
        <time>2022-08-29T13:14:27Z</time>
      </trkpt>
      <trkpt lat="49.44754" lon="-1.3735">
        <ele>10.1</ele>
        <time>2022-08-29T13:14:31Z</time>
      </trkpt>
      <trkpt lat="49.44757" lon="-1.37344">
        <ele>10</ele>
        <time>2022-08-29T13:14:35Z</time>
      </trkpt>
      <trkpt lat="49.44761" lon="-1.37338">
        <ele>9.8</ele>
        <time>2022-08-29T13:14:40Z</time>
      </trkpt>
      <trkpt lat="49.44764" lon="-1.37332">
        <ele>9.1</ele>
        <time>2022-08-29T13:14:43Z</time>
      </trkpt>
      <trkpt lat="49.44768" lon="-1.37328">
        <ele>8.3</ele>
        <time>2022-08-29T13:14:47Z</time>
      </trkpt>
      <trkpt lat="49.44772" lon="-1.37322">
        <ele>7.6</ele>
        <time>2022-08-29T13:14:51Z</time>
      </trkpt>
      <trkpt lat="49.44775" lon="-1.37317">
        <ele>7.3</ele>
        <time>2022-08-29T13:14:55Z</time>
      </trkpt>
      <trkpt lat="49.44778" lon="-1.3731">
        <ele>7.7</ele>
        <time>2022-08-29T13:14:58Z</time>
      </trkpt>
      <trkpt lat="49.44781" lon="-1.37303">
        <ele>7.7</ele>
        <time>2022-08-29T13:15:02Z</time>
      </trkpt>
      <trkpt lat="49.44783" lon="-1.37297">
        <ele>7</ele>
        <time>2022-08-29T13:15:06Z</time>
      </trkpt>
      <trkpt lat="49.44786" lon="-1.37291">
        <ele>7.2</ele>
        <time>2022-08-29T13:15:09Z</time>
      </trkpt>
      <trkpt lat="49.44788" lon="-1.37285">
        <ele>6.4</ele>
        <time>2022-08-29T13:15:13Z</time>
      </trkpt>
      <trkpt lat="49.44792" lon="-1.37277">
        <ele>7</ele>
        <time>2022-08-29T13:15:17Z</time>
      </trkpt>
      <trkpt lat="49.44796" lon="-1.3727">
        <ele>7.2</ele>
        <time>2022-08-29T13:15:21Z</time>
      </trkpt>
      <trkpt lat="49.44799" lon="-1.37264">
        <ele>7.2</ele>
        <time>2022-08-29T13:15:24Z</time>
      </trkpt>
      <trkpt lat="49.44802" lon="-1.37256">
        <ele>7.1</ele>
        <time>2022-08-29T13:15:28Z</time>
      </trkpt>
      <trkpt lat="49.44805" lon="-1.3725">
        <ele>7.5</ele>
        <time>2022-08-29T13:15:32Z</time>
      </trkpt>
      <trkpt lat="49.44808" lon="-1.37244">
        <ele>7.5</ele>
        <time>2022-08-29T13:15:36Z</time>
      </trkpt>
      <trkpt lat="49.44811" lon="-1.37239">
        <ele>7.2</ele>
        <time>2022-08-29T13:15:39Z</time>
      </trkpt>
      <trkpt lat="49.44815" lon="-1.37232">
        <ele>7.2</ele>
        <time>2022-08-29T13:15:42Z</time>
      </trkpt>
      <trkpt lat="49.44818" lon="-1.37227">
        <ele>7.5</ele>
        <time>2022-08-29T13:15:46Z</time>
      </trkpt>
      <trkpt lat="49.44822" lon="-1.3722">
        <ele>7.3</ele>
        <time>2022-08-29T13:15:51Z</time>
      </trkpt>
      <trkpt lat="49.44823" lon="-1.37213">
        <ele>7.1</ele>
        <time>2022-08-29T13:15:55Z</time>
      </trkpt>
      <trkpt lat="49.44825" lon="-1.37205">
        <ele>6.8</ele>
        <time>2022-08-29T13:16:01Z</time>
      </trkpt>
      <trkpt lat="49.44827" lon="-1.37198">
        <ele>6.7</ele>
        <time>2022-08-29T13:16:05Z</time>
      </trkpt>
      <trkpt lat="49.44831" lon="-1.3719">
        <ele>6.5</ele>
        <time>2022-08-29T13:16:10Z</time>
      </trkpt>
      <trkpt lat="49.44834" lon="-1.37184">
        <ele>7.2</ele>
        <time>2022-08-29T13:16:14Z</time>
      </trkpt>
      <trkpt lat="49.44839" lon="-1.3718">
        <ele>7.2</ele>
        <time>2022-08-29T13:16:19Z</time>
      </trkpt>
      <trkpt lat="49.44841" lon="-1.37174">
        <ele>8.5</ele>
        <time>2022-08-29T13:16:36Z</time>
      </trkpt>
      <trkpt lat="49.44844" lon="-1.37166">
        <ele>7.9</ele>
        <time>2022-08-29T13:16:40Z</time>
      </trkpt>
      <trkpt lat="49.44848" lon="-1.3716">
        <ele>7.9</ele>
        <time>2022-08-29T13:16:46Z</time>
      </trkpt>
      <trkpt lat="49.44849" lon="-1.37152">
        <ele>7.6</ele>
        <time>2022-08-29T13:16:50Z</time>
      </trkpt>
      <trkpt lat="49.44846" lon="-1.37147">
        <ele>6.8</ele>
        <time>2022-08-29T13:17:05Z</time>
      </trkpt>
      <trkpt lat="49.44847" lon="-1.37139">
        <ele>6.5</ele>
        <time>2022-08-29T13:17:11Z</time>
      </trkpt>
      <trkpt lat="49.44852" lon="-1.37133">
        <ele>6.3</ele>
        <time>2022-08-29T13:17:14Z</time>
      </trkpt>
      <trkpt lat="49.44854" lon="-1.37126">
        <ele>7.3</ele>
        <time>2022-08-29T13:17:19Z</time>
      </trkpt>
      <trkpt lat="49.4485" lon="-1.3712">
        <ele>6.5</ele>
        <time>2022-08-29T13:17:36Z</time>
      </trkpt>
      <trkpt lat="49.44847" lon="-1.37114">
        <ele>7</ele>
        <time>2022-08-29T13:17:40Z</time>
      </trkpt>
      <trkpt lat="49.44844" lon="-1.37106">
        <ele>7.2</ele>
        <time>2022-08-29T13:17:44Z</time>
      </trkpt>
      <trkpt lat="49.4484" lon="-1.37098">
        <ele>8.6</ele>
        <time>2022-08-29T13:17:51Z</time>
      </trkpt>
      <trkpt lat="49.44836" lon="-1.37095">
        <ele>9.2</ele>
        <time>2022-08-29T13:17:53Z</time>
      </trkpt>
      <trkpt lat="49.44831" lon="-1.37089">
        <ele>10.4</ele>
        <time>2022-08-29T13:17:57Z</time>
      </trkpt>
      <trkpt lat="49.44828" lon="-1.37082">
        <ele>10.6</ele>
        <time>2022-08-29T13:18:01Z</time>
      </trkpt>
      <trkpt lat="49.44825" lon="-1.37077">
        <ele>11.5</ele>
        <time>2022-08-29T13:18:05Z</time>
      </trkpt>
      <trkpt lat="49.44822" lon="-1.3707">
        <ele>11.7</ele>
        <time>2022-08-29T13:18:11Z</time>
      </trkpt>
      <trkpt lat="49.44817" lon="-1.37062">
        <ele>11.2</ele>
        <time>2022-08-29T13:18:15Z</time>
      </trkpt>
      <trkpt lat="49.44814" lon="-1.37057">
        <ele>11.3</ele>
        <time>2022-08-29T13:18:18Z</time>
      </trkpt>
      <trkpt lat="49.4481" lon="-1.37052">
        <ele>11.1</ele>
        <time>2022-08-29T13:18:22Z</time>
      </trkpt>
      <trkpt lat="49.4481" lon="-1.37045">
        <ele>11.4</ele>
        <time>2022-08-29T13:18:44Z</time>
      </trkpt>
      <trkpt lat="49.44806" lon="-1.37042">
        <ele>10.7</ele>
        <time>2022-08-29T13:18:47Z</time>
      </trkpt>
      <trkpt lat="49.44802" lon="-1.3704">
        <ele>10.1</ele>
        <time>2022-08-29T13:18:53Z</time>
      </trkpt>
      <trkpt lat="49.44799" lon="-1.37032">
        <ele>10.2</ele>
        <time>2022-08-29T13:19:02Z</time>
      </trkpt>
      <trkpt lat="49.44796" lon="-1.37025">
        <ele>9.5</ele>
        <time>2022-08-29T13:19:06Z</time>
      </trkpt>
      <trkpt lat="49.44793" lon="-1.3702">
        <ele>9.2</ele>
        <time>2022-08-29T13:19:10Z</time>
      </trkpt>
      <trkpt lat="49.44789" lon="-1.37013">
        <ele>10.2</ele>
        <time>2022-08-29T13:19:19Z</time>
      </trkpt>
      <trkpt lat="49.44785" lon="-1.37009">
        <ele>10.1</ele>
        <time>2022-08-29T13:19:23Z</time>
      </trkpt>
      <trkpt lat="49.44781" lon="-1.37002">
        <ele>10.6</ele>
        <time>2022-08-29T13:19:26Z</time>
      </trkpt>
      <trkpt lat="49.44777" lon="-1.36996">
        <ele>9.9</ele>
        <time>2022-08-29T13:19:30Z</time>
      </trkpt>
      <trkpt lat="49.44773" lon="-1.36991">
        <ele>10.2</ele>
        <time>2022-08-29T13:19:34Z</time>
      </trkpt>
      <trkpt lat="49.44771" lon="-1.36984">
        <ele>12.7</ele>
        <time>2022-08-29T13:19:39Z</time>
      </trkpt>
      <trkpt lat="49.44767" lon="-1.3698">
        <ele>13</ele>
        <time>2022-08-29T13:19:42Z</time>
      </trkpt>
      <trkpt lat="49.44762" lon="-1.36976">
        <ele>14</ele>
        <time>2022-08-29T13:19:46Z</time>
      </trkpt>
      <trkpt lat="49.44758" lon="-1.36971">
        <ele>15.4</ele>
        <time>2022-08-29T13:19:50Z</time>
      </trkpt>
      <trkpt lat="49.44754" lon="-1.36964">
        <ele>15.7</ele>
        <time>2022-08-29T13:19:54Z</time>
      </trkpt>
      <trkpt lat="49.4475" lon="-1.36958">
        <ele>15.2</ele>
        <time>2022-08-29T13:20:00Z</time>
      </trkpt>
      <trkpt lat="49.44747" lon="-1.36952">
        <ele>15.9</ele>
        <time>2022-08-29T13:20:04Z</time>
      </trkpt>
      <trkpt lat="49.44743" lon="-1.36947">
        <ele>15</ele>
        <time>2022-08-29T13:20:09Z</time>
      </trkpt>
      <trkpt lat="49.44739" lon="-1.36941">
        <ele>15.4</ele>
        <time>2022-08-29T13:20:14Z</time>
      </trkpt>
      <trkpt lat="49.44735" lon="-1.36933">
        <ele>15.7</ele>
        <time>2022-08-29T13:20:19Z</time>
      </trkpt>
      <trkpt lat="49.4473" lon="-1.36929">
        <ele>15.6</ele>
        <time>2022-08-29T13:20:23Z</time>
      </trkpt>
      <trkpt lat="49.44726" lon="-1.36925">
        <ele>15.7</ele>
        <time>2022-08-29T13:20:27Z</time>
      </trkpt>
      <trkpt lat="49.44723" lon="-1.36919">
        <ele>16.6</ele>
        <time>2022-08-29T13:20:31Z</time>
      </trkpt>
      <trkpt lat="49.44719" lon="-1.36914">
        <ele>18.9</ele>
        <time>2022-08-29T13:20:35Z</time>
      </trkpt>
      <trkpt lat="49.44715" lon="-1.36906">
        <ele>19.3</ele>
        <time>2022-08-29T13:20:39Z</time>
      </trkpt>
      <trkpt lat="49.4471" lon="-1.36902">
        <ele>18.8</ele>
        <time>2022-08-29T13:20:44Z</time>
      </trkpt>
      <trkpt lat="49.44705" lon="-1.36898">
        <ele>19.2</ele>
        <time>2022-08-29T13:20:48Z</time>
      </trkpt>
      <trkpt lat="49.447" lon="-1.36895">
        <ele>18.8</ele>
        <time>2022-08-29T13:20:52Z</time>
      </trkpt>
      <trkpt lat="49.44696" lon="-1.3689">
        <ele>18.6</ele>
        <time>2022-08-29T13:20:57Z</time>
      </trkpt>
      <trkpt lat="49.44692" lon="-1.36885">
        <ele>20.4</ele>
        <time>2022-08-29T13:21:01Z</time>
      </trkpt>
      <trkpt lat="49.44688" lon="-1.3688">
        <ele>20</ele>
        <time>2022-08-29T13:21:05Z</time>
      </trkpt>
      <trkpt lat="49.44683" lon="-1.36873">
        <ele>21</ele>
        <time>2022-08-29T13:21:10Z</time>
      </trkpt>
      <trkpt lat="49.44678" lon="-1.36869">
        <ele>21.2</ele>
        <time>2022-08-29T13:21:15Z</time>
      </trkpt>
      <trkpt lat="49.44673" lon="-1.36865">
        <ele>20.1</ele>
        <time>2022-08-29T13:21:20Z</time>
      </trkpt>
      <trkpt lat="49.44669" lon="-1.36861">
        <ele>20.2</ele>
        <time>2022-08-29T13:21:25Z</time>
      </trkpt>
      <trkpt lat="49.44664" lon="-1.36856">
        <ele>20.5</ele>
        <time>2022-08-29T13:21:30Z</time>
      </trkpt>
      <trkpt lat="49.44658" lon="-1.36852">
        <ele>20.7</ele>
        <time>2022-08-29T13:21:35Z</time>
      </trkpt>
      <trkpt lat="49.44652" lon="-1.36849">
        <ele>20.9</ele>
        <time>2022-08-29T13:21:39Z</time>
      </trkpt>
      <trkpt lat="49.44648" lon="-1.36846">
        <ele>20.4</ele>
        <time>2022-08-29T13:21:43Z</time>
      </trkpt>
      <trkpt lat="49.44644" lon="-1.36841">
        <ele>20.6</ele>
        <time>2022-08-29T13:21:49Z</time>
      </trkpt>
      <trkpt lat="49.44638" lon="-1.36838">
        <ele>20.9</ele>
        <time>2022-08-29T13:21:54Z</time>
      </trkpt>
      <trkpt lat="49.44634" lon="-1.36835">
        <ele>21.3</ele>
        <time>2022-08-29T13:21:58Z</time>
      </trkpt>
      <trkpt lat="49.44629" lon="-1.36831">
        <ele>21.5</ele>
        <time>2022-08-29T13:22:02Z</time>
      </trkpt>
      <trkpt lat="49.44625" lon="-1.36827">
        <ele>21.6</ele>
        <time>2022-08-29T13:22:06Z</time>
      </trkpt>
      <trkpt lat="49.4462" lon="-1.36823">
        <ele>21.7</ele>
        <time>2022-08-29T13:22:10Z</time>
      </trkpt>
      <trkpt lat="49.44616" lon="-1.36819">
        <ele>21.2</ele>
        <time>2022-08-29T13:22:14Z</time>
      </trkpt>
      <trkpt lat="49.44611" lon="-1.36815">
        <ele>21.4</ele>
        <time>2022-08-29T13:22:19Z</time>
      </trkpt>
      <trkpt lat="49.44606" lon="-1.36812">
        <ele>21.5</ele>
        <time>2022-08-29T13:22:23Z</time>
      </trkpt>
      <trkpt lat="49.44602" lon="-1.36808">
        <ele>21.6</ele>
        <time>2022-08-29T13:22:27Z</time>
      </trkpt>
      <trkpt lat="49.44595" lon="-1.36803">
        <ele>22.2</ele>
        <time>2022-08-29T13:22:31Z</time>
      </trkpt>
      <trkpt lat="49.44591" lon="-1.36799">
        <ele>21.9</ele>
        <time>2022-08-29T13:22:34Z</time>
      </trkpt>
      <trkpt lat="49.44587" lon="-1.36793">
        <ele>21.7</ele>
        <time>2022-08-29T13:22:39Z</time>
      </trkpt>
      <trkpt lat="49.44583" lon="-1.36788">
        <ele>22.4</ele>
        <time>2022-08-29T13:22:43Z</time>
      </trkpt>
      <trkpt lat="49.44578" lon="-1.36785">
        <ele>23.5</ele>
        <time>2022-08-29T13:22:47Z</time>
      </trkpt>
      <trkpt lat="49.44573" lon="-1.36782">
        <ele>22.9</ele>
        <time>2022-08-29T13:22:51Z</time>
      </trkpt>
      <trkpt lat="49.44569" lon="-1.36777">
        <ele>23.2</ele>
        <time>2022-08-29T13:22:55Z</time>
      </trkpt>
      <trkpt lat="49.44565" lon="-1.36773">
        <ele>23.3</ele>
        <time>2022-08-29T13:22:59Z</time>
      </trkpt>
      <trkpt lat="49.44561" lon="-1.3677">
        <ele>23.1</ele>
        <time>2022-08-29T13:23:03Z</time>
      </trkpt>
      <trkpt lat="49.44556" lon="-1.36768">
        <ele>24.1</ele>
        <time>2022-08-29T13:23:07Z</time>
      </trkpt>
      <trkpt lat="49.44552" lon="-1.36762">
        <ele>24.1</ele>
        <time>2022-08-29T13:23:11Z</time>
      </trkpt>
      <trkpt lat="49.44549" lon="-1.36757">
        <ele>24.5</ele>
        <time>2022-08-29T13:23:15Z</time>
      </trkpt>
      <trkpt lat="49.44546" lon="-1.36752">
        <ele>24.5</ele>
        <time>2022-08-29T13:23:20Z</time>
      </trkpt>
      <trkpt lat="49.44541" lon="-1.36746">
        <ele>24</ele>
        <time>2022-08-29T13:23:33Z</time>
      </trkpt>
      <trkpt lat="49.44538" lon="-1.36741">
        <ele>24</ele>
        <time>2022-08-29T13:23:36Z</time>
      </trkpt>
      <trkpt lat="49.44533" lon="-1.36735">
        <ele>24.1</ele>
        <time>2022-08-29T13:23:40Z</time>
      </trkpt>
      <trkpt lat="49.44529" lon="-1.36731">
        <ele>23.7</ele>
        <time>2022-08-29T13:23:44Z</time>
      </trkpt>
      <trkpt lat="49.44524" lon="-1.36726">
        <ele>24.1</ele>
        <time>2022-08-29T13:23:48Z</time>
      </trkpt>
      <trkpt lat="49.4452" lon="-1.36723">
        <ele>25.5</ele>
        <time>2022-08-29T13:23:52Z</time>
      </trkpt>
      <trkpt lat="49.44516" lon="-1.36718">
        <ele>25.3</ele>
        <time>2022-08-29T13:23:56Z</time>
      </trkpt>
      <trkpt lat="49.44511" lon="-1.36712">
        <ele>25.5</ele>
        <time>2022-08-29T13:24:01Z</time>
      </trkpt>
      <trkpt lat="49.44507" lon="-1.36704">
        <ele>26.6</ele>
        <time>2022-08-29T13:24:06Z</time>
      </trkpt>
      <trkpt lat="49.44503" lon="-1.36696">
        <ele>26.5</ele>
        <time>2022-08-29T13:24:11Z</time>
      </trkpt>
      <trkpt lat="49.44498" lon="-1.3669">
        <ele>27.1</ele>
        <time>2022-08-29T13:24:16Z</time>
      </trkpt>
      <trkpt lat="49.44493" lon="-1.36687">
        <ele>27.3</ele>
        <time>2022-08-29T13:24:21Z</time>
      </trkpt>
      <trkpt lat="49.44487" lon="-1.36682">
        <ele>27.4</ele>
        <time>2022-08-29T13:24:26Z</time>
      </trkpt>
      <trkpt lat="49.44483" lon="-1.36678">
        <ele>27.4</ele>
        <time>2022-08-29T13:24:30Z</time>
      </trkpt>
      <trkpt lat="49.44479" lon="-1.36674">
        <ele>27.5</ele>
        <time>2022-08-29T13:24:33Z</time>
      </trkpt>
      <trkpt lat="49.44474" lon="-1.36671">
        <ele>27.1</ele>
        <time>2022-08-29T13:24:36Z</time>
      </trkpt>
      <trkpt lat="49.44471" lon="-1.36666">
        <ele>26.8</ele>
        <time>2022-08-29T13:24:40Z</time>
      </trkpt>
      <trkpt lat="49.44465" lon="-1.36662">
        <ele>26.8</ele>
        <time>2022-08-29T13:24:44Z</time>
      </trkpt>
      <trkpt lat="49.4446" lon="-1.36658">
        <ele>26.9</ele>
        <time>2022-08-29T13:24:49Z</time>
      </trkpt>
      <trkpt lat="49.44456" lon="-1.36654">
        <ele>26.8</ele>
        <time>2022-08-29T13:24:54Z</time>
      </trkpt>
      <trkpt lat="49.4445" lon="-1.36653">
        <ele>27.3</ele>
        <time>2022-08-29T13:25:17Z</time>
      </trkpt>
      <trkpt lat="49.44443" lon="-1.3665">
        <ele>27.4</ele>
        <time>2022-08-29T13:25:21Z</time>
      </trkpt>
      <trkpt lat="49.44439" lon="-1.36647">
        <ele>27.3</ele>
        <time>2022-08-29T13:25:23Z</time>
      </trkpt>
      <trkpt lat="49.44435" lon="-1.3664">
        <ele>27.2</ele>
        <time>2022-08-29T13:25:27Z</time>
      </trkpt>
      <trkpt lat="49.44433" lon="-1.36632">
        <ele>26.9</ele>
        <time>2022-08-29T13:25:31Z</time>
      </trkpt>
      <trkpt lat="49.44432" lon="-1.36625">
        <ele>27.6</ele>
        <time>2022-08-29T13:25:34Z</time>
      </trkpt>
      <trkpt lat="49.4443" lon="-1.36617">
        <ele>27.5</ele>
        <time>2022-08-29T13:25:38Z</time>
      </trkpt>
      <trkpt lat="49.44427" lon="-1.36608">
        <ele>27</ele>
        <time>2022-08-29T13:25:43Z</time>
      </trkpt>
      <trkpt lat="49.44426" lon="-1.366">
        <ele>27.3</ele>
        <time>2022-08-29T13:25:47Z</time>
      </trkpt>
      <trkpt lat="49.44424" lon="-1.36592">
        <ele>26.8</ele>
        <time>2022-08-29T13:25:52Z</time>
      </trkpt>
      <trkpt lat="49.44422" lon="-1.36587">
        <ele>26.7</ele>
        <time>2022-08-29T13:25:55Z</time>
      </trkpt>
      <trkpt lat="49.44419" lon="-1.3658">
        <ele>26.4</ele>
        <time>2022-08-29T13:25:59Z</time>
      </trkpt>
      <trkpt lat="49.44417" lon="-1.36573">
        <ele>25.8</ele>
        <time>2022-08-29T13:26:03Z</time>
      </trkpt>
      <trkpt lat="49.44415" lon="-1.36565">
        <ele>25.4</ele>
        <time>2022-08-29T13:26:08Z</time>
      </trkpt>
      <trkpt lat="49.44414" lon="-1.36558">
        <ele>24.8</ele>
        <time>2022-08-29T13:26:41Z</time>
      </trkpt>
      <trkpt lat="49.44413" lon="-1.36549">
        <ele>24.7</ele>
        <time>2022-08-29T13:26:44Z</time>
      </trkpt>
      <trkpt lat="49.4441" lon="-1.3654">
        <ele>24.5</ele>
        <time>2022-08-29T13:26:48Z</time>
      </trkpt>
      <trkpt lat="49.44407" lon="-1.36531">
        <ele>24.4</ele>
        <time>2022-08-29T13:26:52Z</time>
      </trkpt>
      <trkpt lat="49.44404" lon="-1.36524">
        <ele>23.5</ele>
        <time>2022-08-29T13:26:55Z</time>
      </trkpt>
      <trkpt lat="49.44401" lon="-1.36518">
        <ele>21.8</ele>
        <time>2022-08-29T13:26:59Z</time>
      </trkpt>
      <trkpt lat="49.44401" lon="-1.36511">
        <ele>21.9</ele>
        <time>2022-08-29T13:27:04Z</time>
      </trkpt>
      <trkpt lat="49.44398" lon="-1.36506">
        <ele>21.8</ele>
        <time>2022-08-29T13:27:27Z</time>
      </trkpt>
      <trkpt lat="49.44396" lon="-1.36497">
        <ele>21</ele>
        <time>2022-08-29T13:27:32Z</time>
      </trkpt>
      <trkpt lat="49.44393" lon="-1.3649">
        <ele>20.9</ele>
        <time>2022-08-29T13:27:35Z</time>
      </trkpt>
      <trkpt lat="49.44388" lon="-1.36477">
        <ele>20.4</ele>
        <time>2022-08-29T13:27:38Z</time>
      </trkpt>
      <trkpt lat="49.44385" lon="-1.36471">
        <ele>20.7</ele>
        <time>2022-08-29T13:27:40Z</time>
      </trkpt>
      <trkpt lat="49.44382" lon="-1.36463">
        <ele>19.7</ele>
        <time>2022-08-29T13:27:44Z</time>
      </trkpt>
      <trkpt lat="49.4438" lon="-1.36456">
        <ele>18.8</ele>
        <time>2022-08-29T13:27:48Z</time>
      </trkpt>
      <trkpt lat="49.44376" lon="-1.36449">
        <ele>18.5</ele>
        <time>2022-08-29T13:27:52Z</time>
      </trkpt>
      <trkpt lat="49.44373" lon="-1.36442">
        <ele>18.3</ele>
        <time>2022-08-29T13:27:56Z</time>
      </trkpt>
      <trkpt lat="49.4437" lon="-1.36435">
        <ele>17.6</ele>
        <time>2022-08-29T13:28:00Z</time>
      </trkpt>
      <trkpt lat="49.44368" lon="-1.36429">
        <ele>16.6</ele>
        <time>2022-08-29T13:28:03Z</time>
      </trkpt>
      <trkpt lat="49.44365" lon="-1.36421">
        <ele>16.7</ele>
        <time>2022-08-29T13:28:07Z</time>
      </trkpt>
      <trkpt lat="49.44362" lon="-1.36412">
        <ele>15.2</ele>
        <time>2022-08-29T13:28:12Z</time>
      </trkpt>
      <trkpt lat="49.4436" lon="-1.36403">
        <ele>15.5</ele>
        <time>2022-08-29T13:28:17Z</time>
      </trkpt>
      <trkpt lat="49.44357" lon="-1.36396">
        <ele>14.6</ele>
        <time>2022-08-29T13:28:37Z</time>
      </trkpt>
      <trkpt lat="49.44354" lon="-1.36388">
        <ele>14.1</ele>
        <time>2022-08-29T13:28:40Z</time>
      </trkpt>
      <trkpt lat="49.44352" lon="-1.36381">
        <ele>14</ele>
        <time>2022-08-29T13:28:43Z</time>
      </trkpt>
      <trkpt lat="49.4435" lon="-1.36373">
        <ele>13.4</ele>
        <time>2022-08-29T13:28:46Z</time>
      </trkpt>
      <trkpt lat="49.44347" lon="-1.36364">
        <ele>13.4</ele>
        <time>2022-08-29T13:28:50Z</time>
      </trkpt>
      <trkpt lat="49.44345" lon="-1.36356">
        <ele>14.5</ele>
        <time>2022-08-29T13:28:54Z</time>
      </trkpt>
      <trkpt lat="49.44344" lon="-1.36349">
        <ele>12.8</ele>
        <time>2022-08-29T13:29:25Z</time>
      </trkpt>
      <trkpt lat="49.4434" lon="-1.36344">
        <ele>12.9</ele>
        <time>2022-08-29T13:29:32Z</time>
      </trkpt>
      <trkpt lat="49.4434" lon="-1.36336">
        <ele>12.8</ele>
        <time>2022-08-29T13:29:44Z</time>
      </trkpt>
      <trkpt lat="49.44337" lon="-1.36331">
        <ele>11.9</ele>
        <time>2022-08-29T13:29:47Z</time>
      </trkpt>
      <trkpt lat="49.44334" lon="-1.36325">
        <ele>11.9</ele>
        <time>2022-08-29T13:29:54Z</time>
      </trkpt>
      <trkpt lat="49.44332" lon="-1.36317">
        <ele>11.6</ele>
        <time>2022-08-29T13:30:09Z</time>
      </trkpt>
      <trkpt lat="49.4433" lon="-1.36309">
        <ele>11.4</ele>
        <time>2022-08-29T13:30:12Z</time>
      </trkpt>
      <trkpt lat="49.44328" lon="-1.363">
        <ele>10.9</ele>
        <time>2022-08-29T13:30:15Z</time>
      </trkpt>
      <trkpt lat="49.44325" lon="-1.36292">
        <ele>9.6</ele>
        <time>2022-08-29T13:30:18Z</time>
      </trkpt>
      <trkpt lat="49.44323" lon="-1.36285">
        <ele>8.9</ele>
        <time>2022-08-29T13:30:22Z</time>
      </trkpt>
      <trkpt lat="49.44321" lon="-1.36277">
        <ele>8.9</ele>
        <time>2022-08-29T13:30:25Z</time>
      </trkpt>
      <trkpt lat="49.44318" lon="-1.36271">
        <ele>7.7</ele>
        <time>2022-08-29T13:30:29Z</time>
      </trkpt>
      <trkpt lat="49.44314" lon="-1.36265">
        <ele>7.1</ele>
        <time>2022-08-29T13:30:35Z</time>
      </trkpt>
      <trkpt lat="49.44316" lon="-1.36258">
        <ele>6.6</ele>
        <time>2022-08-29T13:30:41Z</time>
      </trkpt>
      <trkpt lat="49.44315" lon="-1.3625">
        <ele>4.2</ele>
        <time>2022-08-29T13:30:55Z</time>
      </trkpt>
      <trkpt lat="49.44312" lon="-1.36242">
        <ele>3.9</ele>
        <time>2022-08-29T13:30:59Z</time>
      </trkpt>
      <trkpt lat="49.44309" lon="-1.36234">
        <ele>3.6</ele>
        <time>2022-08-29T13:31:03Z</time>
      </trkpt>
      <trkpt lat="49.44313" lon="-1.36241">
        <ele>3.9</ele>
        <time>2022-08-29T13:31:11Z</time>
      </trkpt>
      <trkpt lat="49.44314" lon="-1.36249">
        <ele>4.2</ele>
        <time>2022-08-29T13:31:14Z</time>
      </trkpt>
      <trkpt lat="49.44319" lon="-1.36256">
        <ele>4.4</ele>
        <time>2022-08-29T13:31:17Z</time>
      </trkpt>
      <trkpt lat="49.44323" lon="-1.36259">
        <ele>4.8</ele>
        <time>2022-08-29T13:31:21Z</time>
      </trkpt>
      <trkpt lat="49.44329" lon="-1.36256">
        <ele>5</ele>
        <time>2022-08-29T13:31:25Z</time>
      </trkpt>
      <trkpt lat="49.44335" lon="-1.36253">
        <ele>4.9</ele>
        <time>2022-08-29T13:31:30Z</time>
      </trkpt>
      <trkpt lat="49.44339" lon="-1.3625">
        <ele>5.2</ele>
        <time>2022-08-29T13:31:33Z</time>
      </trkpt>
      <trkpt lat="49.44344" lon="-1.36247">
        <ele>5.6</ele>
        <time>2022-08-29T13:31:37Z</time>
      </trkpt>
      <trkpt lat="49.4435" lon="-1.36244">
        <ele>5.7</ele>
        <time>2022-08-29T13:31:41Z</time>
      </trkpt>
      <trkpt lat="49.44354" lon="-1.36242">
        <ele>5.1</ele>
        <time>2022-08-29T13:31:45Z</time>
      </trkpt>
      <trkpt lat="49.44359" lon="-1.36241">
        <ele>4.8</ele>
        <time>2022-08-29T13:31:48Z</time>
      </trkpt>
      <trkpt lat="49.44364" lon="-1.36239">
        <ele>4.9</ele>
        <time>2022-08-29T13:31:52Z</time>
      </trkpt>
      <trkpt lat="49.4437" lon="-1.36238">
        <ele>4.5</ele>
        <time>2022-08-29T13:31:56Z</time>
      </trkpt>
      <trkpt lat="49.44374" lon="-1.36239">
        <ele>4.8</ele>
        <time>2022-08-29T13:31:59Z</time>
      </trkpt>
      <trkpt lat="49.44379" lon="-1.36239">
        <ele>5</ele>
        <time>2022-08-29T13:32:03Z</time>
      </trkpt>
      <trkpt lat="49.44384" lon="-1.36238">
        <ele>4.9</ele>
        <time>2022-08-29T13:32:06Z</time>
      </trkpt>
      <trkpt lat="49.4439" lon="-1.36238">
        <ele>4.5</ele>
        <time>2022-08-29T13:32:10Z</time>
      </trkpt>
      <trkpt lat="49.44395" lon="-1.36238">
        <ele>4.7</ele>
        <time>2022-08-29T13:32:14Z</time>
      </trkpt>
      <trkpt lat="49.444" lon="-1.36238">
        <ele>6</ele>
        <time>2022-08-29T13:32:17Z</time>
      </trkpt>
      <trkpt lat="49.44405" lon="-1.36236">
        <ele>6.8</ele>
        <time>2022-08-29T13:32:22Z</time>
      </trkpt>
      <trkpt lat="49.4441" lon="-1.36234">
        <ele>6.5</ele>
        <time>2022-08-29T13:32:25Z</time>
      </trkpt>
      <trkpt lat="49.44414" lon="-1.36232">
        <ele>6.8</ele>
        <time>2022-08-29T13:32:28Z</time>
      </trkpt>
      <trkpt lat="49.4442" lon="-1.36229">
        <ele>6.7</ele>
        <time>2022-08-29T13:32:33Z</time>
      </trkpt>
      <trkpt lat="49.44426" lon="-1.36225">
        <ele>6.4</ele>
        <time>2022-08-29T13:32:37Z</time>
      </trkpt>
      <trkpt lat="49.4443" lon="-1.36223">
        <ele>5.8</ele>
        <time>2022-08-29T13:32:41Z</time>
      </trkpt>
      <trkpt lat="49.44436" lon="-1.36219">
        <ele>6.1</ele>
        <time>2022-08-29T13:32:46Z</time>
      </trkpt>
      <trkpt lat="49.4444" lon="-1.36214">
        <ele>6.7</ele>
        <time>2022-08-29T13:33:17Z</time>
      </trkpt>
      <trkpt lat="49.44445" lon="-1.36212">
        <ele>6.1</ele>
        <time>2022-08-29T13:33:20Z</time>
      </trkpt>
      <trkpt lat="49.44451" lon="-1.3621">
        <ele>6.6</ele>
        <time>2022-08-29T13:33:23Z</time>
      </trkpt>
      <trkpt lat="49.44456" lon="-1.36207">
        <ele>7.3</ele>
        <time>2022-08-29T13:33:27Z</time>
      </trkpt>
      <trkpt lat="49.4446" lon="-1.36204">
        <ele>7.7</ele>
        <time>2022-08-29T13:33:30Z</time>
      </trkpt>
      <trkpt lat="49.44465" lon="-1.36202">
        <ele>7.4</ele>
        <time>2022-08-29T13:33:33Z</time>
      </trkpt>
      <trkpt lat="49.44469" lon="-1.36199">
        <ele>7.8</ele>
        <time>2022-08-29T13:33:37Z</time>
      </trkpt>
      <trkpt lat="49.44474" lon="-1.36196">
        <ele>7.3</ele>
        <time>2022-08-29T13:33:40Z</time>
      </trkpt>
      <trkpt lat="49.44478" lon="-1.36193">
        <ele>8.2</ele>
        <time>2022-08-29T13:33:44Z</time>
      </trkpt>
      <trkpt lat="49.44482" lon="-1.3619">
        <ele>8.7</ele>
        <time>2022-08-29T13:33:48Z</time>
      </trkpt>
      <trkpt lat="49.44487" lon="-1.36187">
        <ele>8.4</ele>
        <time>2022-08-29T13:33:52Z</time>
      </trkpt>
      <trkpt lat="49.44492" lon="-1.36186">
        <ele>7.9</ele>
        <time>2022-08-29T13:33:55Z</time>
      </trkpt>
      <trkpt lat="49.44497" lon="-1.36182">
        <ele>8.3</ele>
        <time>2022-08-29T13:33:59Z</time>
      </trkpt>
      <trkpt lat="49.44502" lon="-1.3618">
        <ele>7.6</ele>
        <time>2022-08-29T13:34:08Z</time>
      </trkpt>
      <trkpt lat="49.44507" lon="-1.36177">
        <ele>7.8</ele>
        <time>2022-08-29T13:34:12Z</time>
      </trkpt>
      <trkpt lat="49.4451" lon="-1.36172">
        <ele>8</ele>
        <time>2022-08-29T13:34:14Z</time>
      </trkpt>
      <trkpt lat="49.44515" lon="-1.36168">
        <ele>7.9</ele>
        <time>2022-08-29T13:34:18Z</time>
      </trkpt>
      <trkpt lat="49.4452" lon="-1.36165">
        <ele>8.2</ele>
        <time>2022-08-29T13:34:22Z</time>
      </trkpt>
      <trkpt lat="49.44525" lon="-1.36161">
        <ele>8.4</ele>
        <time>2022-08-29T13:34:25Z</time>
      </trkpt>
      <trkpt lat="49.44529" lon="-1.36158">
        <ele>8.7</ele>
        <time>2022-08-29T13:34:29Z</time>
      </trkpt>
      <trkpt lat="49.44533" lon="-1.36154">
        <ele>9</ele>
        <time>2022-08-29T13:34:33Z</time>
      </trkpt>
      <trkpt lat="49.44539" lon="-1.36149">
        <ele>9.1</ele>
        <time>2022-08-29T13:34:38Z</time>
      </trkpt>
      <trkpt lat="49.44544" lon="-1.36145">
        <ele>9.2</ele>
        <time>2022-08-29T13:34:42Z</time>
      </trkpt>
      <trkpt lat="49.44549" lon="-1.36141">
        <ele>9.3</ele>
        <time>2022-08-29T13:34:46Z</time>
      </trkpt>
      <trkpt lat="49.44552" lon="-1.36135">
        <ele>9.4</ele>
        <time>2022-08-29T13:34:50Z</time>
      </trkpt>
      <trkpt lat="49.44556" lon="-1.36132">
        <ele>9.4</ele>
        <time>2022-08-29T13:34:53Z</time>
      </trkpt>
      <trkpt lat="49.4456" lon="-1.36128">
        <ele>9.5</ele>
        <time>2022-08-29T13:34:57Z</time>
      </trkpt>
      <trkpt lat="49.44565" lon="-1.36124">
        <ele>8.8</ele>
        <time>2022-08-29T13:35:01Z</time>
      </trkpt>
      <trkpt lat="49.44569" lon="-1.36121">
        <ele>9.2</ele>
        <time>2022-08-29T13:35:04Z</time>
      </trkpt>
      <trkpt lat="49.44574" lon="-1.36119">
        <ele>9.6</ele>
        <time>2022-08-29T13:35:08Z</time>
      </trkpt>
      <trkpt lat="49.44578" lon="-1.36116">
        <ele>9.9</ele>
        <time>2022-08-29T13:35:11Z</time>
      </trkpt>
      <trkpt lat="49.44584" lon="-1.36114">
        <ele>9.5</ele>
        <time>2022-08-29T13:35:15Z</time>
      </trkpt>
      <trkpt lat="49.44589" lon="-1.36112">
        <ele>8.9</ele>
        <time>2022-08-29T13:35:19Z</time>
      </trkpt>
      <trkpt lat="49.44594" lon="-1.36109">
        <ele>9.1</ele>
        <time>2022-08-29T13:35:22Z</time>
      </trkpt>
      <trkpt lat="49.44598" lon="-1.36106">
        <ele>9.1</ele>
        <time>2022-08-29T13:35:25Z</time>
      </trkpt>
      <trkpt lat="49.44602" lon="-1.36103">
        <ele>8.6</ele>
        <time>2022-08-29T13:35:29Z</time>
      </trkpt>
      <trkpt lat="49.44607" lon="-1.361">
        <ele>8.6</ele>
        <time>2022-08-29T13:35:33Z</time>
      </trkpt>
      <trkpt lat="49.44612" lon="-1.36097">
        <ele>8.9</ele>
        <time>2022-08-29T13:35:37Z</time>
      </trkpt>
      <trkpt lat="49.44617" lon="-1.36094">
        <ele>8.9</ele>
        <time>2022-08-29T13:35:41Z</time>
      </trkpt>
      <trkpt lat="49.44622" lon="-1.3609">
        <ele>8.5</ele>
        <time>2022-08-29T13:35:45Z</time>
      </trkpt>
      <trkpt lat="49.44628" lon="-1.36088">
        <ele>8.6</ele>
        <time>2022-08-29T13:35:50Z</time>
      </trkpt>
      <trkpt lat="49.4463" lon="-1.36082">
        <ele>9.6</ele>
        <time>2022-08-29T13:35:55Z</time>
      </trkpt>
      <trkpt lat="49.44636" lon="-1.3608">
        <ele>9.5</ele>
        <time>2022-08-29T13:36:00Z</time>
      </trkpt>
      <trkpt lat="49.44641" lon="-1.36077">
        <ele>9.2</ele>
        <time>2022-08-29T13:36:05Z</time>
      </trkpt>
      <trkpt lat="49.44645" lon="-1.36074">
        <ele>9.4</ele>
        <time>2022-08-29T13:36:09Z</time>
      </trkpt>
      <trkpt lat="49.44649" lon="-1.36071">
        <ele>9.3</ele>
        <time>2022-08-29T13:36:13Z</time>
      </trkpt>
      <trkpt lat="49.44652" lon="-1.36064">
        <ele>9.5</ele>
        <time>2022-08-29T13:36:20Z</time>
      </trkpt>
      <trkpt lat="49.44657" lon="-1.36063">
        <ele>9.4</ele>
        <time>2022-08-29T13:36:27Z</time>
      </trkpt>
      <trkpt lat="49.44662" lon="-1.36064">
        <ele>8.9</ele>
        <time>2022-08-29T13:36:31Z</time>
      </trkpt>
      <trkpt lat="49.44667" lon="-1.36063">
        <ele>9.4</ele>
        <time>2022-08-29T13:36:35Z</time>
      </trkpt>
      <trkpt lat="49.44672" lon="-1.36058">
        <ele>11</ele>
        <time>2022-08-29T13:36:48Z</time>
      </trkpt>
      <trkpt lat="49.44678" lon="-1.3606">
        <ele>11.4</ele>
        <time>2022-08-29T13:36:53Z</time>
      </trkpt>
      <trkpt lat="49.44683" lon="-1.36059">
        <ele>11.3</ele>
        <time>2022-08-29T13:36:56Z</time>
      </trkpt>
      <trkpt lat="49.44687" lon="-1.36053">
        <ele>11.3</ele>
        <time>2022-08-29T13:36:59Z</time>
      </trkpt>
      <trkpt lat="49.4469" lon="-1.36041">
        <ele>11.7</ele>
        <time>2022-08-29T13:37:01Z</time>
      </trkpt>
      <trkpt lat="49.44694" lon="-1.36035">
        <ele>12</ele>
        <time>2022-08-29T13:37:04Z</time>
      </trkpt>
      <trkpt lat="49.44698" lon="-1.3603">
        <ele>12.4</ele>
        <time>2022-08-29T13:37:08Z</time>
      </trkpt>
      <trkpt lat="49.44703" lon="-1.36026">
        <ele>12.7</ele>
        <time>2022-08-29T13:37:12Z</time>
      </trkpt>
      <trkpt lat="49.44708" lon="-1.36023">
        <ele>13</ele>
        <time>2022-08-29T13:37:16Z</time>
      </trkpt>
      <trkpt lat="49.44712" lon="-1.36019">
        <ele>13.4</ele>
        <time>2022-08-29T13:37:19Z</time>
      </trkpt>
      <trkpt lat="49.44716" lon="-1.36016">
        <ele>13.6</ele>
        <time>2022-08-29T13:37:22Z</time>
      </trkpt>
      <trkpt lat="49.44721" lon="-1.3601">
        <ele>13.7</ele>
        <time>2022-08-29T13:37:27Z</time>
      </trkpt>
      <trkpt lat="49.44727" lon="-1.36003">
        <ele>14</ele>
        <time>2022-08-29T13:37:32Z</time>
      </trkpt>
      <trkpt lat="49.4473" lon="-1.35998">
        <ele>14.3</ele>
        <time>2022-08-29T13:37:36Z</time>
      </trkpt>
      <trkpt lat="49.44735" lon="-1.35993">
        <ele>14.8</ele>
        <time>2022-08-29T13:37:40Z</time>
      </trkpt>
      <trkpt lat="49.4474" lon="-1.35989">
        <ele>15.1</ele>
        <time>2022-08-29T13:37:45Z</time>
      </trkpt>
      <trkpt lat="49.44745" lon="-1.35986">
        <ele>15.1</ele>
        <time>2022-08-29T13:37:49Z</time>
      </trkpt>
      <trkpt lat="49.4475" lon="-1.35985">
        <ele>15.5</ele>
        <time>2022-08-29T13:37:52Z</time>
      </trkpt>
      <trkpt lat="49.44754" lon="-1.35983">
        <ele>15.6</ele>
        <time>2022-08-29T13:37:56Z</time>
      </trkpt>
      <trkpt lat="49.44759" lon="-1.3598">
        <ele>15.7</ele>
        <time>2022-08-29T13:38:00Z</time>
      </trkpt>
      <trkpt lat="49.44763" lon="-1.35978">
        <ele>16</ele>
        <time>2022-08-29T13:38:04Z</time>
      </trkpt>
      <trkpt lat="49.44769" lon="-1.35976">
        <ele>16.4</ele>
        <time>2022-08-29T13:38:08Z</time>
      </trkpt>
      <trkpt lat="49.44774" lon="-1.35975">
        <ele>16.6</ele>
        <time>2022-08-29T13:38:11Z</time>
      </trkpt>
      <trkpt lat="49.44779" lon="-1.35975">
        <ele>16.6</ele>
        <time>2022-08-29T13:38:15Z</time>
      </trkpt>
      <trkpt lat="49.44784" lon="-1.35974">
        <ele>17.1</ele>
        <time>2022-08-29T13:38:19Z</time>
      </trkpt>
      <trkpt lat="49.44789" lon="-1.35974">
        <ele>17.3</ele>
        <time>2022-08-29T13:38:22Z</time>
      </trkpt>
      <trkpt lat="49.44794" lon="-1.35972">
        <ele>17.4</ele>
        <time>2022-08-29T13:38:27Z</time>
      </trkpt>
      <trkpt lat="49.44799" lon="-1.35973">
        <ele>17.8</ele>
        <time>2022-08-29T13:38:31Z</time>
      </trkpt>
      <trkpt lat="49.44804" lon="-1.35974">
        <ele>18.1</ele>
        <time>2022-08-29T13:38:35Z</time>
      </trkpt>
      <trkpt lat="49.4481" lon="-1.35975">
        <ele>18.1</ele>
        <time>2022-08-29T13:38:40Z</time>
      </trkpt>
      <trkpt lat="49.44805" lon="-1.35975">
        <ele>17.9</ele>
        <time>2022-08-29T13:38:49Z</time>
      </trkpt>
      <trkpt lat="49.44799" lon="-1.35975">
        <ele>18.1</ele>
        <time>2022-08-29T13:38:53Z</time>
      </trkpt>
      <trkpt lat="49.44795" lon="-1.35977">
        <ele>18.1</ele>
        <time>2022-08-29T13:38:57Z</time>
      </trkpt>
      <trkpt lat="49.44789" lon="-1.35975">
        <ele>11.5</ele>
        <time>2022-08-29T13:39:21Z</time>
      </trkpt>
      <trkpt lat="49.44784" lon="-1.35972">
        <ele>18.5</ele>
        <time>2022-08-29T13:41:16Z</time>
      </trkpt>
      <trkpt lat="49.44778" lon="-1.35972">
        <ele>22.1</ele>
        <time>2022-08-29T13:41:43Z</time>
      </trkpt>
      <trkpt lat="49.44772" lon="-1.35971">
        <ele>21.2</ele>
        <time>2022-08-29T13:41:47Z</time>
      </trkpt>
      <trkpt lat="49.44767" lon="-1.35974">
        <ele>20.8</ele>
        <time>2022-08-29T13:41:52Z</time>
      </trkpt>
      <trkpt lat="49.44763" lon="-1.35979">
        <ele>20.3</ele>
        <time>2022-08-29T13:41:56Z</time>
      </trkpt>
      <trkpt lat="49.44759" lon="-1.35982">
        <ele>20.5</ele>
        <time>2022-08-29T13:42:00Z</time>
      </trkpt>
      <trkpt lat="49.44754" lon="-1.35984">
        <ele>19.5</ele>
        <time>2022-08-29T13:42:05Z</time>
      </trkpt>
      <trkpt lat="49.44748" lon="-1.35985">
        <ele>18.5</ele>
        <time>2022-08-29T13:42:08Z</time>
      </trkpt>
      <trkpt lat="49.44741" lon="-1.35986">
        <ele>17.6</ele>
        <time>2022-08-29T13:42:13Z</time>
      </trkpt>
      <trkpt lat="49.44737" lon="-1.35989">
        <ele>17.5</ele>
        <time>2022-08-29T13:42:16Z</time>
      </trkpt>
      <trkpt lat="49.44733" lon="-1.35993">
        <ele>17.1</ele>
        <time>2022-08-29T13:42:20Z</time>
      </trkpt>
      <trkpt lat="49.44729" lon="-1.35998">
        <ele>16.5</ele>
        <time>2022-08-29T13:42:23Z</time>
      </trkpt>
      <trkpt lat="49.44725" lon="-1.36002">
        <ele>16.6</ele>
        <time>2022-08-29T13:42:26Z</time>
      </trkpt>
      <trkpt lat="49.44721" lon="-1.36007">
        <ele>16.5</ele>
        <time>2022-08-29T13:42:30Z</time>
      </trkpt>
      <trkpt lat="49.44717" lon="-1.3601">
        <ele>16.6</ele>
        <time>2022-08-29T13:42:33Z</time>
      </trkpt>
      <trkpt lat="49.44713" lon="-1.36014">
        <ele>15.8</ele>
        <time>2022-08-29T13:42:36Z</time>
      </trkpt>
      <trkpt lat="49.44709" lon="-1.36019">
        <ele>16</ele>
        <time>2022-08-29T13:42:40Z</time>
      </trkpt>
      <trkpt lat="49.44705" lon="-1.36024">
        <ele>16.3</ele>
        <time>2022-08-29T13:42:43Z</time>
      </trkpt>
      <trkpt lat="49.447" lon="-1.36028">
        <ele>16.5</ele>
        <time>2022-08-29T13:42:48Z</time>
      </trkpt>
      <trkpt lat="49.44696" lon="-1.36032">
        <ele>16.4</ele>
        <time>2022-08-29T13:42:51Z</time>
      </trkpt>
      <trkpt lat="49.44692" lon="-1.36036">
        <ele>15.2</ele>
        <time>2022-08-29T13:42:55Z</time>
      </trkpt>
      <trkpt lat="49.44686" lon="-1.36041">
        <ele>15.3</ele>
        <time>2022-08-29T13:42:59Z</time>
      </trkpt>
      <trkpt lat="49.44682" lon="-1.36045">
        <ele>15.3</ele>
        <time>2022-08-29T13:43:03Z</time>
      </trkpt>
      <trkpt lat="49.44679" lon="-1.3605">
        <ele>15.7</ele>
        <time>2022-08-29T13:43:06Z</time>
      </trkpt>
      <trkpt lat="49.44674" lon="-1.36055">
        <ele>15.3</ele>
        <time>2022-08-29T13:43:10Z</time>
      </trkpt>
      <trkpt lat="49.44669" lon="-1.36058">
        <ele>15.3</ele>
        <time>2022-08-29T13:43:13Z</time>
      </trkpt>
      <trkpt lat="49.44664" lon="-1.36061">
        <ele>15.1</ele>
        <time>2022-08-29T13:43:16Z</time>
      </trkpt>
      <trkpt lat="49.4466" lon="-1.36064">
        <ele>15</ele>
        <time>2022-08-29T13:43:19Z</time>
      </trkpt>
      <trkpt lat="49.44655" lon="-1.36066">
        <ele>14.8</ele>
        <time>2022-08-29T13:43:23Z</time>
      </trkpt>
      <trkpt lat="49.4465" lon="-1.36068">
        <ele>14.5</ele>
        <time>2022-08-29T13:43:28Z</time>
      </trkpt>
      <trkpt lat="49.44648" lon="-1.36074">
        <ele>14.2</ele>
        <time>2022-08-29T13:43:33Z</time>
      </trkpt>
      <trkpt lat="49.44651" lon="-1.36083">
        <ele>14</ele>
        <time>2022-08-29T13:43:41Z</time>
      </trkpt>
      <trkpt lat="49.44654" lon="-1.36089">
        <ele>14.4</ele>
        <time>2022-08-29T13:43:44Z</time>
      </trkpt>
      <trkpt lat="49.44656" lon="-1.36096">
        <ele>14.4</ele>
        <time>2022-08-29T13:43:47Z</time>
      </trkpt>
      <trkpt lat="49.44657" lon="-1.36103">
        <ele>14.3</ele>
        <time>2022-08-29T13:43:50Z</time>
      </trkpt>
      <trkpt lat="49.44657" lon="-1.3611">
        <ele>12.9</ele>
        <time>2022-08-29T13:43:53Z</time>
      </trkpt>
      <trkpt lat="49.44661" lon="-1.36117">
        <ele>13.4</ele>
        <time>2022-08-29T13:43:57Z</time>
      </trkpt>
      <trkpt lat="49.44663" lon="-1.36125">
        <ele>14.7</ele>
        <time>2022-08-29T13:44:01Z</time>
      </trkpt>
      <trkpt lat="49.44667" lon="-1.36134">
        <ele>14.6</ele>
        <time>2022-08-29T13:44:06Z</time>
      </trkpt>
      <trkpt lat="49.4467" lon="-1.36139">
        <ele>13.8</ele>
        <time>2022-08-29T13:44:09Z</time>
      </trkpt>
      <trkpt lat="49.44673" lon="-1.36147">
        <ele>13.7</ele>
        <time>2022-08-29T13:44:13Z</time>
      </trkpt>
      <trkpt lat="49.44676" lon="-1.36153">
        <ele>14.8</ele>
        <time>2022-08-29T13:44:17Z</time>
      </trkpt>
      <trkpt lat="49.44678" lon="-1.36159">
        <ele>15.1</ele>
        <time>2022-08-29T13:44:21Z</time>
      </trkpt>
      <trkpt lat="49.44681" lon="-1.36165">
        <ele>15.6</ele>
        <time>2022-08-29T13:44:24Z</time>
      </trkpt>
      <trkpt lat="49.44684" lon="-1.36173">
        <ele>15.8</ele>
        <time>2022-08-29T13:44:28Z</time>
      </trkpt>
      <trkpt lat="49.44686" lon="-1.36179">
        <ele>15.8</ele>
        <time>2022-08-29T13:44:32Z</time>
      </trkpt>
      <trkpt lat="49.44688" lon="-1.36187">
        <ele>15.8</ele>
        <time>2022-08-29T13:44:36Z</time>
      </trkpt>
      <trkpt lat="49.44692" lon="-1.36193">
        <ele>15.5</ele>
        <time>2022-08-29T13:44:40Z</time>
      </trkpt>
      <trkpt lat="49.44696" lon="-1.36199">
        <ele>16.4</ele>
        <time>2022-08-29T13:44:43Z</time>
      </trkpt>
      <trkpt lat="49.44698" lon="-1.36206">
        <ele>16.8</ele>
        <time>2022-08-29T13:44:47Z</time>
      </trkpt>
      <trkpt lat="49.44701" lon="-1.36214">
        <ele>17.3</ele>
        <time>2022-08-29T13:44:52Z</time>
      </trkpt>
      <trkpt lat="49.44704" lon="-1.3622">
        <ele>17.5</ele>
        <time>2022-08-29T13:44:55Z</time>
      </trkpt>
      <trkpt lat="49.44706" lon="-1.36228">
        <ele>18.3</ele>
        <time>2022-08-29T13:45:00Z</time>
      </trkpt>
      <trkpt lat="49.44709" lon="-1.36237">
        <ele>18.2</ele>
        <time>2022-08-29T13:45:04Z</time>
      </trkpt>
      <trkpt lat="49.44712" lon="-1.36245">
        <ele>18.7</ele>
        <time>2022-08-29T13:45:08Z</time>
      </trkpt>
      <trkpt lat="49.44716" lon="-1.3625">
        <ele>18.6</ele>
        <time>2022-08-29T13:45:13Z</time>
      </trkpt>
      <trkpt lat="49.44719" lon="-1.36256">
        <ele>18.8</ele>
        <time>2022-08-29T13:45:16Z</time>
      </trkpt>
      <trkpt lat="49.44721" lon="-1.36262">
        <ele>19.1</ele>
        <time>2022-08-29T13:45:19Z</time>
      </trkpt>
      <trkpt lat="49.44723" lon="-1.36271">
        <ele>19.4</ele>
        <time>2022-08-29T13:45:24Z</time>
      </trkpt>
      <trkpt lat="49.44726" lon="-1.3628">
        <ele>19.7</ele>
        <time>2022-08-29T13:45:29Z</time>
      </trkpt>
      <trkpt lat="49.44729" lon="-1.36288">
        <ele>20.3</ele>
        <time>2022-08-29T13:45:33Z</time>
      </trkpt>
      <trkpt lat="49.44733" lon="-1.36296">
        <ele>20.2</ele>
        <time>2022-08-29T13:45:38Z</time>
      </trkpt>
      <trkpt lat="49.44736" lon="-1.36302">
        <ele>20.2</ele>
        <time>2022-08-29T13:45:43Z</time>
      </trkpt>
      <trkpt lat="49.44738" lon="-1.36309">
        <ele>20.7</ele>
        <time>2022-08-29T13:45:47Z</time>
      </trkpt>
      <trkpt lat="49.4474" lon="-1.36316">
        <ele>21.4</ele>
        <time>2022-08-29T13:45:52Z</time>
      </trkpt>
      <trkpt lat="49.44743" lon="-1.36323">
        <ele>20.4</ele>
        <time>2022-08-29T13:45:56Z</time>
      </trkpt>
      <trkpt lat="49.44746" lon="-1.36329">
        <ele>20.4</ele>
        <time>2022-08-29T13:45:59Z</time>
      </trkpt>
      <trkpt lat="49.4475" lon="-1.36336">
        <ele>22.5</ele>
        <time>2022-08-29T13:46:04Z</time>
      </trkpt>
      <trkpt lat="49.44753" lon="-1.36342">
        <ele>21.8</ele>
        <time>2022-08-29T13:46:08Z</time>
      </trkpt>
      <trkpt lat="49.44755" lon="-1.36348">
        <ele>21.7</ele>
        <time>2022-08-29T13:46:12Z</time>
      </trkpt>
      <trkpt lat="49.44757" lon="-1.36355">
        <ele>21.7</ele>
        <time>2022-08-29T13:46:16Z</time>
      </trkpt>
      <trkpt lat="49.4476" lon="-1.36362">
        <ele>21.4</ele>
        <time>2022-08-29T13:46:28Z</time>
      </trkpt>
      <trkpt lat="49.44763" lon="-1.36368">
        <ele>20.9</ele>
        <time>2022-08-29T13:46:31Z</time>
      </trkpt>
      <trkpt lat="49.44765" lon="-1.36374">
        <ele>20.8</ele>
        <time>2022-08-29T13:46:34Z</time>
      </trkpt>
      <trkpt lat="49.44768" lon="-1.3638">
        <ele>20.3</ele>
        <time>2022-08-29T13:46:37Z</time>
      </trkpt>
      <trkpt lat="49.44771" lon="-1.36387">
        <ele>20.3</ele>
        <time>2022-08-29T13:46:41Z</time>
      </trkpt>
      <trkpt lat="49.44774" lon="-1.36392">
        <ele>20.8</ele>
        <time>2022-08-29T13:46:44Z</time>
      </trkpt>
      <trkpt lat="49.44776" lon="-1.36399">
        <ele>20.9</ele>
        <time>2022-08-29T13:46:48Z</time>
      </trkpt>
      <trkpt lat="49.44777" lon="-1.36406">
        <ele>18.7</ele>
        <time>2022-08-29T13:46:53Z</time>
      </trkpt>
      <trkpt lat="49.4478" lon="-1.36412">
        <ele>18</ele>
        <time>2022-08-29T13:46:57Z</time>
      </trkpt>
      <trkpt lat="49.44778" lon="-1.36405">
        <ele>15.5</ele>
        <time>2022-08-29T13:47:05Z</time>
      </trkpt>
      <trkpt lat="49.44779" lon="-1.36397">
        <ele>14.6</ele>
        <time>2022-08-29T13:47:07Z</time>
      </trkpt>
      <trkpt lat="49.44785" lon="-1.36372">
        <ele>20</ele>
        <time>2022-08-29T13:47:14Z</time>
      </trkpt>
      <trkpt lat="49.44789" lon="-1.36376">
        <ele>17.1</ele>
        <time>2022-08-29T13:47:19Z</time>
      </trkpt>
      <trkpt lat="49.44793" lon="-1.36382">
        <ele>16.8</ele>
        <time>2022-08-29T13:47:24Z</time>
      </trkpt>
      <trkpt lat="49.44796" lon="-1.36391">
        <ele>17</ele>
        <time>2022-08-29T13:47:25Z</time>
      </trkpt>
      <trkpt lat="49.44803" lon="-1.36414">
        <ele>18</ele>
        <time>2022-08-29T13:47:27Z</time>
      </trkpt>
      <trkpt lat="49.44807" lon="-1.36427">
        <ele>19.7</ele>
        <time>2022-08-29T13:47:30Z</time>
      </trkpt>
      <trkpt lat="49.4481" lon="-1.36434">
        <ele>20.5</ele>
        <time>2022-08-29T13:47:33Z</time>
      </trkpt>
      <trkpt lat="49.44816" lon="-1.36452">
        <ele>22.1</ele>
        <time>2022-08-29T13:47:38Z</time>
      </trkpt>
      <trkpt lat="49.44818" lon="-1.36464">
        <ele>22.5</ele>
        <time>2022-08-29T13:47:41Z</time>
      </trkpt>
      <trkpt lat="49.4482" lon="-1.36471">
        <ele>22.5</ele>
        <time>2022-08-29T13:47:44Z</time>
      </trkpt>
      <trkpt lat="49.44822" lon="-1.36477">
        <ele>23</ele>
        <time>2022-08-29T13:47:46Z</time>
      </trkpt>
      <trkpt lat="49.44824" lon="-1.36485">
        <ele>23.2</ele>
        <time>2022-08-29T13:47:50Z</time>
      </trkpt>
      <trkpt lat="49.44827" lon="-1.36491">
        <ele>23.2</ele>
        <time>2022-08-29T13:47:53Z</time>
      </trkpt>
      <trkpt lat="49.4483" lon="-1.36499">
        <ele>23.5</ele>
        <time>2022-08-29T13:47:57Z</time>
      </trkpt>
      <trkpt lat="49.44834" lon="-1.36506">
        <ele>22.8</ele>
        <time>2022-08-29T13:48:01Z</time>
      </trkpt>
      <trkpt lat="49.44838" lon="-1.36512">
        <ele>22.5</ele>
        <time>2022-08-29T13:48:05Z</time>
      </trkpt>
      <trkpt lat="49.44841" lon="-1.36518">
        <ele>22.7</ele>
        <time>2022-08-29T13:48:08Z</time>
      </trkpt>
      <trkpt lat="49.44845" lon="-1.36524">
        <ele>21.8</ele>
        <time>2022-08-29T13:48:13Z</time>
      </trkpt>
      <trkpt lat="49.44848" lon="-1.36529">
        <ele>21.4</ele>
        <time>2022-08-29T13:48:17Z</time>
      </trkpt>
      <trkpt lat="49.44851" lon="-1.36534">
        <ele>21.5</ele>
        <time>2022-08-29T13:48:21Z</time>
      </trkpt>
      <trkpt lat="49.44855" lon="-1.3654">
        <ele>21.1</ele>
        <time>2022-08-29T13:48:25Z</time>
      </trkpt>
      <trkpt lat="49.4486" lon="-1.36543">
        <ele>21</ele>
        <time>2022-08-29T13:48:28Z</time>
      </trkpt>
      <trkpt lat="49.44864" lon="-1.36547">
        <ele>21</ele>
        <time>2022-08-29T13:48:33Z</time>
      </trkpt>
      <trkpt lat="49.44869" lon="-1.36547">
        <ele>20.9</ele>
        <time>2022-08-29T13:48:37Z</time>
      </trkpt>
      <trkpt lat="49.44874" lon="-1.36545">
        <ele>20.6</ele>
        <time>2022-08-29T13:48:42Z</time>
      </trkpt>
      <trkpt lat="49.4488" lon="-1.36546">
        <ele>20.3</ele>
        <time>2022-08-29T13:48:46Z</time>
      </trkpt>
      <trkpt lat="49.44884" lon="-1.36548">
        <ele>20.1</ele>
        <time>2022-08-29T13:48:49Z</time>
      </trkpt>
      <trkpt lat="49.4489" lon="-1.3655">
        <ele>20.1</ele>
        <time>2022-08-29T13:48:53Z</time>
      </trkpt>
      <trkpt lat="49.44895" lon="-1.3655">
        <ele>19.4</ele>
        <time>2022-08-29T13:48:57Z</time>
      </trkpt>
      <trkpt lat="49.449" lon="-1.3655">
        <ele>20</ele>
        <time>2022-08-29T13:49:01Z</time>
      </trkpt>
      <trkpt lat="49.44904" lon="-1.36548">
        <ele>20</ele>
        <time>2022-08-29T13:49:05Z</time>
      </trkpt>
      <trkpt lat="49.44909" lon="-1.36547">
        <ele>19.8</ele>
        <time>2022-08-29T13:49:08Z</time>
      </trkpt>
      <trkpt lat="49.44914" lon="-1.36546">
        <ele>20.2</ele>
        <time>2022-08-29T13:49:12Z</time>
      </trkpt>
      <trkpt lat="49.4492" lon="-1.36546">
        <ele>20</ele>
        <time>2022-08-29T13:49:17Z</time>
      </trkpt>
      <trkpt lat="49.44924" lon="-1.36546">
        <ele>19.9</ele>
        <time>2022-08-29T13:49:20Z</time>
      </trkpt>
      <trkpt lat="49.44929" lon="-1.36543">
        <ele>19.6</ele>
        <time>2022-08-29T13:49:24Z</time>
      </trkpt>
      <trkpt lat="49.44933" lon="-1.36541">
        <ele>19.2</ele>
        <time>2022-08-29T13:49:29Z</time>
      </trkpt>
      <trkpt lat="49.44938" lon="-1.36539">
        <ele>20</ele>
        <time>2022-08-29T13:49:34Z</time>
      </trkpt>
      <trkpt lat="49.44942" lon="-1.36538">
        <ele>20</ele>
        <time>2022-08-29T13:49:38Z</time>
      </trkpt>
      <trkpt lat="49.44948" lon="-1.36538">
        <ele>18.7</ele>
        <time>2022-08-29T13:49:44Z</time>
      </trkpt>
      <trkpt lat="49.44954" lon="-1.36539">
        <ele>18.2</ele>
        <time>2022-08-29T13:49:48Z</time>
      </trkpt>
      <trkpt lat="49.44959" lon="-1.36539">
        <ele>17.5</ele>
        <time>2022-08-29T13:49:53Z</time>
      </trkpt>
      <trkpt lat="49.44966" lon="-1.36538">
        <ele>17.5</ele>
        <time>2022-08-29T13:49:58Z</time>
      </trkpt>
      <trkpt lat="49.4497" lon="-1.36535">
        <ele>17</ele>
        <time>2022-08-29T13:50:02Z</time>
      </trkpt>
      <trkpt lat="49.44976" lon="-1.36536">
        <ele>17.3</ele>
        <time>2022-08-29T13:50:06Z</time>
      </trkpt>
      <trkpt lat="49.44982" lon="-1.36533">
        <ele>17.4</ele>
        <time>2022-08-29T13:50:10Z</time>
      </trkpt>
      <trkpt lat="49.44987" lon="-1.3653">
        <ele>17.7</ele>
        <time>2022-08-29T13:50:13Z</time>
      </trkpt>
      <trkpt lat="49.44991" lon="-1.36526">
        <ele>17.2</ele>
        <time>2022-08-29T13:50:17Z</time>
      </trkpt>
      <trkpt lat="49.44996" lon="-1.36523">
        <ele>17</ele>
        <time>2022-08-29T13:50:22Z</time>
      </trkpt>
      <trkpt lat="49.45001" lon="-1.36518">
        <ele>17.7</ele>
        <time>2022-08-29T13:50:28Z</time>
      </trkpt>
      <trkpt lat="49.45007" lon="-1.36515">
        <ele>17.2</ele>
        <time>2022-08-29T13:50:34Z</time>
      </trkpt>
      <trkpt lat="49.45012" lon="-1.36515">
        <ele>17.5</ele>
        <time>2022-08-29T13:50:38Z</time>
      </trkpt>
      <trkpt lat="49.45017" lon="-1.36515">
        <ele>17.3</ele>
        <time>2022-08-29T13:50:42Z</time>
      </trkpt>
      <trkpt lat="49.45022" lon="-1.36516">
        <ele>16.8</ele>
        <time>2022-08-29T13:50:46Z</time>
      </trkpt>
      <trkpt lat="49.45028" lon="-1.36516">
        <ele>17.4</ele>
        <time>2022-08-29T13:50:50Z</time>
      </trkpt>
      <trkpt lat="49.45033" lon="-1.36518">
        <ele>16.7</ele>
        <time>2022-08-29T13:50:54Z</time>
      </trkpt>
      <trkpt lat="49.45038" lon="-1.3652">
        <ele>16.2</ele>
        <time>2022-08-29T13:50:59Z</time>
      </trkpt>
      <trkpt lat="49.45043" lon="-1.36522">
        <ele>16</ele>
        <time>2022-08-29T13:51:04Z</time>
      </trkpt>
      <trkpt lat="49.45047" lon="-1.36524">
        <ele>15.8</ele>
        <time>2022-08-29T13:51:08Z</time>
      </trkpt>
      <trkpt lat="49.45052" lon="-1.36526">
        <ele>15.4</ele>
        <time>2022-08-29T13:51:12Z</time>
      </trkpt>
      <trkpt lat="49.45057" lon="-1.36528">
        <ele>15</ele>
        <time>2022-08-29T13:51:16Z</time>
      </trkpt>
      <trkpt lat="49.45062" lon="-1.36528">
        <ele>14.5</ele>
        <time>2022-08-29T13:51:19Z</time>
      </trkpt>
      <trkpt lat="49.45066" lon="-1.36527">
        <ele>14.3</ele>
        <time>2022-08-29T13:51:23Z</time>
      </trkpt>
      <trkpt lat="49.45071" lon="-1.36528">
        <ele>14.2</ele>
        <time>2022-08-29T13:51:27Z</time>
      </trkpt>
      <trkpt lat="49.45076" lon="-1.3653">
        <ele>14.2</ele>
        <time>2022-08-29T13:51:31Z</time>
      </trkpt>
      <trkpt lat="49.45081" lon="-1.36526">
        <ele>13.8</ele>
        <time>2022-08-29T13:51:36Z</time>
      </trkpt>
      <trkpt lat="49.45086" lon="-1.36526">
        <ele>14.5</ele>
        <time>2022-08-29T13:51:40Z</time>
      </trkpt>
      <trkpt lat="49.4509" lon="-1.36529">
        <ele>13.5</ele>
        <time>2022-08-29T13:51:46Z</time>
      </trkpt>
      <trkpt lat="49.45095" lon="-1.36529">
        <ele>13.7</ele>
        <time>2022-08-29T13:51:50Z</time>
      </trkpt>
      <trkpt lat="49.45101" lon="-1.3653">
        <ele>15</ele>
        <time>2022-08-29T13:51:54Z</time>
      </trkpt>
      <trkpt lat="49.45106" lon="-1.36531">
        <ele>14.7</ele>
        <time>2022-08-29T13:51:59Z</time>
      </trkpt>
      <trkpt lat="49.45112" lon="-1.36532">
        <ele>14</ele>
        <time>2022-08-29T13:52:06Z</time>
      </trkpt>
      <trkpt lat="49.45117" lon="-1.36531">
        <ele>14</ele>
        <time>2022-08-29T13:52:10Z</time>
      </trkpt>
      <trkpt lat="49.45122" lon="-1.36533">
        <ele>14</ele>
        <time>2022-08-29T13:52:16Z</time>
      </trkpt>
      <trkpt lat="49.45127" lon="-1.36535">
        <ele>13.1</ele>
        <time>2022-08-29T13:52:19Z</time>
      </trkpt>
      <trkpt lat="49.45132" lon="-1.36536">
        <ele>13.5</ele>
        <time>2022-08-29T13:52:23Z</time>
      </trkpt>
      <trkpt lat="49.45136" lon="-1.36539">
        <ele>12.7</ele>
        <time>2022-08-29T13:52:26Z</time>
      </trkpt>
      <trkpt lat="49.4514" lon="-1.36544">
        <ele>12.5</ele>
        <time>2022-08-29T13:52:30Z</time>
      </trkpt>
      <trkpt lat="49.45144" lon="-1.36549">
        <ele>12</ele>
        <time>2022-08-29T13:52:34Z</time>
      </trkpt>
      <trkpt lat="49.45147" lon="-1.36554">
        <ele>11.9</ele>
        <time>2022-08-29T13:52:37Z</time>
      </trkpt>
      <trkpt lat="49.45153" lon="-1.36556">
        <ele>12</ele>
        <time>2022-08-29T13:52:42Z</time>
      </trkpt>
      <trkpt lat="49.45158" lon="-1.36554">
        <ele>13.5</ele>
        <time>2022-08-29T13:52:45Z</time>
      </trkpt>
      <trkpt lat="49.45162" lon="-1.3655">
        <ele>13</ele>
        <time>2022-08-29T13:52:50Z</time>
      </trkpt>
      <trkpt lat="49.45166" lon="-1.36541">
        <ele>13.3</ele>
        <time>2022-08-29T13:52:54Z</time>
      </trkpt>
      <trkpt lat="49.45168" lon="-1.36532">
        <ele>13.3</ele>
        <time>2022-08-29T13:52:57Z</time>
      </trkpt>
      <trkpt lat="49.45171" lon="-1.36526">
        <ele>14.2</ele>
        <time>2022-08-29T13:53:00Z</time>
      </trkpt>
      <trkpt lat="49.45174" lon="-1.3652">
        <ele>14.6</ele>
        <time>2022-08-29T13:53:04Z</time>
      </trkpt>
      <trkpt lat="49.45177" lon="-1.36513">
        <ele>14.4</ele>
        <time>2022-08-29T13:53:08Z</time>
      </trkpt>
      <trkpt lat="49.4518" lon="-1.36507">
        <ele>14.5</ele>
        <time>2022-08-29T13:53:12Z</time>
      </trkpt>
      <trkpt lat="49.45183" lon="-1.36502">
        <ele>14.4</ele>
        <time>2022-08-29T13:53:15Z</time>
      </trkpt>
      <trkpt lat="49.45187" lon="-1.36496">
        <ele>15</ele>
        <time>2022-08-29T13:53:20Z</time>
      </trkpt>
      <trkpt lat="49.45191" lon="-1.3649">
        <ele>15.1</ele>
        <time>2022-08-29T13:53:23Z</time>
      </trkpt>
      <trkpt lat="49.45195" lon="-1.36485">
        <ele>14.8</ele>
        <time>2022-08-29T13:53:28Z</time>
      </trkpt>
      <trkpt lat="49.45199" lon="-1.3648">
        <ele>14.8</ele>
        <time>2022-08-29T13:53:32Z</time>
      </trkpt>
      <trkpt lat="49.45203" lon="-1.36474">
        <ele>15.6</ele>
        <time>2022-08-29T13:53:36Z</time>
      </trkpt>
      <trkpt lat="49.45206" lon="-1.36468">
        <ele>15.4</ele>
        <time>2022-08-29T13:53:40Z</time>
      </trkpt>
      <trkpt lat="49.4521" lon="-1.36464">
        <ele>15.4</ele>
        <time>2022-08-29T13:53:43Z</time>
      </trkpt>
      <trkpt lat="49.45213" lon="-1.36457">
        <ele>15.7</ele>
        <time>2022-08-29T13:53:48Z</time>
      </trkpt>
      <trkpt lat="49.45219" lon="-1.36449">
        <ele>16.4</ele>
        <time>2022-08-29T13:53:53Z</time>
      </trkpt>
      <trkpt lat="49.45224" lon="-1.36444">
        <ele>16.8</ele>
        <time>2022-08-29T13:53:58Z</time>
      </trkpt>
      <trkpt lat="49.4523" lon="-1.36441">
        <ele>16.2</ele>
        <time>2022-08-29T13:54:03Z</time>
      </trkpt>
      <trkpt lat="49.45233" lon="-1.36433">
        <ele>16.5</ele>
        <time>2022-08-29T13:54:08Z</time>
      </trkpt>
      <trkpt lat="49.45237" lon="-1.36426">
        <ele>16.9</ele>
        <time>2022-08-29T13:54:12Z</time>
      </trkpt>
      <trkpt lat="49.45241" lon="-1.36421">
        <ele>16.7</ele>
        <time>2022-08-29T13:54:16Z</time>
      </trkpt>
      <trkpt lat="49.45246" lon="-1.36416">
        <ele>16.4</ele>
        <time>2022-08-29T13:54:19Z</time>
      </trkpt>
      <trkpt lat="49.45251" lon="-1.36412">
        <ele>16</ele>
        <time>2022-08-29T13:54:23Z</time>
      </trkpt>
      <trkpt lat="49.45255" lon="-1.36407">
        <ele>15</ele>
        <time>2022-08-29T13:54:27Z</time>
      </trkpt>
      <trkpt lat="49.45259" lon="-1.36402">
        <ele>15.1</ele>
        <time>2022-08-29T13:54:30Z</time>
      </trkpt>
      <trkpt lat="49.45262" lon="-1.36397">
        <ele>15.2</ele>
        <time>2022-08-29T13:54:33Z</time>
      </trkpt>
      <trkpt lat="49.45267" lon="-1.3639">
        <ele>14.5</ele>
        <time>2022-08-29T13:54:38Z</time>
      </trkpt>
      <trkpt lat="49.45271" lon="-1.36385">
        <ele>14.4</ele>
        <time>2022-08-29T13:54:42Z</time>
      </trkpt>
      <trkpt lat="49.45276" lon="-1.3638">
        <ele>15</ele>
        <time>2022-08-29T13:54:47Z</time>
      </trkpt>
      <trkpt lat="49.4528" lon="-1.36375">
        <ele>14.8</ele>
        <time>2022-08-29T13:54:51Z</time>
      </trkpt>
      <trkpt lat="49.45285" lon="-1.36373">
        <ele>15</ele>
        <time>2022-08-29T13:54:55Z</time>
      </trkpt>
      <trkpt lat="49.45289" lon="-1.36369">
        <ele>14.9</ele>
        <time>2022-08-29T13:54:59Z</time>
      </trkpt>
      <trkpt lat="49.45293" lon="-1.36365">
        <ele>14.5</ele>
        <time>2022-08-29T13:55:03Z</time>
      </trkpt>
      <trkpt lat="49.45297" lon="-1.3636">
        <ele>14</ele>
        <time>2022-08-29T13:55:06Z</time>
      </trkpt>
      <trkpt lat="49.45302" lon="-1.36355">
        <ele>14.5</ele>
        <time>2022-08-29T13:55:10Z</time>
      </trkpt>
      <trkpt lat="49.45306" lon="-1.36351">
        <ele>14.6</ele>
        <time>2022-08-29T13:55:13Z</time>
      </trkpt>
      <trkpt lat="49.45311" lon="-1.36348">
        <ele>14.1</ele>
        <time>2022-08-29T13:55:17Z</time>
      </trkpt>
      <trkpt lat="49.45315" lon="-1.36343">
        <ele>14</ele>
        <time>2022-08-29T13:55:21Z</time>
      </trkpt>
      <trkpt lat="49.4532" lon="-1.3634">
        <ele>13.8</ele>
        <time>2022-08-29T13:55:25Z</time>
      </trkpt>
      <trkpt lat="49.45324" lon="-1.36336">
        <ele>14.7</ele>
        <time>2022-08-29T13:55:28Z</time>
      </trkpt>
      <trkpt lat="49.45328" lon="-1.36332">
        <ele>14.2</ele>
        <time>2022-08-29T13:55:32Z</time>
      </trkpt>
      <trkpt lat="49.45333" lon="-1.36329">
        <ele>14.1</ele>
        <time>2022-08-29T13:55:36Z</time>
      </trkpt>
      <trkpt lat="49.45339" lon="-1.36326">
        <ele>14</ele>
        <time>2022-08-29T13:55:40Z</time>
      </trkpt>
      <trkpt lat="49.45343" lon="-1.36321">
        <ele>13.9</ele>
        <time>2022-08-29T13:55:44Z</time>
      </trkpt>
      <trkpt lat="49.45347" lon="-1.36315">
        <ele>13.4</ele>
        <time>2022-08-29T13:55:48Z</time>
      </trkpt>
      <trkpt lat="49.45351" lon="-1.36309">
        <ele>13.5</ele>
        <time>2022-08-29T13:55:52Z</time>
      </trkpt>
      <trkpt lat="49.45354" lon="-1.36303">
        <ele>13.1</ele>
        <time>2022-08-29T13:55:55Z</time>
      </trkpt>
      <trkpt lat="49.45357" lon="-1.36298">
        <ele>12.5</ele>
        <time>2022-08-29T13:55:59Z</time>
      </trkpt>
      <trkpt lat="49.45361" lon="-1.36293">
        <ele>12.6</ele>
        <time>2022-08-29T13:56:02Z</time>
      </trkpt>
      <trkpt lat="49.45365" lon="-1.36287">
        <ele>13.1</ele>
        <time>2022-08-29T13:56:06Z</time>
      </trkpt>
      <trkpt lat="49.45369" lon="-1.36282">
        <ele>12.8</ele>
        <time>2022-08-29T13:56:10Z</time>
      </trkpt>
      <trkpt lat="49.45371" lon="-1.36276">
        <ele>12.8</ele>
        <time>2022-08-29T13:56:13Z</time>
      </trkpt>
      <trkpt lat="49.45375" lon="-1.3627">
        <ele>12.3</ele>
        <time>2022-08-29T13:56:18Z</time>
      </trkpt>
      <trkpt lat="49.45379" lon="-1.36263">
        <ele>12.7</ele>
        <time>2022-08-29T13:56:21Z</time>
      </trkpt>
      <trkpt lat="49.45382" lon="-1.36257">
        <ele>12.1</ele>
        <time>2022-08-29T13:56:25Z</time>
      </trkpt>
      <trkpt lat="49.45384" lon="-1.3625">
        <ele>12.2</ele>
        <time>2022-08-29T13:56:29Z</time>
      </trkpt>
      <trkpt lat="49.45387" lon="-1.36243">
        <ele>12.8</ele>
        <time>2022-08-29T13:56:34Z</time>
      </trkpt>
      <trkpt lat="49.45388" lon="-1.36236">
        <ele>12.3</ele>
        <time>2022-08-29T13:56:37Z</time>
      </trkpt>
      <trkpt lat="49.45391" lon="-1.36228">
        <ele>12.5</ele>
        <time>2022-08-29T13:56:41Z</time>
      </trkpt>
      <trkpt lat="49.45395" lon="-1.36219">
        <ele>12.7</ele>
        <time>2022-08-29T13:56:46Z</time>
      </trkpt>
      <trkpt lat="49.45398" lon="-1.3621">
        <ele>12.5</ele>
        <time>2022-08-29T13:56:51Z</time>
      </trkpt>
      <trkpt lat="49.45402" lon="-1.36202">
        <ele>12.4</ele>
        <time>2022-08-29T13:56:56Z</time>
      </trkpt>
      <trkpt lat="49.45405" lon="-1.36194">
        <ele>13.2</ele>
        <time>2022-08-29T13:57:02Z</time>
      </trkpt>
      <trkpt lat="49.45405" lon="-1.36186">
        <ele>13.3</ele>
        <time>2022-08-29T13:57:05Z</time>
      </trkpt>
      <trkpt lat="49.45406" lon="-1.36177">
        <ele>14.1</ele>
        <time>2022-08-29T13:57:10Z</time>
      </trkpt>
      <trkpt lat="49.45408" lon="-1.3617">
        <ele>15</ele>
        <time>2022-08-29T13:57:14Z</time>
      </trkpt>
      <trkpt lat="49.45409" lon="-1.36162">
        <ele>15.2</ele>
        <time>2022-08-29T13:57:18Z</time>
      </trkpt>
      <trkpt lat="49.4541" lon="-1.36155">
        <ele>14.7</ele>
        <time>2022-08-29T13:57:30Z</time>
      </trkpt>
      <trkpt lat="49.45412" lon="-1.36148">
        <ele>14.7</ele>
        <time>2022-08-29T13:57:34Z</time>
      </trkpt>
      <trkpt lat="49.45414" lon="-1.36142">
        <ele>15.1</ele>
        <time>2022-08-29T13:57:38Z</time>
      </trkpt>
      <trkpt lat="49.45415" lon="-1.36133">
        <ele>15.4</ele>
        <time>2022-08-29T13:57:43Z</time>
      </trkpt>
      <trkpt lat="49.45419" lon="-1.36125">
        <ele>15.6</ele>
        <time>2022-08-29T13:57:48Z</time>
      </trkpt>
      <trkpt lat="49.45421" lon="-1.36119">
        <ele>15.8</ele>
        <time>2022-08-29T13:57:53Z</time>
      </trkpt>
      <trkpt lat="49.45424" lon="-1.36112">
        <ele>16.8</ele>
        <time>2022-08-29T13:57:56Z</time>
      </trkpt>
      <trkpt lat="49.45423" lon="-1.36103">
        <ele>16.4</ele>
        <time>2022-08-29T13:58:02Z</time>
      </trkpt>
      <trkpt lat="49.45424" lon="-1.36097">
        <ele>16.6</ele>
        <time>2022-08-29T13:58:06Z</time>
      </trkpt>
      <trkpt lat="49.45428" lon="-1.36089">
        <ele>16.1</ele>
        <time>2022-08-29T13:58:16Z</time>
      </trkpt>
      <trkpt lat="49.45431" lon="-1.36084">
        <ele>16.1</ele>
        <time>2022-08-29T13:58:18Z</time>
      </trkpt>
      <trkpt lat="49.4544" lon="-1.36067">
        <ele>16.5</ele>
        <time>2022-08-29T13:58:25Z</time>
      </trkpt>
      <trkpt lat="49.45443" lon="-1.36061">
        <ele>16.2</ele>
        <time>2022-08-29T13:58:28Z</time>
      </trkpt>
      <trkpt lat="49.45446" lon="-1.36054">
        <ele>16.6</ele>
        <time>2022-08-29T13:58:32Z</time>
      </trkpt>
      <trkpt lat="49.4545" lon="-1.36046">
        <ele>16.7</ele>
        <time>2022-08-29T13:58:36Z</time>
      </trkpt>
      <trkpt lat="49.45455" lon="-1.3604">
        <ele>17.1</ele>
        <time>2022-08-29T13:58:41Z</time>
      </trkpt>
      <trkpt lat="49.4546" lon="-1.36041">
        <ele>16.7</ele>
        <time>2022-08-29T13:58:45Z</time>
      </trkpt>
      <trkpt lat="49.45465" lon="-1.36046">
        <ele>16.2</ele>
        <time>2022-08-29T13:58:48Z</time>
      </trkpt>
      <trkpt lat="49.45469" lon="-1.3605">
        <ele>16.2</ele>
        <time>2022-08-29T13:58:53Z</time>
      </trkpt>
      <trkpt lat="49.45474" lon="-1.36054">
        <ele>17</ele>
        <time>2022-08-29T13:58:58Z</time>
      </trkpt>
      <trkpt lat="49.45481" lon="-1.36054">
        <ele>17.5</ele>
        <time>2022-08-29T13:59:02Z</time>
      </trkpt>
      <trkpt lat="49.45487" lon="-1.36055">
        <ele>17.8</ele>
        <time>2022-08-29T13:59:05Z</time>
      </trkpt>
      <trkpt lat="49.45491" lon="-1.36058">
        <ele>18.3</ele>
        <time>2022-08-29T13:59:08Z</time>
      </trkpt>
      <trkpt lat="49.45496" lon="-1.36061">
        <ele>18.5</ele>
        <time>2022-08-29T13:59:12Z</time>
      </trkpt>
      <trkpt lat="49.455" lon="-1.36067">
        <ele>19</ele>
        <time>2022-08-29T13:59:16Z</time>
      </trkpt>
      <trkpt lat="49.45504" lon="-1.36071">
        <ele>19</ele>
        <time>2022-08-29T13:59:20Z</time>
      </trkpt>
      <trkpt lat="49.45509" lon="-1.36073">
        <ele>19</ele>
        <time>2022-08-29T13:59:24Z</time>
      </trkpt>
      <trkpt lat="49.45512" lon="-1.36079">
        <ele>19.2</ele>
        <time>2022-08-29T13:59:29Z</time>
      </trkpt>
      <trkpt lat="49.45517" lon="-1.3608">
        <ele>18.8</ele>
        <time>2022-08-29T13:59:33Z</time>
      </trkpt>
      <trkpt lat="49.45522" lon="-1.36083">
        <ele>18.9</ele>
        <time>2022-08-29T13:59:36Z</time>
      </trkpt>
      <trkpt lat="49.45526" lon="-1.36086">
        <ele>18.8</ele>
        <time>2022-08-29T13:59:39Z</time>
      </trkpt>
      <trkpt lat="49.45531" lon="-1.36087">
        <ele>19.6</ele>
        <time>2022-08-29T13:59:43Z</time>
      </trkpt>
      <trkpt lat="49.45535" lon="-1.36093">
        <ele>19.8</ele>
        <time>2022-08-29T13:59:47Z</time>
      </trkpt>
      <trkpt lat="49.45539" lon="-1.36098">
        <ele>19.6</ele>
        <time>2022-08-29T13:59:51Z</time>
      </trkpt>
      <trkpt lat="49.45545" lon="-1.36099">
        <ele>19.1</ele>
        <time>2022-08-29T13:59:55Z</time>
      </trkpt>
      <trkpt lat="49.4555" lon="-1.36101">
        <ele>19</ele>
        <time>2022-08-29T13:59:59Z</time>
      </trkpt>
      <trkpt lat="49.45557" lon="-1.36102">
        <ele>18.8</ele>
        <time>2022-08-29T14:00:04Z</time>
      </trkpt>
      <trkpt lat="49.45562" lon="-1.36101">
        <ele>18.5</ele>
        <time>2022-08-29T14:00:10Z</time>
      </trkpt>
      <trkpt lat="49.45566" lon="-1.36104">
        <ele>18.5</ele>
        <time>2022-08-29T14:00:13Z</time>
      </trkpt>
      <trkpt lat="49.45572" lon="-1.36105">
        <ele>18.4</ele>
        <time>2022-08-29T14:00:17Z</time>
      </trkpt>
      <trkpt lat="49.45577" lon="-1.36104">
        <ele>17.9</ele>
        <time>2022-08-29T14:00:22Z</time>
      </trkpt>
      <trkpt lat="49.45582" lon="-1.36106">
        <ele>17.3</ele>
        <time>2022-08-29T14:00:25Z</time>
      </trkpt>
      <trkpt lat="49.45588" lon="-1.36108">
        <ele>17.1</ele>
        <time>2022-08-29T14:00:30Z</time>
      </trkpt>
      <trkpt lat="49.45593" lon="-1.36112">
        <ele>16.8</ele>
        <time>2022-08-29T14:00:33Z</time>
      </trkpt>
      <trkpt lat="49.45597" lon="-1.36116">
        <ele>15.8</ele>
        <time>2022-08-29T14:00:36Z</time>
      </trkpt>
      <trkpt lat="49.45603" lon="-1.36118">
        <ele>15.5</ele>
        <time>2022-08-29T14:00:40Z</time>
      </trkpt>
      <trkpt lat="49.45608" lon="-1.3612">
        <ele>15.1</ele>
        <time>2022-08-29T14:00:43Z</time>
      </trkpt>
      <trkpt lat="49.45613" lon="-1.36123">
        <ele>14.6</ele>
        <time>2022-08-29T14:00:47Z</time>
      </trkpt>
      <trkpt lat="49.45618" lon="-1.36124">
        <ele>13.8</ele>
        <time>2022-08-29T14:00:50Z</time>
      </trkpt>
      <trkpt lat="49.45623" lon="-1.36127">
        <ele>13.9</ele>
        <time>2022-08-29T14:00:54Z</time>
      </trkpt>
      <trkpt lat="49.45627" lon="-1.36128">
        <ele>14.1</ele>
        <time>2022-08-29T14:00:57Z</time>
      </trkpt>
      <trkpt lat="49.45633" lon="-1.3613">
        <ele>13.9</ele>
        <time>2022-08-29T14:01:01Z</time>
      </trkpt>
      <trkpt lat="49.45638" lon="-1.36132">
        <ele>13.8</ele>
        <time>2022-08-29T14:01:05Z</time>
      </trkpt>
      <trkpt lat="49.45644" lon="-1.36133">
        <ele>13.5</ele>
        <time>2022-08-29T14:01:09Z</time>
      </trkpt>
      <trkpt lat="49.45649" lon="-1.36134">
        <ele>13.1</ele>
        <time>2022-08-29T14:01:13Z</time>
      </trkpt>
      <trkpt lat="49.45653" lon="-1.36135">
        <ele>13.5</ele>
        <time>2022-08-29T14:01:16Z</time>
      </trkpt>
      <trkpt lat="49.45658" lon="-1.36136">
        <ele>13.2</ele>
        <time>2022-08-29T14:01:20Z</time>
      </trkpt>
      <trkpt lat="49.45664" lon="-1.36138">
        <ele>13.2</ele>
        <time>2022-08-29T14:01:24Z</time>
      </trkpt>
      <trkpt lat="49.4567" lon="-1.3614">
        <ele>13.4</ele>
        <time>2022-08-29T14:01:28Z</time>
      </trkpt>
      <trkpt lat="49.45676" lon="-1.36139">
        <ele>13.5</ele>
        <time>2022-08-29T14:01:33Z</time>
      </trkpt>
      <trkpt lat="49.45681" lon="-1.3614">
        <ele>13.3</ele>
        <time>2022-08-29T14:01:36Z</time>
      </trkpt>
      <trkpt lat="49.45686" lon="-1.36141">
        <ele>13.7</ele>
        <time>2022-08-29T14:01:39Z</time>
      </trkpt>
      <trkpt lat="49.45691" lon="-1.36143">
        <ele>13.7</ele>
        <time>2022-08-29T14:01:43Z</time>
      </trkpt>
      <trkpt lat="49.45696" lon="-1.36145">
        <ele>13.9</ele>
        <time>2022-08-29T14:01:46Z</time>
      </trkpt>
      <trkpt lat="49.45701" lon="-1.36145">
        <ele>13.5</ele>
        <time>2022-08-29T14:01:50Z</time>
      </trkpt>
      <trkpt lat="49.45706" lon="-1.36144">
        <ele>13.6</ele>
        <time>2022-08-29T14:01:54Z</time>
      </trkpt>
      <trkpt lat="49.4571" lon="-1.36144">
        <ele>13.3</ele>
        <time>2022-08-29T14:01:57Z</time>
      </trkpt>
      <trkpt lat="49.45715" lon="-1.36143">
        <ele>13</ele>
        <time>2022-08-29T14:02:00Z</time>
      </trkpt>
      <trkpt lat="49.45721" lon="-1.36143">
        <ele>12.8</ele>
        <time>2022-08-29T14:02:04Z</time>
      </trkpt>
      <trkpt lat="49.45726" lon="-1.36145">
        <ele>12.5</ele>
        <time>2022-08-29T14:02:08Z</time>
      </trkpt>
      <trkpt lat="49.45731" lon="-1.36148">
        <ele>12.3</ele>
        <time>2022-08-29T14:02:12Z</time>
      </trkpt>
      <trkpt lat="49.45735" lon="-1.3615">
        <ele>11.7</ele>
        <time>2022-08-29T14:02:15Z</time>
      </trkpt>
      <trkpt lat="49.45741" lon="-1.36152">
        <ele>12.3</ele>
        <time>2022-08-29T14:02:19Z</time>
      </trkpt>
      <trkpt lat="49.45747" lon="-1.36155">
        <ele>12.2</ele>
        <time>2022-08-29T14:02:23Z</time>
      </trkpt>
      <trkpt lat="49.45752" lon="-1.36157">
        <ele>11.5</ele>
        <time>2022-08-29T14:02:27Z</time>
      </trkpt>
      <trkpt lat="49.45757" lon="-1.3616">
        <ele>10.4</ele>
        <time>2022-08-29T14:02:31Z</time>
      </trkpt>
      <trkpt lat="49.45761" lon="-1.36161">
        <ele>10.3</ele>
        <time>2022-08-29T14:02:35Z</time>
      </trkpt>
      <trkpt lat="49.45767" lon="-1.36165">
        <ele>10.6</ele>
        <time>2022-08-29T14:02:39Z</time>
      </trkpt>
      <trkpt lat="49.45772" lon="-1.36167">
        <ele>10.2</ele>
        <time>2022-08-29T14:02:43Z</time>
      </trkpt>
      <trkpt lat="49.45777" lon="-1.36169">
        <ele>10.5</ele>
        <time>2022-08-29T14:02:46Z</time>
      </trkpt>
      <trkpt lat="49.45782" lon="-1.36172">
        <ele>10.2</ele>
        <time>2022-08-29T14:02:50Z</time>
      </trkpt>
      <trkpt lat="49.45787" lon="-1.36174">
        <ele>10.4</ele>
        <time>2022-08-29T14:02:54Z</time>
      </trkpt>
      <trkpt lat="49.45792" lon="-1.36174">
        <ele>9.8</ele>
        <time>2022-08-29T14:02:57Z</time>
      </trkpt>
      <trkpt lat="49.45798" lon="-1.36174">
        <ele>10.8</ele>
        <time>2022-08-29T14:03:02Z</time>
      </trkpt>
      <trkpt lat="49.45803" lon="-1.36175">
        <ele>10.7</ele>
        <time>2022-08-29T14:03:05Z</time>
      </trkpt>
      <trkpt lat="49.45809" lon="-1.36174">
        <ele>10.3</ele>
        <time>2022-08-29T14:03:09Z</time>
      </trkpt>
      <trkpt lat="49.45815" lon="-1.36172">
        <ele>11</ele>
        <time>2022-08-29T14:03:13Z</time>
      </trkpt>
      <trkpt lat="49.4582" lon="-1.36173">
        <ele>10.7</ele>
        <time>2022-08-29T14:03:17Z</time>
      </trkpt>
      <trkpt lat="49.45825" lon="-1.36176">
        <ele>10.4</ele>
        <time>2022-08-29T14:03:21Z</time>
      </trkpt>
      <trkpt lat="49.45829" lon="-1.36176">
        <ele>11</ele>
        <time>2022-08-29T14:03:25Z</time>
      </trkpt>
      <trkpt lat="49.45834" lon="-1.36177">
        <ele>10.3</ele>
        <time>2022-08-29T14:03:35Z</time>
      </trkpt>
      <trkpt lat="49.45838" lon="-1.3618">
        <ele>12.8</ele>
        <time>2022-08-29T14:03:39Z</time>
      </trkpt>
      <trkpt lat="49.45845" lon="-1.36179">
        <ele>12.5</ele>
        <time>2022-08-29T14:04:08Z</time>
      </trkpt>
      <trkpt lat="49.45851" lon="-1.3618">
        <ele>12.7</ele>
        <time>2022-08-29T14:04:12Z</time>
      </trkpt>
      <trkpt lat="49.45857" lon="-1.36179">
        <ele>12.9</ele>
        <time>2022-08-29T14:04:15Z</time>
      </trkpt>
      <trkpt lat="49.45863" lon="-1.36178">
        <ele>12.5</ele>
        <time>2022-08-29T14:04:19Z</time>
      </trkpt>
      <trkpt lat="49.45869" lon="-1.36178">
        <ele>12.7</ele>
        <time>2022-08-29T14:04:23Z</time>
      </trkpt>
      <trkpt lat="49.45874" lon="-1.36177">
        <ele>12.7</ele>
        <time>2022-08-29T14:04:26Z</time>
      </trkpt>
      <trkpt lat="49.45878" lon="-1.36177">
        <ele>12.2</ele>
        <time>2022-08-29T14:04:29Z</time>
      </trkpt>
      <trkpt lat="49.45883" lon="-1.36178">
        <ele>12.5</ele>
        <time>2022-08-29T14:04:32Z</time>
      </trkpt>
      <trkpt lat="49.45888" lon="-1.36179">
        <ele>12</ele>
        <time>2022-08-29T14:04:36Z</time>
      </trkpt>
      <trkpt lat="49.45892" lon="-1.36179">
        <ele>11.9</ele>
        <time>2022-08-29T14:04:39Z</time>
      </trkpt>
      <trkpt lat="49.45897" lon="-1.3618">
        <ele>11.4</ele>
        <time>2022-08-29T14:04:43Z</time>
      </trkpt>
      <trkpt lat="49.45903" lon="-1.36179">
        <ele>12.2</ele>
        <time>2022-08-29T14:04:46Z</time>
      </trkpt>
      <trkpt lat="49.45908" lon="-1.36179">
        <ele>11.9</ele>
        <time>2022-08-29T14:04:50Z</time>
      </trkpt>
      <trkpt lat="49.45913" lon="-1.36178">
        <ele>11.4</ele>
        <time>2022-08-29T14:04:54Z</time>
      </trkpt>
      <trkpt lat="49.45918" lon="-1.36179">
        <ele>11</ele>
        <time>2022-08-29T14:04:58Z</time>
      </trkpt>
      <trkpt lat="49.45923" lon="-1.36179">
        <ele>10</ele>
        <time>2022-08-29T14:05:01Z</time>
      </trkpt>
      <trkpt lat="49.45928" lon="-1.36181">
        <ele>9.2</ele>
        <time>2022-08-29T14:05:05Z</time>
      </trkpt>
      <trkpt lat="49.45933" lon="-1.36183">
        <ele>9.7</ele>
        <time>2022-08-29T14:05:09Z</time>
      </trkpt>
      <trkpt lat="49.45938" lon="-1.36185">
        <ele>9.5</ele>
        <time>2022-08-29T14:05:12Z</time>
      </trkpt>
      <trkpt lat="49.45944" lon="-1.36187">
        <ele>9.6</ele>
        <time>2022-08-29T14:05:16Z</time>
      </trkpt>
      <trkpt lat="49.4595" lon="-1.36188">
        <ele>9.1</ele>
        <time>2022-08-29T14:05:20Z</time>
      </trkpt>
      <trkpt lat="49.45955" lon="-1.3619">
        <ele>8.5</ele>
        <time>2022-08-29T14:05:24Z</time>
      </trkpt>
      <trkpt lat="49.4596" lon="-1.36191">
        <ele>9</ele>
        <time>2022-08-29T14:05:28Z</time>
      </trkpt>
      <trkpt lat="49.45966" lon="-1.36193">
        <ele>8.3</ele>
        <time>2022-08-29T14:05:32Z</time>
      </trkpt>
      <trkpt lat="49.45972" lon="-1.36195">
        <ele>8.3</ele>
        <time>2022-08-29T14:05:36Z</time>
      </trkpt>
      <trkpt lat="49.45977" lon="-1.36196">
        <ele>8.1</ele>
        <time>2022-08-29T14:05:40Z</time>
      </trkpt>
      <trkpt lat="49.45982" lon="-1.36197">
        <ele>8.1</ele>
        <time>2022-08-29T14:05:43Z</time>
      </trkpt>
      <trkpt lat="49.45987" lon="-1.36199">
        <ele>7.6</ele>
        <time>2022-08-29T14:05:46Z</time>
      </trkpt>
      <trkpt lat="49.45992" lon="-1.362">
        <ele>7.7</ele>
        <time>2022-08-29T14:05:50Z</time>
      </trkpt>
      <trkpt lat="49.45997" lon="-1.36203">
        <ele>7</ele>
        <time>2022-08-29T14:05:54Z</time>
      </trkpt>
      <trkpt lat="49.46002" lon="-1.36205">
        <ele>6.8</ele>
        <time>2022-08-29T14:05:57Z</time>
      </trkpt>
      <trkpt lat="49.46006" lon="-1.36206">
        <ele>6.7</ele>
        <time>2022-08-29T14:06:00Z</time>
      </trkpt>
      <trkpt lat="49.46011" lon="-1.36208">
        <ele>6.7</ele>
        <time>2022-08-29T14:06:03Z</time>
      </trkpt>
      <trkpt lat="49.46017" lon="-1.36208">
        <ele>6.4</ele>
        <time>2022-08-29T14:06:07Z</time>
      </trkpt>
      <trkpt lat="49.46021" lon="-1.3621">
        <ele>6.5</ele>
        <time>2022-08-29T14:06:11Z</time>
      </trkpt>
      <trkpt lat="49.46026" lon="-1.36213">
        <ele>6.3</ele>
        <time>2022-08-29T14:06:14Z</time>
      </trkpt>
      <trkpt lat="49.46031" lon="-1.36214">
        <ele>5.9</ele>
        <time>2022-08-29T14:06:17Z</time>
      </trkpt>
      <trkpt lat="49.46035" lon="-1.36216">
        <ele>6.5</ele>
        <time>2022-08-29T14:06:20Z</time>
      </trkpt>
      <trkpt lat="49.4604" lon="-1.36218">
        <ele>6.3</ele>
        <time>2022-08-29T14:06:24Z</time>
      </trkpt>
      <trkpt lat="49.46045" lon="-1.36221">
        <ele>5.5</ele>
        <time>2022-08-29T14:06:28Z</time>
      </trkpt>
      <trkpt lat="49.46051" lon="-1.36225">
        <ele>5.6</ele>
        <time>2022-08-29T14:06:33Z</time>
      </trkpt>
      <trkpt lat="49.46055" lon="-1.36228">
        <ele>6</ele>
        <time>2022-08-29T14:06:37Z</time>
      </trkpt>
      <trkpt lat="49.4606" lon="-1.36231">
        <ele>6.3</ele>
        <time>2022-08-29T14:06:40Z</time>
      </trkpt>
      <trkpt lat="49.46065" lon="-1.36233">
        <ele>7.3</ele>
        <time>2022-08-29T14:06:45Z</time>
      </trkpt>
      <trkpt lat="49.46069" lon="-1.36236">
        <ele>7.4</ele>
        <time>2022-08-29T14:06:48Z</time>
      </trkpt>
      <trkpt lat="49.46074" lon="-1.3624">
        <ele>8.4</ele>
        <time>2022-08-29T14:06:51Z</time>
      </trkpt>
      <trkpt lat="49.46079" lon="-1.36244">
        <ele>9</ele>
        <time>2022-08-29T14:06:54Z</time>
      </trkpt>
      <trkpt lat="49.46084" lon="-1.36249">
        <ele>9.3</ele>
        <time>2022-08-29T14:06:57Z</time>
      </trkpt>
      <trkpt lat="49.46088" lon="-1.36254">
        <ele>9.2</ele>
        <time>2022-08-29T14:07:01Z</time>
      </trkpt>
      <trkpt lat="49.46093" lon="-1.36259">
        <ele>9.4</ele>
        <time>2022-08-29T14:07:06Z</time>
      </trkpt>
      <trkpt lat="49.46097" lon="-1.36264">
        <ele>9.4</ele>
        <time>2022-08-29T14:07:10Z</time>
      </trkpt>
      <trkpt lat="49.46102" lon="-1.36269">
        <ele>8.9</ele>
        <time>2022-08-29T14:07:14Z</time>
      </trkpt>
      <trkpt lat="49.46106" lon="-1.36273">
        <ele>9.6</ele>
        <time>2022-08-29T14:07:17Z</time>
      </trkpt>
      <trkpt lat="49.46111" lon="-1.3628">
        <ele>9</ele>
        <time>2022-08-29T14:07:22Z</time>
      </trkpt>
      <trkpt lat="49.46114" lon="-1.36284">
        <ele>8.5</ele>
        <time>2022-08-29T14:07:25Z</time>
      </trkpt>
      <trkpt lat="49.46119" lon="-1.36288">
        <ele>8.6</ele>
        <time>2022-08-29T14:07:29Z</time>
      </trkpt>
      <trkpt lat="49.46124" lon="-1.36292">
        <ele>8.2</ele>
        <time>2022-08-29T14:07:33Z</time>
      </trkpt>
      <trkpt lat="49.46128" lon="-1.36296">
        <ele>8.3</ele>
        <time>2022-08-29T14:07:37Z</time>
      </trkpt>
      <trkpt lat="49.46132" lon="-1.36298">
        <ele>8</ele>
        <time>2022-08-29T14:07:39Z</time>
      </trkpt>
      <trkpt lat="49.46137" lon="-1.36301">
        <ele>7.9</ele>
        <time>2022-08-29T14:07:43Z</time>
      </trkpt>
      <trkpt lat="49.46142" lon="-1.36304">
        <ele>8</ele>
        <time>2022-08-29T14:07:47Z</time>
      </trkpt>
      <trkpt lat="49.46147" lon="-1.36307">
        <ele>8.3</ele>
        <time>2022-08-29T14:07:50Z</time>
      </trkpt>
      <trkpt lat="49.46152" lon="-1.3631">
        <ele>8.2</ele>
        <time>2022-08-29T14:07:55Z</time>
      </trkpt>
      <trkpt lat="49.46157" lon="-1.36314">
        <ele>7.8</ele>
        <time>2022-08-29T14:08:20Z</time>
      </trkpt>
      <trkpt lat="49.46163" lon="-1.36316">
        <ele>7.5</ele>
        <time>2022-08-29T14:08:24Z</time>
      </trkpt>
      <trkpt lat="49.46167" lon="-1.36318">
        <ele>7.1</ele>
        <time>2022-08-29T14:08:26Z</time>
      </trkpt>
      <trkpt lat="49.46181" lon="-1.36325">
        <ele>8.4</ele>
        <time>2022-08-29T14:08:32Z</time>
      </trkpt>
      <trkpt lat="49.46186" lon="-1.36327">
        <ele>8.7</ele>
        <time>2022-08-29T14:08:36Z</time>
      </trkpt>
      <trkpt lat="49.46191" lon="-1.36329">
        <ele>8.7</ele>
        <time>2022-08-29T14:08:40Z</time>
      </trkpt>
      <trkpt lat="49.46196" lon="-1.3633">
        <ele>8.5</ele>
        <time>2022-08-29T14:08:43Z</time>
      </trkpt>
      <trkpt lat="49.46201" lon="-1.36331">
        <ele>8.4</ele>
        <time>2022-08-29T14:08:47Z</time>
      </trkpt>
      <trkpt lat="49.46206" lon="-1.36333">
        <ele>7.6</ele>
        <time>2022-08-29T14:08:51Z</time>
      </trkpt>
      <trkpt lat="49.46211" lon="-1.36334">
        <ele>7.5</ele>
        <time>2022-08-29T14:08:54Z</time>
      </trkpt>
      <trkpt lat="49.46216" lon="-1.36335">
        <ele>7.7</ele>
        <time>2022-08-29T14:08:57Z</time>
      </trkpt>
      <trkpt lat="49.46221" lon="-1.36336">
        <ele>8.5</ele>
        <time>2022-08-29T14:09:01Z</time>
      </trkpt>
      <trkpt lat="49.46226" lon="-1.36337">
        <ele>8.9</ele>
        <time>2022-08-29T14:09:05Z</time>
      </trkpt>
      <trkpt lat="49.46231" lon="-1.36339">
        <ele>9.7</ele>
        <time>2022-08-29T14:09:09Z</time>
      </trkpt>
      <trkpt lat="49.46236" lon="-1.36341">
        <ele>9.6</ele>
        <time>2022-08-29T14:09:18Z</time>
      </trkpt>
      <trkpt lat="49.46242" lon="-1.36343">
        <ele>9.5</ele>
        <time>2022-08-29T14:09:22Z</time>
      </trkpt>
      <trkpt lat="49.46246" lon="-1.36346">
        <ele>9.5</ele>
        <time>2022-08-29T14:09:26Z</time>
      </trkpt>
      <trkpt lat="49.46252" lon="-1.36348">
        <ele>9.8</ele>
        <time>2022-08-29T14:09:30Z</time>
      </trkpt>
      <trkpt lat="49.46255" lon="-1.36355">
        <ele>10.1</ele>
        <time>2022-08-29T14:09:35Z</time>
      </trkpt>
      <trkpt lat="49.46261" lon="-1.36351">
        <ele>10</ele>
        <time>2022-08-29T14:09:51Z</time>
      </trkpt>
      <trkpt lat="49.46265" lon="-1.36352">
        <ele>9.9</ele>
        <time>2022-08-29T14:09:53Z</time>
      </trkpt>
      <trkpt lat="49.4627" lon="-1.36354">
        <ele>9.3</ele>
        <time>2022-08-29T14:09:55Z</time>
      </trkpt>
      <trkpt lat="49.4628" lon="-1.36358">
        <ele>10.4</ele>
        <time>2022-08-29T14:10:00Z</time>
      </trkpt>
      <trkpt lat="49.46286" lon="-1.3636">
        <ele>11.1</ele>
        <time>2022-08-29T14:10:03Z</time>
      </trkpt>
      <trkpt lat="49.4629" lon="-1.36362">
        <ele>11.3</ele>
        <time>2022-08-29T14:10:06Z</time>
      </trkpt>
      <trkpt lat="49.46294" lon="-1.36366">
        <ele>11.2</ele>
        <time>2022-08-29T14:10:10Z</time>
      </trkpt>
      <trkpt lat="49.46298" lon="-1.3637">
        <ele>11.2</ele>
        <time>2022-08-29T14:10:14Z</time>
      </trkpt>
      <trkpt lat="49.46303" lon="-1.36372">
        <ele>11</ele>
        <time>2022-08-29T14:10:18Z</time>
      </trkpt>
      <trkpt lat="49.46308" lon="-1.36374">
        <ele>10.9</ele>
        <time>2022-08-29T14:10:22Z</time>
      </trkpt>
      <trkpt lat="49.46312" lon="-1.36376">
        <ele>11.2</ele>
        <time>2022-08-29T14:10:25Z</time>
      </trkpt>
      <trkpt lat="49.46317" lon="-1.36377">
        <ele>10.5</ele>
        <time>2022-08-29T14:10:28Z</time>
      </trkpt>
      <trkpt lat="49.46323" lon="-1.36383">
        <ele>10.6</ele>
        <time>2022-08-29T14:10:32Z</time>
      </trkpt>
      <trkpt lat="49.46322" lon="-1.3639">
        <ele>9.5</ele>
        <time>2022-08-29T14:10:36Z</time>
      </trkpt>
      <trkpt lat="49.46319" lon="-1.36395">
        <ele>9.9</ele>
        <time>2022-08-29T14:10:39Z</time>
      </trkpt>
      <trkpt lat="49.46314" lon="-1.36399">
        <ele>10.5</ele>
        <time>2022-08-29T14:10:42Z</time>
      </trkpt>
      <trkpt lat="49.4631" lon="-1.36403">
        <ele>10.7</ele>
        <time>2022-08-29T14:10:45Z</time>
      </trkpt>
      <trkpt lat="49.46306" lon="-1.36407">
        <ele>11.8</ele>
        <time>2022-08-29T14:10:48Z</time>
      </trkpt>
      <trkpt lat="49.46301" lon="-1.3641">
        <ele>11.3</ele>
        <time>2022-08-29T14:10:52Z</time>
      </trkpt>
      <trkpt lat="49.46296" lon="-1.36413">
        <ele>11.1</ele>
        <time>2022-08-29T14:10:56Z</time>
      </trkpt>
      <trkpt lat="49.46293" lon="-1.36419">
        <ele>11.5</ele>
        <time>2022-08-29T14:10:59Z</time>
      </trkpt>
      <trkpt lat="49.4629" lon="-1.36424">
        <ele>11.4</ele>
        <time>2022-08-29T14:11:03Z</time>
      </trkpt>
      <trkpt lat="49.46286" lon="-1.36429">
        <ele>11.7</ele>
        <time>2022-08-29T14:11:07Z</time>
      </trkpt>
      <trkpt lat="49.46283" lon="-1.36435">
        <ele>12.2</ele>
        <time>2022-08-29T14:11:11Z</time>
      </trkpt>
      <trkpt lat="49.46279" lon="-1.3644">
        <ele>11.4</ele>
        <time>2022-08-29T14:11:15Z</time>
      </trkpt>
      <trkpt lat="49.46274" lon="-1.36445">
        <ele>11.8</ele>
        <time>2022-08-29T14:11:19Z</time>
      </trkpt>
      <trkpt lat="49.4627" lon="-1.36449">
        <ele>11.7</ele>
        <time>2022-08-29T14:11:23Z</time>
      </trkpt>
      <trkpt lat="49.46266" lon="-1.36453">
        <ele>11.7</ele>
        <time>2022-08-29T14:11:26Z</time>
      </trkpt>
      <trkpt lat="49.46263" lon="-1.36458">
        <ele>11.6</ele>
        <time>2022-08-29T14:11:31Z</time>
      </trkpt>
      <trkpt lat="49.46261" lon="-1.36465">
        <ele>11.6</ele>
        <time>2022-08-29T14:11:36Z</time>
      </trkpt>
      <trkpt lat="49.46255" lon="-1.36468">
        <ele>10.9</ele>
        <time>2022-08-29T14:11:41Z</time>
      </trkpt>
      <trkpt lat="49.46251" lon="-1.36475">
        <ele>10.8</ele>
        <time>2022-08-29T14:11:46Z</time>
      </trkpt>
      <trkpt lat="49.46247" lon="-1.3648">
        <ele>10.6</ele>
        <time>2022-08-29T14:11:49Z</time>
      </trkpt>
      <trkpt lat="49.46242" lon="-1.36484">
        <ele>10.7</ele>
        <time>2022-08-29T14:11:53Z</time>
      </trkpt>
      <trkpt lat="49.46237" lon="-1.36489">
        <ele>10.9</ele>
        <time>2022-08-29T14:11:57Z</time>
      </trkpt>
      <trkpt lat="49.46234" lon="-1.36494">
        <ele>11</ele>
        <time>2022-08-29T14:12:00Z</time>
      </trkpt>
      <trkpt lat="49.46231" lon="-1.36499">
        <ele>11.3</ele>
        <time>2022-08-29T14:12:03Z</time>
      </trkpt>
      <trkpt lat="49.46227" lon="-1.36505">
        <ele>11.1</ele>
        <time>2022-08-29T14:12:07Z</time>
      </trkpt>
      <trkpt lat="49.46224" lon="-1.36512">
        <ele>10.8</ele>
        <time>2022-08-29T14:12:12Z</time>
      </trkpt>
      <trkpt lat="49.46221" lon="-1.36518">
        <ele>12.3</ele>
        <time>2022-08-29T14:12:15Z</time>
      </trkpt>
      <trkpt lat="49.46217" lon="-1.36525">
        <ele>11.4</ele>
        <time>2022-08-29T14:12:20Z</time>
      </trkpt>
      <trkpt lat="49.46212" lon="-1.36533">
        <ele>11.8</ele>
        <time>2022-08-29T14:12:25Z</time>
      </trkpt>
      <trkpt lat="49.46208" lon="-1.36538">
        <ele>11.6</ele>
        <time>2022-08-29T14:12:29Z</time>
      </trkpt>
      <trkpt lat="49.46205" lon="-1.36546">
        <ele>11.8</ele>
        <time>2022-08-29T14:12:34Z</time>
      </trkpt>
      <trkpt lat="49.46203" lon="-1.36554">
        <ele>11.5</ele>
        <time>2022-08-29T14:12:38Z</time>
      </trkpt>
      <trkpt lat="49.46201" lon="-1.36561">
        <ele>11.3</ele>
        <time>2022-08-29T14:12:41Z</time>
      </trkpt>
      <trkpt lat="49.46199" lon="-1.36567">
        <ele>10.8</ele>
        <time>2022-08-29T14:12:44Z</time>
      </trkpt>
      <trkpt lat="49.46197" lon="-1.36575">
        <ele>11</ele>
        <time>2022-08-29T14:12:48Z</time>
      </trkpt>
      <trkpt lat="49.46193" lon="-1.3658">
        <ele>11.3</ele>
        <time>2022-08-29T14:12:52Z</time>
      </trkpt>
      <trkpt lat="49.4619" lon="-1.36586">
        <ele>11.2</ele>
        <time>2022-08-29T14:12:56Z</time>
      </trkpt>
      <trkpt lat="49.46187" lon="-1.36593">
        <ele>10.5</ele>
        <time>2022-08-29T14:13:01Z</time>
      </trkpt>
      <trkpt lat="49.46184" lon="-1.366">
        <ele>11.4</ele>
        <time>2022-08-29T14:13:10Z</time>
      </trkpt>
      <trkpt lat="49.46179" lon="-1.36603">
        <ele>10.9</ele>
        <time>2022-08-29T14:13:14Z</time>
      </trkpt>
      <trkpt lat="49.46175" lon="-1.36609">
        <ele>10.7</ele>
        <time>2022-08-29T14:13:18Z</time>
      </trkpt>
      <trkpt lat="49.46171" lon="-1.36613">
        <ele>10.6</ele>
        <time>2022-08-29T14:13:21Z</time>
      </trkpt>
      <trkpt lat="49.46167" lon="-1.3662">
        <ele>10.9</ele>
        <time>2022-08-29T14:13:25Z</time>
      </trkpt>
      <trkpt lat="49.46164" lon="-1.36625">
        <ele>10.4</ele>
        <time>2022-08-29T14:13:29Z</time>
      </trkpt>
      <trkpt lat="49.46161" lon="-1.36632">
        <ele>10.9</ele>
        <time>2022-08-29T14:13:33Z</time>
      </trkpt>
      <trkpt lat="49.46159" lon="-1.36639">
        <ele>11.1</ele>
        <time>2022-08-29T14:13:37Z</time>
      </trkpt>
      <trkpt lat="49.46156" lon="-1.36645">
        <ele>11.2</ele>
        <time>2022-08-29T14:13:40Z</time>
      </trkpt>
      <trkpt lat="49.46154" lon="-1.36651">
        <ele>10.9</ele>
        <time>2022-08-29T14:13:44Z</time>
      </trkpt>
      <trkpt lat="49.46151" lon="-1.36658">
        <ele>10.3</ele>
        <time>2022-08-29T14:13:48Z</time>
      </trkpt>
      <trkpt lat="49.46148" lon="-1.36664">
        <ele>10.3</ele>
        <time>2022-08-29T14:13:52Z</time>
      </trkpt>
      <trkpt lat="49.46145" lon="-1.36669">
        <ele>11.2</ele>
        <time>2022-08-29T14:13:57Z</time>
      </trkpt>
      <trkpt lat="49.46145" lon="-1.36676">
        <ele>11.3</ele>
        <time>2022-08-29T14:14:03Z</time>
      </trkpt>
      <trkpt lat="49.46141" lon="-1.36683">
        <ele>11.3</ele>
        <time>2022-08-29T14:14:10Z</time>
      </trkpt>
      <trkpt lat="49.4614" lon="-1.36691">
        <ele>11.1</ele>
        <time>2022-08-29T14:14:13Z</time>
      </trkpt>
      <trkpt lat="49.46139" lon="-1.367">
        <ele>11</ele>
        <time>2022-08-29T14:14:17Z</time>
      </trkpt>
      <trkpt lat="49.46147" lon="-1.36705">
        <ele>6.6</ele>
        <time>2022-08-29T14:14:51Z</time>
      </trkpt>
      <trkpt lat="49.46134" lon="-1.36693">
        <ele>6.6</ele>
        <time>2022-08-29T14:15:14Z</time>
      </trkpt>
      <trkpt lat="49.46135" lon="-1.367">
        <ele>4.9</ele>
        <time>2022-08-29T14:15:25Z</time>
      </trkpt>
      <trkpt lat="49.46131" lon="-1.36707">
        <ele>5.5</ele>
        <time>2022-08-29T14:15:29Z</time>
      </trkpt>
      <trkpt lat="49.46129" lon="-1.36714">
        <ele>6.6</ele>
        <time>2022-08-29T14:15:32Z</time>
      </trkpt>
      <trkpt lat="49.46127" lon="-1.36721">
        <ele>6.5</ele>
        <time>2022-08-29T14:15:35Z</time>
      </trkpt>
      <trkpt lat="49.46124" lon="-1.36728">
        <ele>6.3</ele>
        <time>2022-08-29T14:15:39Z</time>
      </trkpt>
      <trkpt lat="49.4612" lon="-1.36735">
        <ele>6.9</ele>
        <time>2022-08-29T14:15:43Z</time>
      </trkpt>
      <trkpt lat="49.46117" lon="-1.36739">
        <ele>6.8</ele>
        <time>2022-08-29T14:15:46Z</time>
      </trkpt>
      <trkpt lat="49.46113" lon="-1.36746">
        <ele>7.4</ele>
        <time>2022-08-29T14:15:50Z</time>
      </trkpt>
      <trkpt lat="49.4611" lon="-1.36753">
        <ele>8.9</ele>
        <time>2022-08-29T14:15:54Z</time>
      </trkpt>
      <trkpt lat="49.46107" lon="-1.36758">
        <ele>9.9</ele>
        <time>2022-08-29T14:15:57Z</time>
      </trkpt>
      <trkpt lat="49.46105" lon="-1.36764">
        <ele>9.7</ele>
        <time>2022-08-29T14:16:00Z</time>
      </trkpt>
      <trkpt lat="49.46102" lon="-1.3677">
        <ele>9.1</ele>
        <time>2022-08-29T14:16:04Z</time>
      </trkpt>
      <trkpt lat="49.46099" lon="-1.36778">
        <ele>9</ele>
        <time>2022-08-29T14:16:08Z</time>
      </trkpt>
      <trkpt lat="49.46095" lon="-1.36784">
        <ele>9.3</ele>
        <time>2022-08-29T14:16:13Z</time>
      </trkpt>
      <trkpt lat="49.46091" lon="-1.36791">
        <ele>9.2</ele>
        <time>2022-08-29T14:16:17Z</time>
      </trkpt>
      <trkpt lat="49.46088" lon="-1.36797">
        <ele>9</ele>
        <time>2022-08-29T14:16:21Z</time>
      </trkpt>
      <trkpt lat="49.46085" lon="-1.36805">
        <ele>8.9</ele>
        <time>2022-08-29T14:16:26Z</time>
      </trkpt>
      <trkpt lat="49.46082" lon="-1.36811">
        <ele>9.2</ele>
        <time>2022-08-29T14:16:30Z</time>
      </trkpt>
      <trkpt lat="49.46078" lon="-1.36816">
        <ele>10.3</ele>
        <time>2022-08-29T14:16:34Z</time>
      </trkpt>
      <trkpt lat="49.46077" lon="-1.36823">
        <ele>10.6</ele>
        <time>2022-08-29T14:16:37Z</time>
      </trkpt>
      <trkpt lat="49.46075" lon="-1.36831">
        <ele>10.3</ele>
        <time>2022-08-29T14:16:40Z</time>
      </trkpt>
      <trkpt lat="49.46074" lon="-1.36838">
        <ele>10.4</ele>
        <time>2022-08-29T14:16:43Z</time>
      </trkpt>
      <trkpt lat="49.46072" lon="-1.36844">
        <ele>10.5</ele>
        <time>2022-08-29T14:16:47Z</time>
      </trkpt>
      <trkpt lat="49.46068" lon="-1.3685">
        <ele>11.4</ele>
        <time>2022-08-29T14:16:51Z</time>
      </trkpt>
      <trkpt lat="49.46064" lon="-1.36857">
        <ele>11.7</ele>
        <time>2022-08-29T14:16:56Z</time>
      </trkpt>
      <trkpt lat="49.4606" lon="-1.36862">
        <ele>11.8</ele>
        <time>2022-08-29T14:17:00Z</time>
      </trkpt>
      <trkpt lat="49.46057" lon="-1.36869">
        <ele>11.7</ele>
        <time>2022-08-29T14:17:04Z</time>
      </trkpt>
      <trkpt lat="49.46054" lon="-1.36878">
        <ele>11.4</ele>
        <time>2022-08-29T14:17:08Z</time>
      </trkpt>
      <trkpt lat="49.46051" lon="-1.36885">
        <ele>11.5</ele>
        <time>2022-08-29T14:17:12Z</time>
      </trkpt>
      <trkpt lat="49.46048" lon="-1.36891">
        <ele>11.6</ele>
        <time>2022-08-29T14:17:16Z</time>
      </trkpt>
      <trkpt lat="49.46044" lon="-1.36899">
        <ele>11.4</ele>
        <time>2022-08-29T14:17:21Z</time>
      </trkpt>
      <trkpt lat="49.46041" lon="-1.36906">
        <ele>12.1</ele>
        <time>2022-08-29T14:17:26Z</time>
      </trkpt>
      <trkpt lat="49.46038" lon="-1.36912">
        <ele>12</ele>
        <time>2022-08-29T14:17:31Z</time>
      </trkpt>
      <trkpt lat="49.46035" lon="-1.36919">
        <ele>11.8</ele>
        <time>2022-08-29T14:17:34Z</time>
      </trkpt>
      <trkpt lat="49.46032" lon="-1.36926">
        <ele>11.5</ele>
        <time>2022-08-29T14:17:38Z</time>
      </trkpt>
      <trkpt lat="49.46029" lon="-1.36933">
        <ele>11.3</ele>
        <time>2022-08-29T14:17:42Z</time>
      </trkpt>
      <trkpt lat="49.46025" lon="-1.3694">
        <ele>11.1</ele>
        <time>2022-08-29T14:17:46Z</time>
      </trkpt>
      <trkpt lat="49.46023" lon="-1.3695">
        <ele>11.2</ele>
        <time>2022-08-29T14:17:51Z</time>
      </trkpt>
      <trkpt lat="49.46021" lon="-1.3696">
        <ele>10.5</ele>
        <time>2022-08-29T14:17:56Z</time>
      </trkpt>
      <trkpt lat="49.46017" lon="-1.36968">
        <ele>9.9</ele>
        <time>2022-08-29T14:18:01Z</time>
      </trkpt>
      <trkpt lat="49.46014" lon="-1.36974">
        <ele>10.9</ele>
        <time>2022-08-29T14:18:04Z</time>
      </trkpt>
      <trkpt lat="49.4601" lon="-1.36981">
        <ele>10</ele>
        <time>2022-08-29T14:18:09Z</time>
      </trkpt>
      <trkpt lat="49.46007" lon="-1.36988">
        <ele>10</ele>
        <time>2022-08-29T14:18:12Z</time>
      </trkpt>
      <trkpt lat="49.46004" lon="-1.36995">
        <ele>10</ele>
        <time>2022-08-29T14:18:16Z</time>
      </trkpt>
      <trkpt lat="49.46001" lon="-1.37002">
        <ele>10.4</ele>
        <time>2022-08-29T14:18:20Z</time>
      </trkpt>
      <trkpt lat="49.45999" lon="-1.37008">
        <ele>10.4</ele>
        <time>2022-08-29T14:18:23Z</time>
      </trkpt>
      <trkpt lat="49.45995" lon="-1.37015">
        <ele>9.5</ele>
        <time>2022-08-29T14:18:27Z</time>
      </trkpt>
      <trkpt lat="49.45992" lon="-1.37021">
        <ele>9.7</ele>
        <time>2022-08-29T14:18:31Z</time>
      </trkpt>
      <trkpt lat="49.45989" lon="-1.3703">
        <ele>9.6</ele>
        <time>2022-08-29T14:18:35Z</time>
      </trkpt>
      <trkpt lat="49.45986" lon="-1.37036">
        <ele>8.8</ele>
        <time>2022-08-29T14:18:39Z</time>
      </trkpt>
      <trkpt lat="49.45983" lon="-1.37041">
        <ele>8.9</ele>
        <time>2022-08-29T14:18:43Z</time>
      </trkpt>
      <trkpt lat="49.4598" lon="-1.37048">
        <ele>9</ele>
        <time>2022-08-29T14:18:46Z</time>
      </trkpt>
      <trkpt lat="49.45978" lon="-1.37054">
        <ele>9</ele>
        <time>2022-08-29T14:18:50Z</time>
      </trkpt>
      <trkpt lat="49.45975" lon="-1.3706">
        <ele>9.1</ele>
        <time>2022-08-29T14:18:53Z</time>
      </trkpt>
      <trkpt lat="49.45972" lon="-1.37066">
        <ele>9.1</ele>
        <time>2022-08-29T14:18:56Z</time>
      </trkpt>
      <trkpt lat="49.4597" lon="-1.37072">
        <ele>8.6</ele>
        <time>2022-08-29T14:18:59Z</time>
      </trkpt>
      <trkpt lat="49.45966" lon="-1.37078">
        <ele>9.1</ele>
        <time>2022-08-29T14:19:03Z</time>
      </trkpt>
      <trkpt lat="49.45962" lon="-1.37084">
        <ele>9.1</ele>
        <time>2022-08-29T14:19:06Z</time>
      </trkpt>
      <trkpt lat="49.4596" lon="-1.3709">
        <ele>9.2</ele>
        <time>2022-08-29T14:19:09Z</time>
      </trkpt>
      <trkpt lat="49.45956" lon="-1.37096">
        <ele>9</ele>
        <time>2022-08-29T14:19:13Z</time>
      </trkpt>
      <trkpt lat="49.45953" lon="-1.37103">
        <ele>8.6</ele>
        <time>2022-08-29T14:19:17Z</time>
      </trkpt>
      <trkpt lat="49.4595" lon="-1.37109">
        <ele>9.1</ele>
        <time>2022-08-29T14:19:21Z</time>
      </trkpt>
      <trkpt lat="49.45946" lon="-1.37118">
        <ele>8.9</ele>
        <time>2022-08-29T14:19:26Z</time>
      </trkpt>
      <trkpt lat="49.45943" lon="-1.37123">
        <ele>8.8</ele>
        <time>2022-08-29T14:19:29Z</time>
      </trkpt>
      <trkpt lat="49.45939" lon="-1.37128">
        <ele>8.4</ele>
        <time>2022-08-29T14:19:33Z</time>
      </trkpt>
      <trkpt lat="49.45935" lon="-1.37135">
        <ele>7.8</ele>
        <time>2022-08-29T14:19:37Z</time>
      </trkpt>
      <trkpt lat="49.45931" lon="-1.3714">
        <ele>8.8</ele>
        <time>2022-08-29T14:19:41Z</time>
      </trkpt>
      <trkpt lat="49.45927" lon="-1.37145">
        <ele>9.2</ele>
        <time>2022-08-29T14:19:44Z</time>
      </trkpt>
      <trkpt lat="49.45924" lon="-1.37149">
        <ele>8.7</ele>
        <time>2022-08-29T14:19:47Z</time>
      </trkpt>
      <trkpt lat="49.4592" lon="-1.37155">
        <ele>8.8</ele>
        <time>2022-08-29T14:19:51Z</time>
      </trkpt>
      <trkpt lat="49.45916" lon="-1.3716">
        <ele>9</ele>
        <time>2022-08-29T14:19:54Z</time>
      </trkpt>
      <trkpt lat="49.45912" lon="-1.37164">
        <ele>8.7</ele>
        <time>2022-08-29T14:19:58Z</time>
      </trkpt>
      <trkpt lat="49.4591" lon="-1.37171">
        <ele>8.6</ele>
        <time>2022-08-29T14:20:03Z</time>
      </trkpt>
      <trkpt lat="49.45906" lon="-1.37177">
        <ele>8.4</ele>
        <time>2022-08-29T14:20:07Z</time>
      </trkpt>
      <trkpt lat="49.45901" lon="-1.3718">
        <ele>7.6</ele>
        <time>2022-08-29T14:20:10Z</time>
      </trkpt>
      <trkpt lat="49.45896" lon="-1.37184">
        <ele>8</ele>
        <time>2022-08-29T14:20:14Z</time>
      </trkpt>
      <trkpt lat="49.45891" lon="-1.37187">
        <ele>7.9</ele>
        <time>2022-08-29T14:20:17Z</time>
      </trkpt>
      <trkpt lat="49.45886" lon="-1.37191">
        <ele>6.9</ele>
        <time>2022-08-29T14:20:21Z</time>
      </trkpt>
      <trkpt lat="49.45882" lon="-1.37194">
        <ele>6.9</ele>
        <time>2022-08-29T14:20:24Z</time>
      </trkpt>
      <trkpt lat="49.45878" lon="-1.37198">
        <ele>7.1</ele>
        <time>2022-08-29T14:20:27Z</time>
      </trkpt>
      <trkpt lat="49.45873" lon="-1.37202">
        <ele>6.5</ele>
        <time>2022-08-29T14:20:31Z</time>
      </trkpt>
      <trkpt lat="49.45868" lon="-1.37206">
        <ele>6.8</ele>
        <time>2022-08-29T14:20:35Z</time>
      </trkpt>
      <trkpt lat="49.45863" lon="-1.3721">
        <ele>6.7</ele>
        <time>2022-08-29T14:20:39Z</time>
      </trkpt>
      <trkpt lat="49.45858" lon="-1.37214">
        <ele>6.7</ele>
        <time>2022-08-29T14:20:43Z</time>
      </trkpt>
      <trkpt lat="49.45853" lon="-1.37214">
        <ele>7</ele>
        <time>2022-08-29T14:20:48Z</time>
      </trkpt>
      <trkpt lat="49.45849" lon="-1.3721">
        <ele>7.1</ele>
        <time>2022-08-29T14:20:52Z</time>
      </trkpt>
      <trkpt lat="49.45847" lon="-1.37203">
        <ele>6.5</ele>
        <time>2022-08-29T14:20:56Z</time>
      </trkpt>
      <trkpt lat="49.45845" lon="-1.37196">
        <ele>6</ele>
        <time>2022-08-29T14:21:00Z</time>
      </trkpt>
      <trkpt lat="49.45842" lon="-1.37189">
        <ele>5.5</ele>
        <time>2022-08-29T14:21:04Z</time>
      </trkpt>
      <trkpt lat="49.45838" lon="-1.37183">
        <ele>5.6</ele>
        <time>2022-08-29T14:21:08Z</time>
      </trkpt>
      <trkpt lat="49.45834" lon="-1.37177">
        <ele>6.2</ele>
        <time>2022-08-29T14:21:14Z</time>
      </trkpt>
      <trkpt lat="49.4583" lon="-1.37169">
        <ele>6</ele>
        <time>2022-08-29T14:21:18Z</time>
      </trkpt>
      <trkpt lat="49.45826" lon="-1.37163">
        <ele>5.5</ele>
        <time>2022-08-29T14:21:22Z</time>
      </trkpt>
      <trkpt lat="49.45823" lon="-1.37157">
        <ele>5.7</ele>
        <time>2022-08-29T14:21:26Z</time>
      </trkpt>
      <trkpt lat="49.45819" lon="-1.3715">
        <ele>6.2</ele>
        <time>2022-08-29T14:21:30Z</time>
      </trkpt>
      <trkpt lat="49.45815" lon="-1.37144">
        <ele>6.7</ele>
        <time>2022-08-29T14:21:34Z</time>
      </trkpt>
      <trkpt lat="49.45812" lon="-1.37139">
        <ele>6.2</ele>
        <time>2022-08-29T14:21:37Z</time>
      </trkpt>
      <trkpt lat="49.45808" lon="-1.37134">
        <ele>5.6</ele>
        <time>2022-08-29T14:21:41Z</time>
      </trkpt>
      <trkpt lat="49.45804" lon="-1.37128">
        <ele>5.8</ele>
        <time>2022-08-29T14:21:44Z</time>
      </trkpt>
      <trkpt lat="49.45801" lon="-1.3712">
        <ele>6.1</ele>
        <time>2022-08-29T14:21:49Z</time>
      </trkpt>
      <trkpt lat="49.45798" lon="-1.37116">
        <ele>6.6</ele>
        <time>2022-08-29T14:21:52Z</time>
      </trkpt>
      <trkpt lat="49.45794" lon="-1.37113">
        <ele>7.2</ele>
        <time>2022-08-29T14:21:55Z</time>
      </trkpt>
      <trkpt lat="49.4579" lon="-1.37109">
        <ele>6.8</ele>
        <time>2022-08-29T14:21:58Z</time>
      </trkpt>
      <trkpt lat="49.45786" lon="-1.37105">
        <ele>7</ele>
        <time>2022-08-29T14:22:02Z</time>
      </trkpt>
      <trkpt lat="49.45781" lon="-1.37104">
        <ele>7.4</ele>
        <time>2022-08-29T14:22:05Z</time>
      </trkpt>
      <trkpt lat="49.45777" lon="-1.37099">
        <ele>6.6</ele>
        <time>2022-08-29T14:22:09Z</time>
      </trkpt>
      <trkpt lat="49.45773" lon="-1.37093">
        <ele>6.8</ele>
        <time>2022-08-29T14:22:13Z</time>
      </trkpt>
      <trkpt lat="49.45768" lon="-1.37087">
        <ele>6.8</ele>
        <time>2022-08-29T14:22:16Z</time>
      </trkpt>
      <trkpt lat="49.45765" lon="-1.3708">
        <ele>6.3</ele>
        <time>2022-08-29T14:22:20Z</time>
      </trkpt>
      <trkpt lat="49.45759" lon="-1.37076">
        <ele>6.1</ele>
        <time>2022-08-29T14:22:25Z</time>
      </trkpt>
      <trkpt lat="49.45755" lon="-1.37071">
        <ele>5.8</ele>
        <time>2022-08-29T14:22:29Z</time>
      </trkpt>
      <trkpt lat="49.45752" lon="-1.37066">
        <ele>5</ele>
        <time>2022-08-29T14:22:33Z</time>
      </trkpt>
      <trkpt lat="49.45749" lon="-1.37061">
        <ele>4.8</ele>
        <time>2022-08-29T14:22:36Z</time>
      </trkpt>
      <trkpt lat="49.45746" lon="-1.37055">
        <ele>4.5</ele>
        <time>2022-08-29T14:22:39Z</time>
      </trkpt>
      <trkpt lat="49.45742" lon="-1.37051">
        <ele>4.6</ele>
        <time>2022-08-29T14:22:42Z</time>
      </trkpt>
      <trkpt lat="49.45739" lon="-1.37047">
        <ele>4.2</ele>
        <time>2022-08-29T14:22:45Z</time>
      </trkpt>
      <trkpt lat="49.45735" lon="-1.37041">
        <ele>4.3</ele>
        <time>2022-08-29T14:22:49Z</time>
      </trkpt>
      <trkpt lat="49.4573" lon="-1.37038">
        <ele>4.5</ele>
        <time>2022-08-29T14:22:52Z</time>
      </trkpt>
      <trkpt lat="49.45726" lon="-1.37034">
        <ele>4</ele>
        <time>2022-08-29T14:22:55Z</time>
      </trkpt>
      <trkpt lat="49.45721" lon="-1.3703">
        <ele>4</ele>
        <time>2022-08-29T14:22:59Z</time>
      </trkpt>
      <trkpt lat="49.45717" lon="-1.37026">
        <ele>4.4</ele>
        <time>2022-08-29T14:23:02Z</time>
      </trkpt>
      <trkpt lat="49.45713" lon="-1.37022">
        <ele>4.5</ele>
        <time>2022-08-29T14:23:06Z</time>
      </trkpt>
      <trkpt lat="49.4571" lon="-1.37017">
        <ele>4.3</ele>
        <time>2022-08-29T14:23:09Z</time>
      </trkpt>
      <trkpt lat="49.45706" lon="-1.37011">
        <ele>4.3</ele>
        <time>2022-08-29T14:23:12Z</time>
      </trkpt>
      <trkpt lat="49.45703" lon="-1.37006">
        <ele>4.2</ele>
        <time>2022-08-29T14:23:16Z</time>
      </trkpt>
      <trkpt lat="49.457" lon="-1.37">
        <ele>4</ele>
        <time>2022-08-29T14:23:20Z</time>
      </trkpt>
      <trkpt lat="49.45697" lon="-1.36994">
        <ele>3.6</ele>
        <time>2022-08-29T14:23:24Z</time>
      </trkpt>
      <trkpt lat="49.45693" lon="-1.36989">
        <ele>3.5</ele>
        <time>2022-08-29T14:23:28Z</time>
      </trkpt>
      <trkpt lat="49.45689" lon="-1.36984">
        <ele>3.1</ele>
        <time>2022-08-29T14:23:32Z</time>
      </trkpt>
      <trkpt lat="49.45685" lon="-1.36983">
        <ele>5.1</ele>
        <time>2022-08-29T14:24:04Z</time>
      </trkpt>
      <trkpt lat="49.4568" lon="-1.36979">
        <ele>4.6</ele>
        <time>2022-08-29T14:24:29Z</time>
      </trkpt>
      <trkpt lat="49.45677" lon="-1.36972">
        <ele>5</ele>
        <time>2022-08-29T14:24:34Z</time>
      </trkpt>
      <trkpt lat="49.45673" lon="-1.36963">
        <ele>4.7</ele>
        <time>2022-08-29T14:24:38Z</time>
      </trkpt>
      <trkpt lat="49.4567" lon="-1.36956">
        <ele>5.4</ele>
        <time>2022-08-29T14:24:43Z</time>
      </trkpt>
      <trkpt lat="49.45666" lon="-1.36949">
        <ele>5.4</ele>
        <time>2022-08-29T14:24:47Z</time>
      </trkpt>
      <trkpt lat="49.45662" lon="-1.36944">
        <ele>5.7</ele>
        <time>2022-08-29T14:24:52Z</time>
      </trkpt>
      <trkpt lat="49.45658" lon="-1.36939">
        <ele>5.4</ele>
        <time>2022-08-29T14:24:55Z</time>
      </trkpt>
      <trkpt lat="49.45655" lon="-1.36935">
        <ele>4.8</ele>
        <time>2022-08-29T14:24:58Z</time>
      </trkpt>
      <trkpt lat="49.4565" lon="-1.36931">
        <ele>5.1</ele>
        <time>2022-08-29T14:25:03Z</time>
      </trkpt>
      <trkpt lat="49.45644" lon="-1.36927">
        <ele>5.1</ele>
        <time>2022-08-29T14:25:07Z</time>
      </trkpt>
      <trkpt lat="49.45638" lon="-1.36927">
        <ele>4.8</ele>
        <time>2022-08-29T14:25:11Z</time>
      </trkpt>
      <trkpt lat="49.45632" lon="-1.36927">
        <ele>6</ele>
        <time>2022-08-29T14:25:15Z</time>
      </trkpt>
      <trkpt lat="49.45627" lon="-1.36924">
        <ele>5.7</ele>
        <time>2022-08-29T14:25:20Z</time>
      </trkpt>
      <trkpt lat="49.45622" lon="-1.36927">
        <ele>5.8</ele>
        <time>2022-08-29T14:25:23Z</time>
      </trkpt>
      <trkpt lat="49.45617" lon="-1.36926">
        <ele>5.4</ele>
        <time>2022-08-29T14:25:27Z</time>
      </trkpt>
      <trkpt lat="49.4561" lon="-1.36923">
        <ele>5.3</ele>
        <time>2022-08-29T14:25:32Z</time>
      </trkpt>
      <trkpt lat="49.45606" lon="-1.36918">
        <ele>5.5</ele>
        <time>2022-08-29T14:25:36Z</time>
      </trkpt>
      <trkpt lat="49.45601" lon="-1.36914">
        <ele>5.8</ele>
        <time>2022-08-29T14:25:40Z</time>
      </trkpt>
      <trkpt lat="49.45596" lon="-1.36911">
        <ele>6.6</ele>
        <time>2022-08-29T14:25:43Z</time>
      </trkpt>
      <trkpt lat="49.45591" lon="-1.36908">
        <ele>7</ele>
        <time>2022-08-29T14:25:48Z</time>
      </trkpt>
      <trkpt lat="49.45585" lon="-1.36904">
        <ele>7</ele>
        <time>2022-08-29T14:25:52Z</time>
      </trkpt>
      <trkpt lat="49.45581" lon="-1.36901">
        <ele>6.8</ele>
        <time>2022-08-29T14:25:56Z</time>
      </trkpt>
      <trkpt lat="49.45575" lon="-1.36898">
        <ele>6.6</ele>
        <time>2022-08-29T14:26:01Z</time>
      </trkpt>
      <trkpt lat="49.4557" lon="-1.36896">
        <ele>6.7</ele>
        <time>2022-08-29T14:26:04Z</time>
      </trkpt>
      <trkpt lat="49.45564" lon="-1.36893">
        <ele>6.5</ele>
        <time>2022-08-29T14:26:08Z</time>
      </trkpt>
      <trkpt lat="49.4556" lon="-1.3689">
        <ele>6.2</ele>
        <time>2022-08-29T14:26:12Z</time>
      </trkpt>
      <trkpt lat="49.45554" lon="-1.36889">
        <ele>5.9</ele>
        <time>2022-08-29T14:26:16Z</time>
      </trkpt>
      <trkpt lat="49.45549" lon="-1.36886">
        <ele>5.5</ele>
        <time>2022-08-29T14:26:20Z</time>
      </trkpt>
      <trkpt lat="49.45544" lon="-1.36886">
        <ele>5.9</ele>
        <time>2022-08-29T14:26:24Z</time>
      </trkpt>
      <trkpt lat="49.45539" lon="-1.36885">
        <ele>5.1</ele>
        <time>2022-08-29T14:26:28Z</time>
      </trkpt>
      <trkpt lat="49.45535" lon="-1.36881">
        <ele>5.5</ele>
        <time>2022-08-29T14:26:32Z</time>
      </trkpt>
      <trkpt lat="49.4553" lon="-1.3688">
        <ele>7</ele>
        <time>2022-08-29T14:26:36Z</time>
      </trkpt>
      <trkpt lat="49.45526" lon="-1.36879">
        <ele>6.7</ele>
        <time>2022-08-29T14:26:38Z</time>
      </trkpt>
      <trkpt lat="49.45521" lon="-1.36877">
        <ele>6.8</ele>
        <time>2022-08-29T14:26:42Z</time>
      </trkpt>
      <trkpt lat="49.45516" lon="-1.36874">
        <ele>6.1</ele>
        <time>2022-08-29T14:26:46Z</time>
      </trkpt>
      <trkpt lat="49.45512" lon="-1.36871">
        <ele>6.8</ele>
        <time>2022-08-29T14:26:49Z</time>
      </trkpt>
      <trkpt lat="49.45507" lon="-1.36868">
        <ele>7</ele>
        <time>2022-08-29T14:26:53Z</time>
      </trkpt>
      <trkpt lat="49.45502" lon="-1.36866">
        <ele>6.7</ele>
        <time>2022-08-29T14:26:57Z</time>
      </trkpt>
      <trkpt lat="49.45497" lon="-1.36865">
        <ele>7.1</ele>
        <time>2022-08-29T14:27:01Z</time>
      </trkpt>
      <trkpt lat="49.45492" lon="-1.36863">
        <ele>7.1</ele>
        <time>2022-08-29T14:27:04Z</time>
      </trkpt>
      <trkpt lat="49.45488" lon="-1.36861">
        <ele>6.6</ele>
        <time>2022-08-29T14:27:07Z</time>
      </trkpt>
      <trkpt lat="49.45482" lon="-1.36858">
        <ele>6.3</ele>
        <time>2022-08-29T14:27:12Z</time>
      </trkpt>
      <trkpt lat="49.45476" lon="-1.36854">
        <ele>6.4</ele>
        <time>2022-08-29T14:27:17Z</time>
      </trkpt>
      <trkpt lat="49.4547" lon="-1.36852">
        <ele>5.5</ele>
        <time>2022-08-29T14:27:22Z</time>
      </trkpt>
      <trkpt lat="49.45464" lon="-1.36849">
        <ele>5.7</ele>
        <time>2022-08-29T14:27:27Z</time>
      </trkpt>
      <trkpt lat="49.45459" lon="-1.36847">
        <ele>5.2</ele>
        <time>2022-08-29T14:27:32Z</time>
      </trkpt>
      <trkpt lat="49.45454" lon="-1.36847">
        <ele>5.5</ele>
        <time>2022-08-29T14:27:35Z</time>
      </trkpt>
      <trkpt lat="49.4545" lon="-1.36848">
        <ele>6</ele>
        <time>2022-08-29T14:27:38Z</time>
      </trkpt>
      <trkpt lat="49.45444" lon="-1.3685">
        <ele>5.5</ele>
        <time>2022-08-29T14:27:43Z</time>
      </trkpt>
      <trkpt lat="49.45438" lon="-1.36851">
        <ele>5.9</ele>
        <time>2022-08-29T14:27:47Z</time>
      </trkpt>
      <trkpt lat="49.45436" lon="-1.3686">
        <ele>5.7</ele>
        <time>2022-08-29T14:27:52Z</time>
      </trkpt>
      <trkpt lat="49.45436" lon="-1.36869">
        <ele>6.1</ele>
        <time>2022-08-29T14:27:57Z</time>
      </trkpt>
      <trkpt lat="49.45434" lon="-1.36876">
        <ele>5.7</ele>
        <time>2022-08-29T14:28:00Z</time>
      </trkpt>
      <trkpt lat="49.45432" lon="-1.36884">
        <ele>5.7</ele>
        <time>2022-08-29T14:28:04Z</time>
      </trkpt>
      <trkpt lat="49.45431" lon="-1.36891">
        <ele>5.3</ele>
        <time>2022-08-29T14:28:07Z</time>
      </trkpt>
      <trkpt lat="49.45429" lon="-1.36898">
        <ele>5.3</ele>
        <time>2022-08-29T14:28:11Z</time>
      </trkpt>
      <trkpt lat="49.45427" lon="-1.36905">
        <ele>5.5</ele>
        <time>2022-08-29T14:28:15Z</time>
      </trkpt>
      <trkpt lat="49.45425" lon="-1.36911">
        <ele>5.9</ele>
        <time>2022-08-29T14:28:19Z</time>
      </trkpt>
      <trkpt lat="49.45422" lon="-1.36918">
        <ele>5.8</ele>
        <time>2022-08-29T14:28:23Z</time>
      </trkpt>
      <trkpt lat="49.45418" lon="-1.36927">
        <ele>5.8</ele>
        <time>2022-08-29T14:28:28Z</time>
      </trkpt>
      <trkpt lat="49.45416" lon="-1.36935">
        <ele>5.3</ele>
        <time>2022-08-29T14:28:32Z</time>
      </trkpt>
      <trkpt lat="49.45413" lon="-1.36942">
        <ele>4.9</ele>
        <time>2022-08-29T14:28:36Z</time>
      </trkpt>
      <trkpt lat="49.4541" lon="-1.36951">
        <ele>5.3</ele>
        <time>2022-08-29T14:28:41Z</time>
      </trkpt>
      <trkpt lat="49.4541" lon="-1.3696">
        <ele>4.5</ele>
        <time>2022-08-29T14:28:45Z</time>
      </trkpt>
      <trkpt lat="49.45408" lon="-1.36966">
        <ele>4.3</ele>
        <time>2022-08-29T14:28:48Z</time>
      </trkpt>
      <trkpt lat="49.45405" lon="-1.36972">
        <ele>2.8</ele>
        <time>2022-08-29T14:28:52Z</time>
      </trkpt>
      <trkpt lat="49.454" lon="-1.3698">
        <ele>2.7</ele>
        <time>2022-08-29T14:28:57Z</time>
      </trkpt>
      <trkpt lat="49.45397" lon="-1.36987">
        <ele>3.1</ele>
        <time>2022-08-29T14:29:01Z</time>
      </trkpt>
      <trkpt lat="49.45394" lon="-1.36993">
        <ele>3.5</ele>
        <time>2022-08-29T14:29:05Z</time>
      </trkpt>
      <trkpt lat="49.45391" lon="-1.36999">
        <ele>3.5</ele>
        <time>2022-08-29T14:29:08Z</time>
      </trkpt>
      <trkpt lat="49.45388" lon="-1.37007">
        <ele>3.3</ele>
        <time>2022-08-29T14:29:12Z</time>
      </trkpt>
      <trkpt lat="49.45387" lon="-1.37014">
        <ele>2.8</ele>
        <time>2022-08-29T14:29:15Z</time>
      </trkpt>
      <trkpt lat="49.45384" lon="-1.37021">
        <ele>2.9</ele>
        <time>2022-08-29T14:29:19Z</time>
      </trkpt>
      <trkpt lat="49.45382" lon="-1.37029">
        <ele>2.8</ele>
        <time>2022-08-29T14:29:23Z</time>
      </trkpt>
      <trkpt lat="49.45379" lon="-1.37035">
        <ele>2.6</ele>
        <time>2022-08-29T14:29:26Z</time>
      </trkpt>
      <trkpt lat="49.45376" lon="-1.37043">
        <ele>2.6</ele>
        <time>2022-08-29T14:29:31Z</time>
      </trkpt>
      <trkpt lat="49.45374" lon="-1.37049">
        <ele>2.7</ele>
        <time>2022-08-29T14:29:34Z</time>
      </trkpt>
      <trkpt lat="49.45371" lon="-1.37055">
        <ele>2.4</ele>
        <time>2022-08-29T14:29:37Z</time>
      </trkpt>
      <trkpt lat="49.45367" lon="-1.3706">
        <ele>2.9</ele>
        <time>2022-08-29T14:29:40Z</time>
      </trkpt>
      <trkpt lat="49.45362" lon="-1.37065">
        <ele>3.7</ele>
        <time>2022-08-29T14:29:45Z</time>
      </trkpt>
      <trkpt lat="49.45359" lon="-1.37072">
        <ele>3</ele>
        <time>2022-08-29T14:29:50Z</time>
      </trkpt>
      <trkpt lat="49.45356" lon="-1.37081">
        <ele>2.3</ele>
        <time>2022-08-29T14:29:55Z</time>
      </trkpt>
      <trkpt lat="49.45352" lon="-1.37089">
        <ele>3</ele>
        <time>2022-08-29T14:30:00Z</time>
      </trkpt>
      <trkpt lat="49.45348" lon="-1.37095">
        <ele>3.2</ele>
        <time>2022-08-29T14:30:05Z</time>
      </trkpt>
      <trkpt lat="49.45344" lon="-1.371">
        <ele>3.1</ele>
        <time>2022-08-29T14:30:10Z</time>
      </trkpt>
      <trkpt lat="49.4534" lon="-1.37105">
        <ele>3</ele>
        <time>2022-08-29T14:30:14Z</time>
      </trkpt>
      <trkpt lat="49.45337" lon="-1.3711">
        <ele>3.1</ele>
        <time>2022-08-29T14:30:18Z</time>
      </trkpt>
      <trkpt lat="49.45333" lon="-1.37116">
        <ele>2.9</ele>
        <time>2022-08-29T14:30:21Z</time>
      </trkpt>
      <trkpt lat="49.45329" lon="-1.37122">
        <ele>2.6</ele>
        <time>2022-08-29T14:30:26Z</time>
      </trkpt>
      <trkpt lat="49.45326" lon="-1.37128">
        <ele>2.9</ele>
        <time>2022-08-29T14:30:31Z</time>
      </trkpt>
      <trkpt lat="49.45325" lon="-1.37137">
        <ele>3</ele>
        <time>2022-08-29T14:30:34Z</time>
      </trkpt>
      <trkpt lat="49.45324" lon="-1.37144">
        <ele>3.2</ele>
        <time>2022-08-29T14:30:37Z</time>
      </trkpt>
      <trkpt lat="49.45322" lon="-1.37151">
        <ele>3.2</ele>
        <time>2022-08-29T14:30:41Z</time>
      </trkpt>
      <trkpt lat="49.45321" lon="-1.3716">
        <ele>3.7</ele>
        <time>2022-08-29T14:30:45Z</time>
      </trkpt>
      <trkpt lat="49.45319" lon="-1.37168">
        <ele>3.2</ele>
        <time>2022-08-29T14:30:49Z</time>
      </trkpt>
      <trkpt lat="49.45318" lon="-1.37176">
        <ele>2.9</ele>
        <time>2022-08-29T14:30:53Z</time>
      </trkpt>
      <trkpt lat="49.45317" lon="-1.37183">
        <ele>3</ele>
        <time>2022-08-29T14:30:57Z</time>
      </trkpt>
      <trkpt lat="49.45316" lon="-1.37192">
        <ele>3.3</ele>
        <time>2022-08-29T14:31:00Z</time>
      </trkpt>
      <trkpt lat="49.45316" lon="-1.37199">
        <ele>3.8</ele>
        <time>2022-08-29T14:31:04Z</time>
      </trkpt>
      <trkpt lat="49.45315" lon="-1.37207">
        <ele>3.6</ele>
        <time>2022-08-29T14:31:08Z</time>
      </trkpt>
      <trkpt lat="49.45314" lon="-1.37214">
        <ele>2.7</ele>
        <time>2022-08-29T14:31:11Z</time>
      </trkpt>
      <trkpt lat="49.45313" lon="-1.37224">
        <ele>2.4</ele>
        <time>2022-08-29T14:31:16Z</time>
      </trkpt>
      <trkpt lat="49.45312" lon="-1.37233">
        <ele>2.4</ele>
        <time>2022-08-29T14:31:21Z</time>
      </trkpt>
      <trkpt lat="49.4531" lon="-1.3724">
        <ele>2.9</ele>
        <time>2022-08-29T14:31:25Z</time>
      </trkpt>
      <trkpt lat="49.45311" lon="-1.37247">
        <ele>2.9</ele>
        <time>2022-08-29T14:31:28Z</time>
      </trkpt>
      <trkpt lat="49.45312" lon="-1.37256">
        <ele>2.8</ele>
        <time>2022-08-29T14:31:33Z</time>
      </trkpt>
      <trkpt lat="49.45312" lon="-1.37264">
        <ele>3.1</ele>
        <time>2022-08-29T14:31:37Z</time>
      </trkpt>
      <trkpt lat="49.45314" lon="-1.37273">
        <ele>2.7</ele>
        <time>2022-08-29T14:31:41Z</time>
      </trkpt>
      <trkpt lat="49.45313" lon="-1.37283">
        <ele>3.5</ele>
        <time>2022-08-29T14:31:46Z</time>
      </trkpt>
      <trkpt lat="49.45312" lon="-1.3729">
        <ele>3.5</ele>
        <time>2022-08-29T14:31:49Z</time>
      </trkpt>
      <trkpt lat="49.4531" lon="-1.37297">
        <ele>3.4</ele>
        <time>2022-08-29T14:31:52Z</time>
      </trkpt>
      <trkpt lat="49.45307" lon="-1.37304">
        <ele>3.5</ele>
        <time>2022-08-29T14:31:57Z</time>
      </trkpt>
      <trkpt lat="49.45304" lon="-1.3731">
        <ele>3.3</ele>
        <time>2022-08-29T14:32:00Z</time>
      </trkpt>
      <trkpt lat="49.45301" lon="-1.37317">
        <ele>3.4</ele>
        <time>2022-08-29T14:32:04Z</time>
      </trkpt>
      <trkpt lat="49.453" lon="-1.37324">
        <ele>3.4</ele>
        <time>2022-08-29T14:32:07Z</time>
      </trkpt>
      <trkpt lat="49.45297" lon="-1.37331">
        <ele>3.4</ele>
        <time>2022-08-29T14:32:12Z</time>
      </trkpt>
      <trkpt lat="49.45294" lon="-1.37337">
        <ele>3.6</ele>
        <time>2022-08-29T14:32:15Z</time>
      </trkpt>
      <trkpt lat="49.45292" lon="-1.37343">
        <ele>3.6</ele>
        <time>2022-08-29T14:32:19Z</time>
      </trkpt>
      <trkpt lat="49.45289" lon="-1.37351">
        <ele>3.5</ele>
        <time>2022-08-29T14:32:24Z</time>
      </trkpt>
      <trkpt lat="49.45286" lon="-1.37359">
        <ele>3.5</ele>
        <time>2022-08-29T14:32:29Z</time>
      </trkpt>
      <trkpt lat="49.45284" lon="-1.37366">
        <ele>4.1</ele>
        <time>2022-08-29T14:32:34Z</time>
      </trkpt>
      <trkpt lat="49.45283" lon="-1.37374">
        <ele>4</ele>
        <time>2022-08-29T14:32:38Z</time>
      </trkpt>
      <trkpt lat="49.45282" lon="-1.37383">
        <ele>4.4</ele>
        <time>2022-08-29T14:32:42Z</time>
      </trkpt>
      <trkpt lat="49.45282" lon="-1.37392">
        <ele>4.4</ele>
        <time>2022-08-29T14:32:47Z</time>
      </trkpt>
      <trkpt lat="49.4528" lon="-1.37399">
        <ele>3.9</ele>
        <time>2022-08-29T14:32:51Z</time>
      </trkpt>
      <trkpt lat="49.45278" lon="-1.37407">
        <ele>3.3</ele>
        <time>2022-08-29T14:32:55Z</time>
      </trkpt>
      <trkpt lat="49.45281" lon="-1.37413">
        <ele>3.4</ele>
        <time>2022-08-29T14:33:00Z</time>
      </trkpt>
      <trkpt lat="49.45283" lon="-1.3742">
        <ele>3.3</ele>
        <time>2022-08-29T14:33:04Z</time>
      </trkpt>
      <trkpt lat="49.45282" lon="-1.37428">
        <ele>3.1</ele>
        <time>2022-08-29T14:33:07Z</time>
      </trkpt>
      <trkpt lat="49.45281" lon="-1.37437">
        <ele>3.1</ele>
        <time>2022-08-29T14:33:11Z</time>
      </trkpt>
      <trkpt lat="49.4528" lon="-1.37444">
        <ele>3.9</ele>
        <time>2022-08-29T14:33:14Z</time>
      </trkpt>
      <trkpt lat="49.45279" lon="-1.37451">
        <ele>3.7</ele>
        <time>2022-08-29T14:33:17Z</time>
      </trkpt>
      <trkpt lat="49.45279" lon="-1.3746">
        <ele>4.2</ele>
        <time>2022-08-29T14:33:21Z</time>
      </trkpt>
      <trkpt lat="49.45279" lon="-1.3747">
        <ele>3.9</ele>
        <time>2022-08-29T14:33:26Z</time>
      </trkpt>
      <trkpt lat="49.45279" lon="-1.37478">
        <ele>4.2</ele>
        <time>2022-08-29T14:33:29Z</time>
      </trkpt>
      <trkpt lat="49.4528" lon="-1.37486">
        <ele>4.6</ele>
        <time>2022-08-29T14:33:33Z</time>
      </trkpt>
      <trkpt lat="49.45279" lon="-1.37493">
        <ele>4.6</ele>
        <time>2022-08-29T14:33:36Z</time>
      </trkpt>
      <trkpt lat="49.45277" lon="-1.37501">
        <ele>4.9</ele>
        <time>2022-08-29T14:33:40Z</time>
      </trkpt>
      <trkpt lat="49.45274" lon="-1.37508">
        <ele>5.6</ele>
        <time>2022-08-29T14:33:44Z</time>
      </trkpt>
      <trkpt lat="49.45271" lon="-1.37514">
        <ele>6.2</ele>
        <time>2022-08-29T14:33:48Z</time>
      </trkpt>
      <trkpt lat="49.45267" lon="-1.37522">
        <ele>7.4</ele>
        <time>2022-08-29T14:33:52Z</time>
      </trkpt>
      <trkpt lat="49.45262" lon="-1.37529">
        <ele>7.8</ele>
        <time>2022-08-29T14:33:58Z</time>
      </trkpt>
      <trkpt lat="49.4526" lon="-1.37534">
        <ele>7.9</ele>
        <time>2022-08-29T14:34:01Z</time>
      </trkpt>
      <trkpt lat="49.45256" lon="-1.37539">
        <ele>7.8</ele>
        <time>2022-08-29T14:34:04Z</time>
      </trkpt>
      <trkpt lat="49.45253" lon="-1.37544">
        <ele>7.5</ele>
        <time>2022-08-29T14:34:08Z</time>
      </trkpt>
      <trkpt lat="49.45249" lon="-1.37552">
        <ele>8</ele>
        <time>2022-08-29T14:34:12Z</time>
      </trkpt>
      <trkpt lat="49.45245" lon="-1.37558">
        <ele>8.5</ele>
        <time>2022-08-29T14:34:16Z</time>
      </trkpt>
      <trkpt lat="49.45241" lon="-1.37563">
        <ele>8.8</ele>
        <time>2022-08-29T14:34:20Z</time>
      </trkpt>
      <trkpt lat="49.45238" lon="-1.37568">
        <ele>9.2</ele>
        <time>2022-08-29T14:34:24Z</time>
      </trkpt>
      <trkpt lat="49.45234" lon="-1.37573">
        <ele>8.6</ele>
        <time>2022-08-29T14:34:27Z</time>
      </trkpt>
      <trkpt lat="49.45231" lon="-1.37578">
        <ele>8.9</ele>
        <time>2022-08-29T14:34:31Z</time>
      </trkpt>
      <trkpt lat="49.45227" lon="-1.37583">
        <ele>9.6</ele>
        <time>2022-08-29T14:34:34Z</time>
      </trkpt>
      <trkpt lat="49.45223" lon="-1.37588">
        <ele>9.2</ele>
        <time>2022-08-29T14:34:38Z</time>
      </trkpt>
      <trkpt lat="49.45218" lon="-1.37592">
        <ele>9.2</ele>
        <time>2022-08-29T14:34:42Z</time>
      </trkpt>
      <trkpt lat="49.45213" lon="-1.37597">
        <ele>9.6</ele>
        <time>2022-08-29T14:34:46Z</time>
      </trkpt>
      <trkpt lat="49.45209" lon="-1.37601">
        <ele>9.2</ele>
        <time>2022-08-29T14:34:49Z</time>
      </trkpt>
      <trkpt lat="49.45204" lon="-1.37606">
        <ele>9.5</ele>
        <time>2022-08-29T14:34:53Z</time>
      </trkpt>
      <trkpt lat="49.45199" lon="-1.3761">
        <ele>9.5</ele>
        <time>2022-08-29T14:34:57Z</time>
      </trkpt>
      <trkpt lat="49.45195" lon="-1.37615">
        <ele>9.3</ele>
        <time>2022-08-29T14:35:01Z</time>
      </trkpt>
      <trkpt lat="49.4519" lon="-1.37621">
        <ele>9.7</ele>
        <time>2022-08-29T14:35:05Z</time>
      </trkpt>
      <trkpt lat="49.45185" lon="-1.37625">
        <ele>9.8</ele>
        <time>2022-08-29T14:35:09Z</time>
      </trkpt>
      <trkpt lat="49.4518" lon="-1.37629">
        <ele>9.6</ele>
        <time>2022-08-29T14:35:13Z</time>
      </trkpt>
      <trkpt lat="49.45176" lon="-1.37632">
        <ele>9.4</ele>
        <time>2022-08-29T14:35:16Z</time>
      </trkpt>
      <trkpt lat="49.45172" lon="-1.37635">
        <ele>10</ele>
        <time>2022-08-29T14:35:20Z</time>
      </trkpt>
      <trkpt lat="49.45168" lon="-1.37638">
        <ele>9.6</ele>
        <time>2022-08-29T14:35:23Z</time>
      </trkpt>
      <trkpt lat="49.45163" lon="-1.37642">
        <ele>10.1</ele>
        <time>2022-08-29T14:35:27Z</time>
      </trkpt>
      <trkpt lat="49.45158" lon="-1.37646">
        <ele>9.5</ele>
        <time>2022-08-29T14:35:31Z</time>
      </trkpt>
      <trkpt lat="49.45153" lon="-1.3765">
        <ele>9.6</ele>
        <time>2022-08-29T14:35:35Z</time>
      </trkpt>
      <trkpt lat="49.45148" lon="-1.37654">
        <ele>8.8</ele>
        <time>2022-08-29T14:35:40Z</time>
      </trkpt>
      <trkpt lat="49.45143" lon="-1.37657">
        <ele>8.6</ele>
        <time>2022-08-29T14:35:43Z</time>
      </trkpt>
      <trkpt lat="49.45139" lon="-1.37661">
        <ele>9.4</ele>
        <time>2022-08-29T14:35:46Z</time>
      </trkpt>
      <trkpt lat="49.45135" lon="-1.37665">
        <ele>8.9</ele>
        <time>2022-08-29T14:35:50Z</time>
      </trkpt>
      <trkpt lat="49.4513" lon="-1.3767">
        <ele>8.7</ele>
        <time>2022-08-29T14:35:54Z</time>
      </trkpt>
      <trkpt lat="49.45126" lon="-1.37674">
        <ele>8.4</ele>
        <time>2022-08-29T14:35:58Z</time>
      </trkpt>
      <trkpt lat="49.4512" lon="-1.37678">
        <ele>7.9</ele>
        <time>2022-08-29T14:36:03Z</time>
      </trkpt>
      <trkpt lat="49.45116" lon="-1.37681">
        <ele>8.3</ele>
        <time>2022-08-29T14:36:06Z</time>
      </trkpt>
      <trkpt lat="49.45111" lon="-1.37684">
        <ele>8</ele>
        <time>2022-08-29T14:36:10Z</time>
      </trkpt>
      <trkpt lat="49.45106" lon="-1.37688">
        <ele>7.6</ele>
        <time>2022-08-29T14:36:14Z</time>
      </trkpt>
      <trkpt lat="49.45102" lon="-1.37693">
        <ele>7.9</ele>
        <time>2022-08-29T14:36:19Z</time>
      </trkpt>
      <trkpt lat="49.45098" lon="-1.37697">
        <ele>8.1</ele>
        <time>2022-08-29T14:36:22Z</time>
      </trkpt>
      <trkpt lat="49.45094" lon="-1.37701">
        <ele>7.9</ele>
        <time>2022-08-29T14:36:26Z</time>
      </trkpt>
      <trkpt lat="49.45089" lon="-1.37704">
        <ele>8.1</ele>
        <time>2022-08-29T14:36:30Z</time>
      </trkpt>
      <trkpt lat="49.45085" lon="-1.37707">
        <ele>7.3</ele>
        <time>2022-08-29T14:36:33Z</time>
      </trkpt>
      <trkpt lat="49.45081" lon="-1.37712">
        <ele>6.5</ele>
        <time>2022-08-29T14:36:37Z</time>
      </trkpt>
      <trkpt lat="49.45077" lon="-1.37716">
        <ele>6.5</ele>
        <time>2022-08-29T14:36:41Z</time>
      </trkpt>
      <trkpt lat="49.45073" lon="-1.3772">
        <ele>5</ele>
        <time>2022-08-29T14:36:44Z</time>
      </trkpt>
      <trkpt lat="49.45071" lon="-1.37726">
        <ele>7.8</ele>
        <time>2022-08-29T14:37:04Z</time>
      </trkpt>
      <trkpt lat="49.45069" lon="-1.37733">
        <ele>6.7</ele>
        <time>2022-08-29T14:37:13Z</time>
      </trkpt>
      <trkpt lat="49.45064" lon="-1.37735">
        <ele>5.1</ele>
        <time>2022-08-29T14:37:25Z</time>
      </trkpt>
      <trkpt lat="49.4506" lon="-1.37739">
        <ele>5.2</ele>
        <time>2022-08-29T14:37:29Z</time>
      </trkpt>
      <trkpt lat="49.45055" lon="-1.37743">
        <ele>5.6</ele>
        <time>2022-08-29T14:37:39Z</time>
      </trkpt>
      <trkpt lat="49.4505" lon="-1.37745">
        <ele>5.6</ele>
        <time>2022-08-29T14:37:43Z</time>
      </trkpt>
      <trkpt lat="49.45046" lon="-1.37749">
        <ele>5.7</ele>
        <time>2022-08-29T14:37:46Z</time>
      </trkpt>
      <trkpt lat="49.45042" lon="-1.37752">
        <ele>5.9</ele>
        <time>2022-08-29T14:37:49Z</time>
      </trkpt>
      <trkpt lat="49.45037" lon="-1.37756">
        <ele>5.7</ele>
        <time>2022-08-29T14:37:53Z</time>
      </trkpt>
      <trkpt lat="49.45032" lon="-1.37759">
        <ele>5.3</ele>
        <time>2022-08-29T14:37:58Z</time>
      </trkpt>
      <trkpt lat="49.45028" lon="-1.37763">
        <ele>5.4</ele>
        <time>2022-08-29T14:38:02Z</time>
      </trkpt>
      <trkpt lat="49.45024" lon="-1.37766">
        <ele>5.9</ele>
        <time>2022-08-29T14:38:06Z</time>
      </trkpt>
      <trkpt lat="49.45019" lon="-1.3777">
        <ele>5.8</ele>
        <time>2022-08-29T14:38:11Z</time>
      </trkpt>
      <trkpt lat="49.45014" lon="-1.37772">
        <ele>5.9</ele>
        <time>2022-08-29T14:38:14Z</time>
      </trkpt>
      <trkpt lat="49.45009" lon="-1.37778">
        <ele>6.2</ele>
        <time>2022-08-29T14:38:19Z</time>
      </trkpt>
      <trkpt lat="49.45004" lon="-1.37781">
        <ele>6.5</ele>
        <time>2022-08-29T14:38:23Z</time>
      </trkpt>
      <trkpt lat="49.45" lon="-1.37784">
        <ele>6.2</ele>
        <time>2022-08-29T14:38:27Z</time>
      </trkpt>
      <trkpt lat="49.44995" lon="-1.37787">
        <ele>6.2</ele>
        <time>2022-08-29T14:38:31Z</time>
      </trkpt>
      <trkpt lat="49.44991" lon="-1.37791">
        <ele>6.2</ele>
        <time>2022-08-29T14:38:35Z</time>
      </trkpt>
      <trkpt lat="49.44986" lon="-1.37796">
        <ele>6.1</ele>
        <time>2022-08-29T14:38:39Z</time>
      </trkpt>
      <trkpt lat="49.44982" lon="-1.378">
        <ele>6.2</ele>
        <time>2022-08-29T14:38:44Z</time>
      </trkpt>
      <trkpt lat="49.44978" lon="-1.37802">
        <ele>6.3</ele>
        <time>2022-08-29T14:38:47Z</time>
      </trkpt>
      <trkpt lat="49.44974" lon="-1.37805">
        <ele>6.7</ele>
        <time>2022-08-29T14:38:50Z</time>
      </trkpt>
      <trkpt lat="49.4497" lon="-1.3781">
        <ele>6.6</ele>
        <time>2022-08-29T14:38:54Z</time>
      </trkpt>
      <trkpt lat="49.44964" lon="-1.37812">
        <ele>6.3</ele>
        <time>2022-08-29T14:38:59Z</time>
      </trkpt>
      <trkpt lat="49.44959" lon="-1.37814">
        <ele>6.7</ele>
        <time>2022-08-29T14:39:05Z</time>
      </trkpt>
      <trkpt lat="49.44956" lon="-1.37819">
        <ele>5.9</ele>
        <time>2022-08-29T14:39:13Z</time>
      </trkpt>
      <trkpt lat="49.44951" lon="-1.37824">
        <ele>5</ele>
        <time>2022-08-29T14:39:16Z</time>
      </trkpt>
      <trkpt lat="49.44947" lon="-1.37828">
        <ele>4.8</ele>
        <time>2022-08-29T14:39:19Z</time>
      </trkpt>
      <trkpt lat="49.44942" lon="-1.37831">
        <ele>5.3</ele>
        <time>2022-08-29T14:39:22Z</time>
      </trkpt>
      <trkpt lat="49.44938" lon="-1.37836">
        <ele>6.1</ele>
        <time>2022-08-29T14:39:25Z</time>
      </trkpt>
      <trkpt lat="49.44933" lon="-1.37841">
        <ele>6.1</ele>
        <time>2022-08-29T14:39:28Z</time>
      </trkpt>
      <trkpt lat="49.44929" lon="-1.37845">
        <ele>5.5</ele>
        <time>2022-08-29T14:39:31Z</time>
      </trkpt>
      <trkpt lat="49.44924" lon="-1.37849">
        <ele>4.8</ele>
        <time>2022-08-29T14:39:35Z</time>
      </trkpt>
      <trkpt lat="49.4492" lon="-1.37854">
        <ele>4.4</ele>
        <time>2022-08-29T14:39:38Z</time>
      </trkpt>
      <trkpt lat="49.44915" lon="-1.37859">
        <ele>4.6</ele>
        <time>2022-08-29T14:39:42Z</time>
      </trkpt>
      <trkpt lat="49.44911" lon="-1.37864">
        <ele>3.7</ele>
        <time>2022-08-29T14:39:46Z</time>
      </trkpt>
      <trkpt lat="49.44906" lon="-1.37868">
        <ele>4.6</ele>
        <time>2022-08-29T14:39:49Z</time>
      </trkpt>
      <trkpt lat="49.44902" lon="-1.37871">
        <ele>5.2</ele>
        <time>2022-08-29T14:39:53Z</time>
      </trkpt>
      <trkpt lat="49.44897" lon="-1.37874">
        <ele>5.8</ele>
        <time>2022-08-29T14:39:57Z</time>
      </trkpt>
      <trkpt lat="49.44892" lon="-1.37874">
        <ele>5.8</ele>
        <time>2022-08-29T14:40:01Z</time>
      </trkpt>
      <trkpt lat="49.44886" lon="-1.37875">
        <ele>5.2</ele>
        <time>2022-08-29T14:40:05Z</time>
      </trkpt>
      <trkpt lat="49.44882" lon="-1.37874">
        <ele>5.7</ele>
        <time>2022-08-29T14:40:09Z</time>
      </trkpt>
      <trkpt lat="49.44877" lon="-1.37875">
        <ele>6</ele>
        <time>2022-08-29T14:40:13Z</time>
      </trkpt>
      <trkpt lat="49.44872" lon="-1.37878">
        <ele>6.3</ele>
        <time>2022-08-29T14:40:16Z</time>
      </trkpt>
      <trkpt lat="49.44875" lon="-1.37884">
        <ele>6.6</ele>
        <time>2022-08-29T14:40:31Z</time>
      </trkpt>
      <trkpt lat="49.44871" lon="-1.3788">
        <ele>6</ele>
        <time>2022-08-29T14:41:11Z</time>
      </trkpt>
      <trkpt lat="49.44866" lon="-1.3788">
        <ele>5.9</ele>
        <time>2022-08-29T14:41:15Z</time>
      </trkpt>
      <trkpt lat="49.44861" lon="-1.37878">
        <ele>5.6</ele>
        <time>2022-08-29T14:41:19Z</time>
      </trkpt>
      <trkpt lat="49.44857" lon="-1.37878">
        <ele>6.1</ele>
        <time>2022-08-29T14:41:24Z</time>
      </trkpt>
      <trkpt lat="49.4485" lon="-1.37878">
        <ele>5.7</ele>
        <time>2022-08-29T14:41:30Z</time>
      </trkpt>
      <trkpt lat="49.44846" lon="-1.37877">
        <ele>5.7</ele>
        <time>2022-08-29T14:41:34Z</time>
      </trkpt>
      <trkpt lat="49.44841" lon="-1.37879">
        <ele>5.5</ele>
        <time>2022-08-29T14:41:37Z</time>
      </trkpt>
      <trkpt lat="49.44835" lon="-1.37882">
        <ele>6</ele>
        <time>2022-08-29T14:41:40Z</time>
      </trkpt>
      <trkpt lat="49.44831" lon="-1.37886">
        <ele>5.8</ele>
        <time>2022-08-29T14:41:44Z</time>
      </trkpt>
      <trkpt lat="49.44827" lon="-1.37891">
        <ele>5.7</ele>
        <time>2022-08-29T14:41:47Z</time>
      </trkpt>
      <trkpt lat="49.44825" lon="-1.37897">
        <ele>5.2</ele>
        <time>2022-08-29T14:41:51Z</time>
      </trkpt>
      <trkpt lat="49.4482" lon="-1.379">
        <ele>4.3</ele>
        <time>2022-08-29T14:41:55Z</time>
      </trkpt>
      <trkpt lat="49.4482" lon="-1.37909">
        <ele>4.6</ele>
        <time>2022-08-29T14:42:02Z</time>
      </trkpt>
      <trkpt lat="49.44819" lon="-1.37916">
        <ele>5.2</ele>
        <time>2022-08-29T14:42:05Z</time>
      </trkpt>
      <trkpt lat="49.44819" lon="-1.37923">
        <ele>5.2</ele>
        <time>2022-08-29T14:42:08Z</time>
      </trkpt>
      <trkpt lat="49.44817" lon="-1.3793">
        <ele>5.2</ele>
        <time>2022-08-29T14:42:12Z</time>
      </trkpt>
      <trkpt lat="49.44814" lon="-1.37936">
        <ele>4.8</ele>
        <time>2022-08-29T14:42:15Z</time>
      </trkpt>
      <trkpt lat="49.44811" lon="-1.37944">
        <ele>4.8</ele>
        <time>2022-08-29T14:42:20Z</time>
      </trkpt>
      <trkpt lat="49.44808" lon="-1.37952">
        <ele>4.7</ele>
        <time>2022-08-29T14:42:25Z</time>
      </trkpt>
      <trkpt lat="49.44805" lon="-1.37957">
        <ele>5</ele>
        <time>2022-08-29T14:42:28Z</time>
      </trkpt>
      <trkpt lat="49.44801" lon="-1.37964">
        <ele>5.4</ele>
        <time>2022-08-29T14:42:31Z</time>
      </trkpt>
      <trkpt lat="49.44797" lon="-1.37969">
        <ele>5.4</ele>
        <time>2022-08-29T14:42:35Z</time>
      </trkpt>
      <trkpt lat="49.44793" lon="-1.37974">
        <ele>5.5</ele>
        <time>2022-08-29T14:42:38Z</time>
      </trkpt>
      <trkpt lat="49.4479" lon="-1.3798">
        <ele>4.9</ele>
        <time>2022-08-29T14:42:41Z</time>
      </trkpt>
      <trkpt lat="49.44784" lon="-1.37981">
        <ele>4.8</ele>
        <time>2022-08-29T14:42:46Z</time>
      </trkpt>
      <trkpt lat="49.44777" lon="-1.37977">
        <ele>8.9</ele>
        <time>2022-08-29T14:42:51Z</time>
      </trkpt>
      <trkpt lat="49.44772" lon="-1.37972">
        <ele>8.9</ele>
        <time>2022-08-29T14:42:56Z</time>
      </trkpt>
      <trkpt lat="49.44768" lon="-1.37967">
        <ele>8.9</ele>
        <time>2022-08-29T14:43:01Z</time>
      </trkpt>
      <trkpt lat="49.44768" lon="-1.3796">
        <ele>8.9</ele>
        <time>2022-08-29T14:43:13Z</time>
      </trkpt>
      <trkpt lat="49.44765" lon="-1.37954">
        <ele>8.9</ele>
        <time>2022-08-29T14:43:17Z</time>
      </trkpt>
      <trkpt lat="49.44763" lon="-1.37947">
        <ele>8.9</ele>
        <time>2022-08-29T14:43:21Z</time>
      </trkpt>
      <trkpt lat="49.4476" lon="-1.3794">
        <ele>8.9</ele>
        <time>2022-08-29T14:43:24Z</time>
      </trkpt>
      <trkpt lat="49.44757" lon="-1.37934">
        <ele>8.9</ele>
        <time>2022-08-29T14:43:27Z</time>
      </trkpt>
      <trkpt lat="49.44754" lon="-1.37927">
        <ele>8.9</ele>
        <time>2022-08-29T14:43:30Z</time>
      </trkpt>
      <trkpt lat="49.44752" lon="-1.37921">
        <ele>8.9</ele>
        <time>2022-08-29T14:43:34Z</time>
      </trkpt>
      <trkpt lat="49.44747" lon="-1.37918">
        <ele>5.8</ele>
        <time>2022-08-29T14:43:44Z</time>
      </trkpt>
      <trkpt lat="49.44744" lon="-1.3791">
        <ele>5.3</ele>
        <time>2022-08-29T14:43:47Z</time>
      </trkpt>
      <trkpt lat="49.4474" lon="-1.37905">
        <ele>5.4</ele>
        <time>2022-08-29T14:43:50Z</time>
      </trkpt>
      <trkpt lat="49.44737" lon="-1.37898">
        <ele>5.8</ele>
        <time>2022-08-29T14:43:55Z</time>
      </trkpt>
      <trkpt lat="49.44734" lon="-1.37892">
        <ele>7.6</ele>
        <time>2022-08-29T14:43:58Z</time>
      </trkpt>
      <trkpt lat="49.44732" lon="-1.37886">
        <ele>8.2</ele>
        <time>2022-08-29T14:44:01Z</time>
      </trkpt>
      <trkpt lat="49.4473" lon="-1.3788">
        <ele>7.2</ele>
        <time>2022-08-29T14:44:07Z</time>
      </trkpt>
      <trkpt lat="49.44726" lon="-1.37873">
        <ele>13.4</ele>
        <time>2022-08-29T14:44:11Z</time>
      </trkpt>
      <trkpt lat="49.44723" lon="-1.37866">
        <ele>13.4</ele>
        <time>2022-08-29T14:44:16Z</time>
      </trkpt>
      <trkpt lat="49.4472" lon="-1.37861">
        <ele>8.4</ele>
        <time>2022-08-29T14:44:20Z</time>
      </trkpt>
      <trkpt lat="49.44717" lon="-1.37854">
        <ele>8.6</ele>
        <time>2022-08-29T14:44:25Z</time>
      </trkpt>
      <trkpt lat="49.44714" lon="-1.37848">
        <ele>13.4</ele>
        <time>2022-08-29T14:44:28Z</time>
      </trkpt>
      <trkpt lat="49.44711" lon="-1.37842">
        <ele>13.4</ele>
        <time>2022-08-29T14:44:31Z</time>
      </trkpt>
      <trkpt lat="49.44708" lon="-1.37834">
        <ele>13.4</ele>
        <time>2022-08-29T14:44:35Z</time>
      </trkpt>
      <trkpt lat="49.44704" lon="-1.37828">
        <ele>13.4</ele>
        <time>2022-08-29T14:44:39Z</time>
      </trkpt>
      <trkpt lat="49.44701" lon="-1.37823">
        <ele>13.4</ele>
        <time>2022-08-29T14:44:42Z</time>
      </trkpt>
      <trkpt lat="49.44698" lon="-1.37816">
        <ele>13.4</ele>
        <time>2022-08-29T14:44:46Z</time>
      </trkpt>
      <trkpt lat="49.44696" lon="-1.3781">
        <ele>15.7</ele>
        <time>2022-08-29T14:44:50Z</time>
      </trkpt>
      <trkpt lat="49.44691" lon="-1.37804">
        <ele>15.7</ele>
        <time>2022-08-29T14:44:55Z</time>
      </trkpt>
      <trkpt lat="49.44688" lon="-1.37798">
        <ele>17.8</ele>
        <time>2022-08-29T14:44:58Z</time>
      </trkpt>
      <trkpt lat="49.44685" lon="-1.37792">
        <ele>17.8</ele>
        <time>2022-08-29T14:45:01Z</time>
      </trkpt>
      <trkpt lat="49.44682" lon="-1.37784">
        <ele>17.8</ele>
        <time>2022-08-29T14:45:05Z</time>
      </trkpt>
      <trkpt lat="49.44679" lon="-1.37776">
        <ele>17.8</ele>
        <time>2022-08-29T14:45:10Z</time>
      </trkpt>
      <trkpt lat="49.44676" lon="-1.37769">
        <ele>17.8</ele>
        <time>2022-08-29T14:45:14Z</time>
      </trkpt>
      <trkpt lat="49.44675" lon="-1.37762">
        <ele>17.8</ele>
        <time>2022-08-29T14:45:18Z</time>
      </trkpt>
      <trkpt lat="49.44672" lon="-1.37755">
        <ele>17.8</ele>
        <time>2022-08-29T14:45:22Z</time>
      </trkpt>
      <trkpt lat="49.44668" lon="-1.37748">
        <ele>17.8</ele>
        <time>2022-08-29T14:45:26Z</time>
      </trkpt>
      <trkpt lat="49.44664" lon="-1.37742">
        <ele>17.8</ele>
        <time>2022-08-29T14:45:30Z</time>
      </trkpt>
      <trkpt lat="49.44661" lon="-1.37737">
        <ele>17.8</ele>
        <time>2022-08-29T14:45:33Z</time>
      </trkpt>
      <trkpt lat="49.44655" lon="-1.37735">
        <ele>17.8</ele>
        <time>2022-08-29T14:45:38Z</time>
      </trkpt>
      <trkpt lat="49.4465" lon="-1.37738">
        <ele>17.8</ele>
        <time>2022-08-29T14:45:42Z</time>
      </trkpt>
      <trkpt lat="49.44647" lon="-1.37744">
        <ele>17.8</ele>
        <time>2022-08-29T14:45:45Z</time>
      </trkpt>
      <trkpt lat="49.44645" lon="-1.37751">
        <ele>17.8</ele>
        <time>2022-08-29T14:45:48Z</time>
      </trkpt>
      <trkpt lat="49.44644" lon="-1.37758">
        <ele>17.8</ele>
        <time>2022-08-29T14:45:51Z</time>
      </trkpt>
      <trkpt lat="49.44643" lon="-1.37766">
        <ele>17.8</ele>
        <time>2022-08-29T14:45:54Z</time>
      </trkpt>
      <trkpt lat="49.44641" lon="-1.37772">
        <ele>17.8</ele>
        <time>2022-08-29T14:45:58Z</time>
      </trkpt>
      <trkpt lat="49.44638" lon="-1.37778">
        <ele>17.8</ele>
        <time>2022-08-29T14:46:01Z</time>
      </trkpt>
      <trkpt lat="49.44634" lon="-1.37783">
        <ele>17.8</ele>
        <time>2022-08-29T14:46:04Z</time>
      </trkpt>
      <trkpt lat="49.44631" lon="-1.37789">
        <ele>17.8</ele>
        <time>2022-08-29T14:46:07Z</time>
      </trkpt>
      <trkpt lat="49.44628" lon="-1.37795">
        <ele>17.8</ele>
        <time>2022-08-29T14:46:10Z</time>
      </trkpt>
      <trkpt lat="49.44626" lon="-1.37803">
        <ele>17.8</ele>
        <time>2022-08-29T14:46:14Z</time>
      </trkpt>
      <trkpt lat="49.44626" lon="-1.3781">
        <ele>19.9</ele>
        <time>2022-08-29T14:46:37Z</time>
      </trkpt>
      <trkpt lat="49.44624" lon="-1.37817">
        <ele>16.1</ele>
        <time>2022-08-29T14:46:40Z</time>
      </trkpt>
      <trkpt lat="49.4462" lon="-1.37824">
        <ele>15.9</ele>
        <time>2022-08-29T14:46:44Z</time>
      </trkpt>
      <trkpt lat="49.44616" lon="-1.3783">
        <ele>16.1</ele>
        <time>2022-08-29T14:46:46Z</time>
      </trkpt>
      <trkpt lat="49.44613" lon="-1.37835">
        <ele>16.3</ele>
        <time>2022-08-29T14:46:49Z</time>
      </trkpt>
      <trkpt lat="49.44609" lon="-1.37843">
        <ele>19.9</ele>
        <time>2022-08-29T14:46:53Z</time>
      </trkpt>
      <trkpt lat="49.44607" lon="-1.3785">
        <ele>19.9</ele>
        <time>2022-08-29T14:46:57Z</time>
      </trkpt>
      <trkpt lat="49.44605" lon="-1.37856">
        <ele>19.9</ele>
        <time>2022-08-29T14:47:00Z</time>
      </trkpt>
      <trkpt lat="49.44603" lon="-1.37863">
        <ele>20.1</ele>
        <time>2022-08-29T14:47:03Z</time>
      </trkpt>
      <trkpt lat="49.446" lon="-1.3787">
        <ele>20.1</ele>
        <time>2022-08-29T14:47:07Z</time>
      </trkpt>
      <trkpt lat="49.44598" lon="-1.37876">
        <ele>20.1</ele>
        <time>2022-08-29T14:47:10Z</time>
      </trkpt>
      <trkpt lat="49.44596" lon="-1.37883">
        <ele>20.1</ele>
        <time>2022-08-29T14:47:13Z</time>
      </trkpt>
      <trkpt lat="49.44595" lon="-1.37891">
        <ele>20.1</ele>
        <time>2022-08-29T14:47:18Z</time>
      </trkpt>
      <trkpt lat="49.44594" lon="-1.37899">
        <ele>20.1</ele>
        <time>2022-08-29T14:47:21Z</time>
      </trkpt>
      <trkpt lat="49.44593" lon="-1.37906">
        <ele>20.1</ele>
        <time>2022-08-29T14:47:24Z</time>
      </trkpt>
      <trkpt lat="49.44593" lon="-1.37914">
        <ele>20.1</ele>
        <time>2022-08-29T14:47:28Z</time>
      </trkpt>
      <trkpt lat="49.44593" lon="-1.37922">
        <ele>20.1</ele>
        <time>2022-08-29T14:47:31Z</time>
      </trkpt>
      <trkpt lat="49.44592" lon="-1.37931">
        <ele>20.1</ele>
        <time>2022-08-29T14:47:35Z</time>
      </trkpt>
      <trkpt lat="49.44591" lon="-1.37939">
        <ele>20.1</ele>
        <time>2022-08-29T14:47:39Z</time>
      </trkpt>
      <trkpt lat="49.4459" lon="-1.37947">
        <ele>20.1</ele>
        <time>2022-08-29T14:47:43Z</time>
      </trkpt>
      <trkpt lat="49.44588" lon="-1.37955">
        <ele>20.1</ele>
        <time>2022-08-29T14:47:47Z</time>
      </trkpt>
      <trkpt lat="49.44587" lon="-1.37962">
        <ele>20.1</ele>
        <time>2022-08-29T14:47:50Z</time>
      </trkpt>
      <trkpt lat="49.44586" lon="-1.37971">
        <ele>20.1</ele>
        <time>2022-08-29T14:47:54Z</time>
      </trkpt>
      <trkpt lat="49.44583" lon="-1.3798">
        <ele>20.1</ele>
        <time>2022-08-29T14:47:59Z</time>
      </trkpt>
      <trkpt lat="49.4458" lon="-1.37986">
        <ele>17.4</ele>
        <time>2022-08-29T14:48:02Z</time>
      </trkpt>
      <trkpt lat="49.44577" lon="-1.37994">
        <ele>17.4</ele>
        <time>2022-08-29T14:48:06Z</time>
      </trkpt>
      <trkpt lat="49.44574" lon="-1.37998">
        <ele>17.4</ele>
        <time>2022-08-29T14:48:09Z</time>
      </trkpt>
      <trkpt lat="49.4457" lon="-1.38005">
        <ele>17.4</ele>
        <time>2022-08-29T14:48:14Z</time>
      </trkpt>
      <trkpt lat="49.44567" lon="-1.38012">
        <ele>19.7</ele>
        <time>2022-08-29T14:48:18Z</time>
      </trkpt>
      <trkpt lat="49.44564" lon="-1.38018">
        <ele>19.7</ele>
        <time>2022-08-29T14:48:22Z</time>
      </trkpt>
      <trkpt lat="49.44562" lon="-1.38024">
        <ele>19.7</ele>
        <time>2022-08-29T14:48:25Z</time>
      </trkpt>
      <trkpt lat="49.44559" lon="-1.3803">
        <ele>19.7</ele>
        <time>2022-08-29T14:48:28Z</time>
      </trkpt>
      <trkpt lat="49.44556" lon="-1.38037">
        <ele>19.7</ele>
        <time>2022-08-29T14:48:33Z</time>
      </trkpt>
      <trkpt lat="49.44553" lon="-1.38043">
        <ele>17.4</ele>
        <time>2022-08-29T14:48:36Z</time>
      </trkpt>
      <trkpt lat="49.4455" lon="-1.38049">
        <ele>17.4</ele>
        <time>2022-08-29T14:48:39Z</time>
      </trkpt>
      <trkpt lat="49.44547" lon="-1.38056">
        <ele>19.8</ele>
        <time>2022-08-29T14:48:43Z</time>
      </trkpt>
      <trkpt lat="49.44543" lon="-1.38062">
        <ele>19.7</ele>
        <time>2022-08-29T14:48:47Z</time>
      </trkpt>
      <trkpt lat="49.44539" lon="-1.38067">
        <ele>19.8</ele>
        <time>2022-08-29T14:48:50Z</time>
      </trkpt>
      <trkpt lat="49.44537" lon="-1.38073">
        <ele>19.8</ele>
        <time>2022-08-29T14:48:54Z</time>
      </trkpt>
      <trkpt lat="49.44533" lon="-1.3808">
        <ele>19.8</ele>
        <time>2022-08-29T14:48:58Z</time>
      </trkpt>
      <trkpt lat="49.4453" lon="-1.38086">
        <ele>19.7</ele>
        <time>2022-08-29T14:49:02Z</time>
      </trkpt>
      <trkpt lat="49.44527" lon="-1.38095">
        <ele>19.8</ele>
        <time>2022-08-29T14:49:07Z</time>
      </trkpt>
      <trkpt lat="49.44523" lon="-1.38104">
        <ele>19.8</ele>
        <time>2022-08-29T14:49:12Z</time>
      </trkpt>
      <trkpt lat="49.4452" lon="-1.3811">
        <ele>19.8</ele>
        <time>2022-08-29T14:49:15Z</time>
      </trkpt>
      <trkpt lat="49.44516" lon="-1.38117">
        <ele>19.8</ele>
        <time>2022-08-29T14:49:20Z</time>
      </trkpt>
      <trkpt lat="49.44513" lon="-1.38123">
        <ele>19.8</ele>
        <time>2022-08-29T14:49:23Z</time>
      </trkpt>
      <trkpt lat="49.4451" lon="-1.38128">
        <ele>19.8</ele>
        <time>2022-08-29T14:49:26Z</time>
      </trkpt>
      <trkpt lat="49.44506" lon="-1.38135">
        <ele>19.8</ele>
        <time>2022-08-29T14:49:30Z</time>
      </trkpt>
      <trkpt lat="49.44501" lon="-1.3814">
        <ele>19.8</ele>
        <time>2022-08-29T14:49:35Z</time>
      </trkpt>
      <trkpt lat="49.44492" lon="-1.38156">
        <ele>19.8</ele>
        <time>2022-08-29T14:49:44Z</time>
      </trkpt>
      <trkpt lat="49.44488" lon="-1.38161">
        <ele>19.8</ele>
        <time>2022-08-29T14:49:48Z</time>
      </trkpt>
      <trkpt lat="49.44485" lon="-1.38168">
        <ele>16.3</ele>
        <time>2022-08-29T14:49:52Z</time>
      </trkpt>
      <trkpt lat="49.44482" lon="-1.38174">
        <ele>16.1</ele>
        <time>2022-08-29T14:49:55Z</time>
      </trkpt>
      <trkpt lat="49.44479" lon="-1.38182">
        <ele>15.7</ele>
        <time>2022-08-29T14:49:59Z</time>
      </trkpt>
      <trkpt lat="49.44477" lon="-1.38188">
        <ele>15.9</ele>
        <time>2022-08-29T14:50:02Z</time>
      </trkpt>
      <trkpt lat="49.44475" lon="-1.38196">
        <ele>16.3</ele>
        <time>2022-08-29T14:50:06Z</time>
      </trkpt>
      <trkpt lat="49.44473" lon="-1.38202">
        <ele>15.9</ele>
        <time>2022-08-29T14:50:09Z</time>
      </trkpt>
      <trkpt lat="49.4447" lon="-1.38208">
        <ele>16.1</ele>
        <time>2022-08-29T14:50:12Z</time>
      </trkpt>
      <trkpt lat="49.44467" lon="-1.38216">
        <ele>16.7</ele>
        <time>2022-08-29T14:50:16Z</time>
      </trkpt>
      <trkpt lat="49.44464" lon="-1.38222">
        <ele>17.2</ele>
        <time>2022-08-29T14:50:20Z</time>
      </trkpt>
      <trkpt lat="49.44461" lon="-1.38228">
        <ele>17.4</ele>
        <time>2022-08-29T14:50:23Z</time>
      </trkpt>
      <trkpt lat="49.44457" lon="-1.38234">
        <ele>17</ele>
        <time>2022-08-29T14:50:28Z</time>
      </trkpt>
      <trkpt lat="49.44454" lon="-1.3824">
        <ele>17.4</ele>
        <time>2022-08-29T14:50:31Z</time>
      </trkpt>
      <trkpt lat="49.44451" lon="-1.38245">
        <ele>17.2</ele>
        <time>2022-08-29T14:50:34Z</time>
      </trkpt>
      <trkpt lat="49.44446" lon="-1.38251">
        <ele>17.7</ele>
        <time>2022-08-29T14:50:39Z</time>
      </trkpt>
      <trkpt lat="49.44442" lon="-1.38258">
        <ele>17.1</ele>
        <time>2022-08-29T14:50:43Z</time>
      </trkpt>
      <trkpt lat="49.44439" lon="-1.38265">
        <ele>16.6</ele>
        <time>2022-08-29T14:50:48Z</time>
      </trkpt>
      <trkpt lat="49.44436" lon="-1.38271">
        <ele>17</ele>
        <time>2022-08-29T14:50:52Z</time>
      </trkpt>
      <trkpt lat="49.44432" lon="-1.38278">
        <ele>17.2</ele>
        <time>2022-08-29T14:50:56Z</time>
      </trkpt>
      <trkpt lat="49.44428" lon="-1.38284">
        <ele>16.5</ele>
        <time>2022-08-29T14:51:00Z</time>
      </trkpt>
      <trkpt lat="49.44425" lon="-1.3829">
        <ele>16.5</ele>
        <time>2022-08-29T14:51:03Z</time>
      </trkpt>
      <trkpt lat="49.44421" lon="-1.38296">
        <ele>16.2</ele>
        <time>2022-08-29T14:51:07Z</time>
      </trkpt>
      <trkpt lat="49.44419" lon="-1.38302">
        <ele>16.6</ele>
        <time>2022-08-29T14:51:10Z</time>
      </trkpt>
      <trkpt lat="49.44415" lon="-1.38309">
        <ele>16.7</ele>
        <time>2022-08-29T14:51:14Z</time>
      </trkpt>
      <trkpt lat="49.44411" lon="-1.38316">
        <ele>16.9</ele>
        <time>2022-08-29T14:51:18Z</time>
      </trkpt>
      <trkpt lat="49.44408" lon="-1.38321">
        <ele>17.2</ele>
        <time>2022-08-29T14:51:22Z</time>
      </trkpt>
      <trkpt lat="49.44405" lon="-1.38327">
        <ele>17.3</ele>
        <time>2022-08-29T14:51:26Z</time>
      </trkpt>
      <trkpt lat="49.44401" lon="-1.38333">
        <ele>17.2</ele>
        <time>2022-08-29T14:51:30Z</time>
      </trkpt>
      <trkpt lat="49.44397" lon="-1.3834">
        <ele>17</ele>
        <time>2022-08-29T14:51:34Z</time>
      </trkpt>
      <trkpt lat="49.44393" lon="-1.38346">
        <ele>17.1</ele>
        <time>2022-08-29T14:51:38Z</time>
      </trkpt>
      <trkpt lat="49.4439" lon="-1.3835">
        <ele>17.6</ele>
        <time>2022-08-29T14:51:41Z</time>
      </trkpt>
      <trkpt lat="49.44385" lon="-1.38356">
        <ele>18.5</ele>
        <time>2022-08-29T14:51:46Z</time>
      </trkpt>
      <trkpt lat="49.44381" lon="-1.38363">
        <ele>18.1</ele>
        <time>2022-08-29T14:51:50Z</time>
      </trkpt>
      <trkpt lat="49.44378" lon="-1.38369">
        <ele>18.2</ele>
        <time>2022-08-29T14:51:54Z</time>
      </trkpt>
      <trkpt lat="49.44374" lon="-1.38374">
        <ele>17.9</ele>
        <time>2022-08-29T14:51:57Z</time>
      </trkpt>
      <trkpt lat="49.44369" lon="-1.38379">
        <ele>18</ele>
        <time>2022-08-29T14:52:01Z</time>
      </trkpt>
      <trkpt lat="49.44366" lon="-1.38383">
        <ele>17.8</ele>
        <time>2022-08-29T14:52:04Z</time>
      </trkpt>
      <trkpt lat="49.44363" lon="-1.38389">
        <ele>18</ele>
        <time>2022-08-29T14:52:07Z</time>
      </trkpt>
      <trkpt lat="49.44359" lon="-1.38395">
        <ele>17.5</ele>
        <time>2022-08-29T14:52:11Z</time>
      </trkpt>
      <trkpt lat="49.44355" lon="-1.38401">
        <ele>17</ele>
        <time>2022-08-29T14:52:15Z</time>
      </trkpt>
      <trkpt lat="49.44352" lon="-1.38407">
        <ele>16.8</ele>
        <time>2022-08-29T14:52:19Z</time>
      </trkpt>
      <trkpt lat="49.44349" lon="-1.38413">
        <ele>16.7</ele>
        <time>2022-08-29T14:52:23Z</time>
      </trkpt>
      <trkpt lat="49.44345" lon="-1.3842">
        <ele>16.3</ele>
        <time>2022-08-29T14:52:27Z</time>
      </trkpt>
      <trkpt lat="49.44342" lon="-1.38427">
        <ele>16.4</ele>
        <time>2022-08-29T14:52:31Z</time>
      </trkpt>
      <trkpt lat="49.4434" lon="-1.38435">
        <ele>16.6</ele>
        <time>2022-08-29T14:52:35Z</time>
      </trkpt>
      <trkpt lat="49.44337" lon="-1.38441">
        <ele>17.1</ele>
        <time>2022-08-29T14:52:38Z</time>
      </trkpt>
      <trkpt lat="49.44334" lon="-1.38447">
        <ele>17.3</ele>
        <time>2022-08-29T14:52:42Z</time>
      </trkpt>
      <trkpt lat="49.44331" lon="-1.38453">
        <ele>17.7</ele>
        <time>2022-08-29T14:52:45Z</time>
      </trkpt>
      <trkpt lat="49.44328" lon="-1.3846">
        <ele>17.2</ele>
        <time>2022-08-29T14:52:49Z</time>
      </trkpt>
      <trkpt lat="49.44324" lon="-1.38468">
        <ele>16.8</ele>
        <time>2022-08-29T14:52:53Z</time>
      </trkpt>
      <trkpt lat="49.4432" lon="-1.38475">
        <ele>17.2</ele>
        <time>2022-08-29T14:52:57Z</time>
      </trkpt>
      <trkpt lat="49.44316" lon="-1.38481">
        <ele>16.1</ele>
        <time>2022-08-29T14:53:01Z</time>
      </trkpt>
      <trkpt lat="49.44313" lon="-1.38486">
        <ele>15.7</ele>
        <time>2022-08-29T14:53:04Z</time>
      </trkpt>
      <trkpt lat="49.44309" lon="-1.38493">
        <ele>15.7</ele>
        <time>2022-08-29T14:53:08Z</time>
      </trkpt>
      <trkpt lat="49.44305" lon="-1.38498">
        <ele>15</ele>
        <time>2022-08-29T14:53:12Z</time>
      </trkpt>
      <trkpt lat="49.443" lon="-1.38498">
        <ele>14.6</ele>
        <time>2022-08-29T14:53:17Z</time>
      </trkpt>
      <trkpt lat="49.44297" lon="-1.38492">
        <ele>15.3</ele>
        <time>2022-08-29T14:53:27Z</time>
      </trkpt>
      <trkpt lat="49.44293" lon="-1.38487">
        <ele>14.1</ele>
        <time>2022-08-29T14:53:36Z</time>
      </trkpt>
      <trkpt lat="49.44286" lon="-1.38487">
        <ele>12.5</ele>
        <time>2022-08-29T14:53:47Z</time>
      </trkpt>
      <trkpt lat="49.44283" lon="-1.38493">
        <ele>12.4</ele>
        <time>2022-08-29T14:53:51Z</time>
      </trkpt>
      <trkpt lat="49.44276" lon="-1.38511">
        <ele>11.8</ele>
        <time>2022-08-29T14:53:58Z</time>
      </trkpt>
      <trkpt lat="49.44274" lon="-1.38518">
        <ele>11.3</ele>
        <time>2022-08-29T14:54:01Z</time>
      </trkpt>
      <trkpt lat="49.44272" lon="-1.38525">
        <ele>9.3</ele>
        <time>2022-08-29T14:54:04Z</time>
      </trkpt>
      <trkpt lat="49.44271" lon="-1.38535">
        <ele>8.8</ele>
        <time>2022-08-29T14:54:09Z</time>
      </trkpt>
      <trkpt lat="49.44269" lon="-1.38543">
        <ele>8.7</ele>
        <time>2022-08-29T14:54:13Z</time>
      </trkpt>
      <trkpt lat="49.44266" lon="-1.3855">
        <ele>8.8</ele>
        <time>2022-08-29T14:54:17Z</time>
      </trkpt>
      <trkpt lat="49.44261" lon="-1.38553">
        <ele>8.7</ele>
        <time>2022-08-29T14:54:21Z</time>
      </trkpt>
      <trkpt lat="49.44256" lon="-1.38551">
        <ele>8.6</ele>
        <time>2022-08-29T14:54:24Z</time>
      </trkpt>
      <trkpt lat="49.44252" lon="-1.38549">
        <ele>8.1</ele>
        <time>2022-08-29T14:54:27Z</time>
      </trkpt>
      <trkpt lat="49.44246" lon="-1.38548">
        <ele>8.2</ele>
        <time>2022-08-29T14:54:31Z</time>
      </trkpt>
      <trkpt lat="49.44241" lon="-1.38552">
        <ele>8.2</ele>
        <time>2022-08-29T14:54:35Z</time>
      </trkpt>
      <trkpt lat="49.44236" lon="-1.38557">
        <ele>7.5</ele>
        <time>2022-08-29T14:54:39Z</time>
      </trkpt>
      <trkpt lat="49.44232" lon="-1.38563">
        <ele>7</ele>
        <time>2022-08-29T14:54:43Z</time>
      </trkpt>
      <trkpt lat="49.44229" lon="-1.38568">
        <ele>6.5</ele>
        <time>2022-08-29T14:54:46Z</time>
      </trkpt>
      <trkpt lat="49.44226" lon="-1.38575">
        <ele>6.6</ele>
        <time>2022-08-29T14:54:50Z</time>
      </trkpt>
      <trkpt lat="49.44222" lon="-1.3858">
        <ele>6.5</ele>
        <time>2022-08-29T14:54:54Z</time>
      </trkpt>
      <trkpt lat="49.44218" lon="-1.38587">
        <ele>6.4</ele>
        <time>2022-08-29T14:54:58Z</time>
      </trkpt>
      <trkpt lat="49.44216" lon="-1.38593">
        <ele>5.9</ele>
        <time>2022-08-29T14:55:02Z</time>
      </trkpt>
      <trkpt lat="49.44214" lon="-1.386">
        <ele>6.4</ele>
        <time>2022-08-29T14:55:05Z</time>
      </trkpt>
      <trkpt lat="49.44213" lon="-1.38608">
        <ele>6.7</ele>
        <time>2022-08-29T14:55:09Z</time>
      </trkpt>
      <trkpt lat="49.4421" lon="-1.38617">
        <ele>7.1</ele>
        <time>2022-08-29T14:55:13Z</time>
      </trkpt>
      <trkpt lat="49.44207" lon="-1.38624">
        <ele>6.4</ele>
        <time>2022-08-29T14:55:18Z</time>
      </trkpt>
      <trkpt lat="49.44203" lon="-1.3863">
        <ele>6.7</ele>
        <time>2022-08-29T14:55:21Z</time>
      </trkpt>
      <trkpt lat="49.44199" lon="-1.38635">
        <ele>7.1</ele>
        <time>2022-08-29T14:55:25Z</time>
      </trkpt>
      <trkpt lat="49.44195" lon="-1.38638">
        <ele>6.8</ele>
        <time>2022-08-29T14:55:29Z</time>
      </trkpt>
      <trkpt lat="49.4419" lon="-1.3864">
        <ele>6.3</ele>
        <time>2022-08-29T14:55:32Z</time>
      </trkpt>
      <trkpt lat="49.44184" lon="-1.3864">
        <ele>6.7</ele>
        <time>2022-08-29T14:55:35Z</time>
      </trkpt>
      <trkpt lat="49.44179" lon="-1.3864">
        <ele>6.5</ele>
        <time>2022-08-29T14:55:39Z</time>
      </trkpt>
      <trkpt lat="49.44173" lon="-1.38638">
        <ele>6.4</ele>
        <time>2022-08-29T14:55:44Z</time>
      </trkpt>
      <trkpt lat="49.44168" lon="-1.38635">
        <ele>6.4</ele>
        <time>2022-08-29T14:55:48Z</time>
      </trkpt>
      <trkpt lat="49.44163" lon="-1.38632">
        <ele>6.4</ele>
        <time>2022-08-29T14:55:52Z</time>
      </trkpt>
      <trkpt lat="49.44164" lon="-1.38624">
        <ele>6</ele>
        <time>2022-08-29T14:55:56Z</time>
      </trkpt>
      <trkpt lat="49.44168" lon="-1.38618">
        <ele>5.8</ele>
        <time>2022-08-29T14:55:59Z</time>
      </trkpt>
      <trkpt lat="49.44173" lon="-1.38614">
        <ele>5.7</ele>
        <time>2022-08-29T14:56:03Z</time>
      </trkpt>
      <trkpt lat="49.44177" lon="-1.3861">
        <ele>6</ele>
        <time>2022-08-29T14:56:06Z</time>
      </trkpt>
      <trkpt lat="49.44182" lon="-1.38609">
        <ele>4.5</ele>
        <time>2022-08-29T14:56:20Z</time>
      </trkpt>
      <trkpt lat="49.44186" lon="-1.38607">
        <ele>2.1</ele>
        <time>2022-08-29T14:57:18Z</time>
      </trkpt>
      <trkpt lat="49.44186" lon="-1.386">
        <ele>1.9</ele>
        <time>2022-08-29T14:57:46Z</time>
      </trkpt>
      <trkpt lat="49.44191" lon="-1.38595">
        <ele>1.7</ele>
        <time>2022-08-29T14:57:53Z</time>
      </trkpt>
      <trkpt lat="49.44195" lon="-1.38594">
        <ele>1.7</ele>
        <time>2022-08-29T14:57:58Z</time>
      </trkpt>
      <trkpt lat="49.4419" lon="-1.38597">
        <ele>1</ele>
        <time>2022-08-29T14:58:06Z</time>
      </trkpt>
      <trkpt lat="49.44186" lon="-1.38599">
        <ele>0.9</ele>
        <time>2022-08-29T14:58:09Z</time>
      </trkpt>
      <trkpt lat="49.44181" lon="-1.38604">
        <ele>0.4</ele>
        <time>2022-08-29T14:58:13Z</time>
      </trkpt>
      <trkpt lat="49.44178" lon="-1.38609">
        <ele>0.9</ele>
        <time>2022-08-29T14:58:16Z</time>
      </trkpt>
      <trkpt lat="49.44176" lon="-1.38615">
        <ele>1.1</ele>
        <time>2022-08-29T14:58:22Z</time>
      </trkpt>
      <trkpt lat="49.44171" lon="-1.38617">
        <ele>1.1</ele>
        <time>2022-08-29T14:58:37Z</time>
      </trkpt>
      <trkpt lat="49.44164" lon="-1.38614">
        <ele>1</ele>
        <time>2022-08-29T14:58:40Z</time>
      </trkpt>
      <trkpt lat="49.44159" lon="-1.3861">
        <ele>1.1</ele>
        <time>2022-08-29T14:58:42Z</time>
      </trkpt>
      <trkpt lat="49.44155" lon="-1.38608">
        <ele>1.3</ele>
        <time>2022-08-29T14:58:44Z</time>
      </trkpt>
      <trkpt lat="49.44149" lon="-1.38604">
        <ele>1.6</ele>
        <time>2022-08-29T14:58:47Z</time>
      </trkpt>
      <trkpt lat="49.44145" lon="-1.38601">
        <ele>1.7</ele>
        <time>2022-08-29T14:58:50Z</time>
      </trkpt>
      <trkpt lat="49.44139" lon="-1.38598">
        <ele>1.9</ele>
        <time>2022-08-29T14:58:54Z</time>
      </trkpt>
      <trkpt lat="49.44135" lon="-1.38593">
        <ele>2.6</ele>
        <time>2022-08-29T14:58:58Z</time>
      </trkpt>
      <trkpt lat="49.4413" lon="-1.38588">
        <ele>4.7</ele>
        <time>2022-08-29T14:59:55Z</time>
      </trkpt>
      <trkpt lat="49.44113" lon="-1.38562">
        <ele>4.5</ele>
        <time>2022-08-29T15:00:08Z</time>
      </trkpt>
      <trkpt lat="49.4411" lon="-1.38555">
        <ele>4.2</ele>
        <time>2022-08-29T15:00:11Z</time>
      </trkpt>
      <trkpt lat="49.44105" lon="-1.38548">
        <ele>4.3</ele>
        <time>2022-08-29T15:00:15Z</time>
      </trkpt>
      <trkpt lat="49.44101" lon="-1.38543">
        <ele>3.9</ele>
        <time>2022-08-29T15:00:18Z</time>
      </trkpt>
      <trkpt lat="49.44098" lon="-1.38538">
        <ele>3.7</ele>
        <time>2022-08-29T15:00:22Z</time>
      </trkpt>
      <trkpt lat="49.44096" lon="-1.3853">
        <ele>3.7</ele>
        <time>2022-08-29T15:00:42Z</time>
      </trkpt>
      <trkpt lat="49.44089" lon="-1.38527">
        <ele>3.8</ele>
        <time>2022-08-29T15:00:45Z</time>
      </trkpt>
      <trkpt lat="49.44084" lon="-1.38522">
        <ele>4.1</ele>
        <time>2022-08-29T15:00:49Z</time>
      </trkpt>
      <trkpt lat="49.44079" lon="-1.38517">
        <ele>4.5</ele>
        <time>2022-08-29T15:01:04Z</time>
      </trkpt>
      <trkpt lat="49.44075" lon="-1.38511">
        <ele>5.1</ele>
        <time>2022-08-29T15:01:08Z</time>
      </trkpt>
      <trkpt lat="49.44072" lon="-1.38506">
        <ele>5.2</ele>
        <time>2022-08-29T15:01:11Z</time>
      </trkpt>
      <trkpt lat="49.44067" lon="-1.385">
        <ele>5.3</ele>
        <time>2022-08-29T15:01:15Z</time>
      </trkpt>
      <trkpt lat="49.44061" lon="-1.38496">
        <ele>4.1</ele>
        <time>2022-08-29T15:01:20Z</time>
      </trkpt>
      <trkpt lat="49.44055" lon="-1.38492">
        <ele>4.5</ele>
        <time>2022-08-29T15:01:25Z</time>
      </trkpt>
      <trkpt lat="49.4405" lon="-1.3849">
        <ele>4.5</ele>
        <time>2022-08-29T15:01:29Z</time>
      </trkpt>
      <trkpt lat="49.44045" lon="-1.38486">
        <ele>4.3</ele>
        <time>2022-08-29T15:01:33Z</time>
      </trkpt>
      <trkpt lat="49.44039" lon="-1.38482">
        <ele>4.2</ele>
        <time>2022-08-29T15:01:38Z</time>
      </trkpt>
      <trkpt lat="49.44035" lon="-1.3848">
        <ele>4.7</ele>
        <time>2022-08-29T15:01:42Z</time>
      </trkpt>
      <trkpt lat="49.4403" lon="-1.38476">
        <ele>4.7</ele>
        <time>2022-08-29T15:01:45Z</time>
      </trkpt>
      <trkpt lat="49.44025" lon="-1.38472">
        <ele>4.3</ele>
        <time>2022-08-29T15:01:50Z</time>
      </trkpt>
      <trkpt lat="49.4402" lon="-1.3847">
        <ele>4.6</ele>
        <time>2022-08-29T15:01:54Z</time>
      </trkpt>
      <trkpt lat="49.44015" lon="-1.38472">
        <ele>3.7</ele>
        <time>2022-08-29T15:01:57Z</time>
      </trkpt>
      <trkpt lat="49.44012" lon="-1.38477">
        <ele>3.4</ele>
        <time>2022-08-29T15:02:01Z</time>
      </trkpt>
      <trkpt lat="49.44013" lon="-1.38486">
        <ele>3.2</ele>
        <time>2022-08-29T15:02:04Z</time>
      </trkpt>
      <trkpt lat="49.44013" lon="-1.38493">
        <ele>2.8</ele>
        <time>2022-08-29T15:02:14Z</time>
      </trkpt>
      <trkpt lat="49.44013" lon="-1.385">
        <ele>3.1</ele>
        <time>2022-08-29T15:02:20Z</time>
      </trkpt>
      <trkpt lat="49.44014" lon="-1.38508">
        <ele>3.5</ele>
        <time>2022-08-29T15:02:24Z</time>
      </trkpt>
      <trkpt lat="49.44015" lon="-1.38515">
        <ele>3.9</ele>
        <time>2022-08-29T15:02:28Z</time>
      </trkpt>
      <trkpt lat="49.44016" lon="-1.38523">
        <ele>3.9</ele>
        <time>2022-08-29T15:02:56Z</time>
      </trkpt>
      <trkpt lat="49.44015" lon="-1.38531">
        <ele>3.7</ele>
        <time>2022-08-29T15:03:00Z</time>
      </trkpt>
      <trkpt lat="49.44021" lon="-1.38533">
        <ele>4.4</ele>
        <time>2022-08-29T15:03:05Z</time>
      </trkpt>
      <trkpt lat="49.44025" lon="-1.38537">
        <ele>4.6</ele>
        <time>2022-08-29T15:03:08Z</time>
      </trkpt>
      <trkpt lat="49.44029" lon="-1.38544">
        <ele>4.5</ele>
        <time>2022-08-29T15:03:13Z</time>
      </trkpt>
    </trkseg>
  </trk>
</gpx>